<?xml version="1.0" encoding="UTF-8" standalone="no" ?>
<gpx xmlns="http://www.topografix.com/GPX/1/1" xmlns:xsi="http://www.w3.org/2001/XMLSchema-instance" xsi:schemaLocation="http://www.topografix.com/GPX/1/1 http://www.topografix.com/GPX/1/1/gpx.xsd" version="1.1" creator="VisuGPX - https://www.visugpx.com">
  <metadata>
    <name>Tour du Viso</name>
    <desc><![CDATA[5 jours autour du Viso ]]></desc>
  </metadata>
  <trk>
    <name><![CDATA[15 juil. 2022]]></name>
    <desc><![CDATA[comment ...]]></desc>
    <extensions>
      <line xmlns="http://www.topografix.com/GPX/gpx_style/0/2">
        <color>00FFFF</color>
        <width>4</width>
      </line>
    </extensions>
    <trkseg>
      <trkpt lat="44.70026" lon="7.09581">
        <ele>2015</ele>
        <time>2022-07-15T06:26:16Z</time>
      </trkpt>
      <trkpt lat="44.70026" lon="7.0958">
        <ele>2016</ele>
        <time>2022-07-15T06:26:17Z</time>
      </trkpt>
      <trkpt lat="44.70032" lon="7.09578">
        <ele>2019</ele>
        <time>2022-07-15T06:26:20Z</time>
      </trkpt>
      <trkpt lat="44.70039" lon="7.09577">
        <ele>2022</ele>
        <time>2022-07-15T06:26:29Z</time>
      </trkpt>
      <trkpt lat="44.70056" lon="7.09573">
        <ele>2017</ele>
        <time>2022-07-15T06:26:46Z</time>
      </trkpt>
      <trkpt lat="44.7006" lon="7.09572">
        <ele>2015</ele>
        <time>2022-07-15T06:26:51Z</time>
      </trkpt>
      <trkpt lat="44.70063" lon="7.09569">
        <ele>2013</ele>
        <time>2022-07-15T06:26:56Z</time>
      </trkpt>
      <trkpt lat="44.70072" lon="7.09559">
        <ele>2013</ele>
        <time>2022-07-15T06:27:08Z</time>
      </trkpt>
      <trkpt lat="44.70074" lon="7.09554">
        <ele>2013</ele>
        <time>2022-07-15T06:27:12Z</time>
      </trkpt>
      <trkpt lat="44.70077" lon="7.0955">
        <ele>2012</ele>
        <time>2022-07-15T06:27:16Z</time>
      </trkpt>
      <trkpt lat="44.7008" lon="7.09547">
        <ele>2011</ele>
        <time>2022-07-15T06:27:20Z</time>
      </trkpt>
      <trkpt lat="44.70088" lon="7.09545">
        <ele>2011</ele>
        <time>2022-07-15T06:27:27Z</time>
      </trkpt>
      <trkpt lat="44.70095" lon="7.09551">
        <ele>2012</ele>
        <time>2022-07-15T06:27:34Z</time>
      </trkpt>
      <trkpt lat="44.70097" lon="7.09555">
        <ele>2011</ele>
        <time>2022-07-15T06:27:38Z</time>
      </trkpt>
      <trkpt lat="44.70095" lon="7.09578">
        <ele>2011</ele>
        <time>2022-07-15T06:27:54Z</time>
      </trkpt>
      <trkpt lat="44.70095" lon="7.09584">
        <ele>2011</ele>
        <time>2022-07-15T06:27:58Z</time>
      </trkpt>
      <trkpt lat="44.70097" lon="7.09589">
        <ele>2012</ele>
        <time>2022-07-15T06:28:02Z</time>
      </trkpt>
      <trkpt lat="44.701" lon="7.09592">
        <ele>2012</ele>
        <time>2022-07-15T06:28:06Z</time>
      </trkpt>
      <trkpt lat="44.70103" lon="7.09595">
        <ele>2012</ele>
        <time>2022-07-15T06:28:10Z</time>
      </trkpt>
      <trkpt lat="44.7011" lon="7.09598">
        <ele>2013</ele>
        <time>2022-07-15T06:28:20Z</time>
      </trkpt>
      <trkpt lat="44.70114" lon="7.09599">
        <ele>2014</ele>
        <time>2022-07-15T06:28:26Z</time>
      </trkpt>
      <trkpt lat="44.70113" lon="7.09594">
        <ele>2013</ele>
        <time>2022-07-15T06:28:36Z</time>
      </trkpt>
      <trkpt lat="44.70115" lon="7.09589">
        <ele>2013</ele>
        <time>2022-07-15T06:28:41Z</time>
      </trkpt>
      <trkpt lat="44.70116" lon="7.09584">
        <ele>2014</ele>
        <time>2022-07-15T06:28:46Z</time>
      </trkpt>
      <trkpt lat="44.70121" lon="7.09576">
        <ele>2017</ele>
        <time>2022-07-15T06:28:57Z</time>
      </trkpt>
      <trkpt lat="44.70124" lon="7.09573">
        <ele>2018</ele>
        <time>2022-07-15T06:29:05Z</time>
      </trkpt>
      <trkpt lat="44.7013" lon="7.09567">
        <ele>2019</ele>
        <time>2022-07-15T06:29:16Z</time>
      </trkpt>
      <trkpt lat="44.70135" lon="7.09559">
        <ele>2022</ele>
        <time>2022-07-15T06:29:26Z</time>
      </trkpt>
      <trkpt lat="44.70137" lon="7.09555">
        <ele>2023</ele>
        <time>2022-07-15T06:29:32Z</time>
      </trkpt>
      <trkpt lat="44.70142" lon="7.09548">
        <ele>2024</ele>
        <time>2022-07-15T06:29:43Z</time>
      </trkpt>
      <trkpt lat="44.70143" lon="7.09544">
        <ele>2026</ele>
        <time>2022-07-15T06:29:49Z</time>
      </trkpt>
      <trkpt lat="44.70148" lon="7.09517">
        <ele>2028</ele>
        <time>2022-07-15T06:30:15Z</time>
      </trkpt>
      <trkpt lat="44.70149" lon="7.09512">
        <ele>2029</ele>
        <time>2022-07-15T06:30:21Z</time>
      </trkpt>
      <trkpt lat="44.70151" lon="7.09508">
        <ele>2029</ele>
        <time>2022-07-15T06:30:27Z</time>
      </trkpt>
      <trkpt lat="44.70153" lon="7.09504">
        <ele>2029</ele>
        <time>2022-07-15T06:30:32Z</time>
      </trkpt>
      <trkpt lat="44.70155" lon="7.095">
        <ele>2029</ele>
        <time>2022-07-15T06:30:38Z</time>
      </trkpt>
      <trkpt lat="44.70159" lon="7.09498">
        <ele>2032</ele>
        <time>2022-07-15T06:30:43Z</time>
      </trkpt>
      <trkpt lat="44.70161" lon="7.09493">
        <ele>2033</ele>
        <time>2022-07-15T06:30:48Z</time>
      </trkpt>
      <trkpt lat="44.70162" lon="7.09489">
        <ele>2035</ele>
        <time>2022-07-15T06:30:53Z</time>
      </trkpt>
      <trkpt lat="44.70164" lon="7.09484">
        <ele>2036</ele>
        <time>2022-07-15T06:31:00Z</time>
      </trkpt>
      <trkpt lat="44.70166" lon="7.0948">
        <ele>2037</ele>
        <time>2022-07-15T06:31:06Z</time>
      </trkpt>
      <trkpt lat="44.70167" lon="7.09476">
        <ele>2038</ele>
        <time>2022-07-15T06:31:11Z</time>
      </trkpt>
      <trkpt lat="44.70168" lon="7.09471">
        <ele>2041</ele>
        <time>2022-07-15T06:31:17Z</time>
      </trkpt>
      <trkpt lat="44.70169" lon="7.09461">
        <ele>2044</ele>
        <time>2022-07-15T06:31:28Z</time>
      </trkpt>
      <trkpt lat="44.70168" lon="7.09456">
        <ele>2042</ele>
        <time>2022-07-15T06:32:05Z</time>
      </trkpt>
      <trkpt lat="44.70167" lon="7.09452">
        <ele>2042</ele>
        <time>2022-07-15T06:32:09Z</time>
      </trkpt>
      <trkpt lat="44.70168" lon="7.09446">
        <ele>2042</ele>
        <time>2022-07-15T06:32:14Z</time>
      </trkpt>
      <trkpt lat="44.70169" lon="7.09441">
        <ele>2042</ele>
        <time>2022-07-15T06:32:19Z</time>
      </trkpt>
      <trkpt lat="44.70176" lon="7.09418">
        <ele>2042</ele>
        <time>2022-07-15T06:32:40Z</time>
      </trkpt>
      <trkpt lat="44.70177" lon="7.09413">
        <ele>2042</ele>
        <time>2022-07-15T06:32:45Z</time>
      </trkpt>
      <trkpt lat="44.70178" lon="7.09408">
        <ele>2043</ele>
        <time>2022-07-15T06:32:51Z</time>
      </trkpt>
      <trkpt lat="44.70181" lon="7.09404">
        <ele>2044</ele>
        <time>2022-07-15T06:32:56Z</time>
      </trkpt>
      <trkpt lat="44.70182" lon="7.09399">
        <ele>2045</ele>
        <time>2022-07-15T06:33:01Z</time>
      </trkpt>
      <trkpt lat="44.70187" lon="7.09391">
        <ele>2046</ele>
        <time>2022-07-15T06:33:11Z</time>
      </trkpt>
      <trkpt lat="44.70187" lon="7.09385">
        <ele>2047</ele>
        <time>2022-07-15T06:33:17Z</time>
      </trkpt>
      <trkpt lat="44.7019" lon="7.09382">
        <ele>2049</ele>
        <time>2022-07-15T06:33:23Z</time>
      </trkpt>
      <trkpt lat="44.70195" lon="7.09369">
        <ele>2050</ele>
        <time>2022-07-15T06:33:38Z</time>
      </trkpt>
      <trkpt lat="44.70198" lon="7.09366">
        <ele>2050</ele>
        <time>2022-07-15T06:33:45Z</time>
      </trkpt>
      <trkpt lat="44.70199" lon="7.09361">
        <ele>2050</ele>
        <time>2022-07-15T06:33:51Z</time>
      </trkpt>
      <trkpt lat="44.70208" lon="7.09347">
        <ele>2051</ele>
        <time>2022-07-15T06:34:11Z</time>
      </trkpt>
      <trkpt lat="44.70209" lon="7.09333">
        <ele>2053</ele>
        <time>2022-07-15T06:34:27Z</time>
      </trkpt>
      <trkpt lat="44.70205" lon="7.0933">
        <ele>2056</ele>
        <time>2022-07-15T06:34:32Z</time>
      </trkpt>
      <trkpt lat="44.70204" lon="7.09324">
        <ele>2057</ele>
        <time>2022-07-15T06:34:37Z</time>
      </trkpt>
      <trkpt lat="44.70205" lon="7.0932">
        <ele>2057</ele>
        <time>2022-07-15T06:34:41Z</time>
      </trkpt>
      <trkpt lat="44.70208" lon="7.09309">
        <ele>2056</ele>
        <time>2022-07-15T06:34:52Z</time>
      </trkpt>
      <trkpt lat="44.70211" lon="7.09306">
        <ele>2056</ele>
        <time>2022-07-15T06:35:02Z</time>
      </trkpt>
      <trkpt lat="44.70212" lon="7.09301">
        <ele>2056</ele>
        <time>2022-07-15T06:35:07Z</time>
      </trkpt>
      <trkpt lat="44.70216" lon="7.09292">
        <ele>2059</ele>
        <time>2022-07-15T06:35:18Z</time>
      </trkpt>
      <trkpt lat="44.70218" lon="7.09288">
        <ele>2057</ele>
        <time>2022-07-15T06:35:24Z</time>
      </trkpt>
      <trkpt lat="44.70219" lon="7.09283">
        <ele>2058</ele>
        <time>2022-07-15T06:35:32Z</time>
      </trkpt>
      <trkpt lat="44.7022" lon="7.09265">
        <ele>2060</ele>
        <time>2022-07-15T06:35:52Z</time>
      </trkpt>
      <trkpt lat="44.70225" lon="7.09245">
        <ele>2064</ele>
        <time>2022-07-15T06:36:14Z</time>
      </trkpt>
      <trkpt lat="44.70226" lon="7.0924">
        <ele>2066</ele>
        <time>2022-07-15T06:36:19Z</time>
      </trkpt>
      <trkpt lat="44.70228" lon="7.09236">
        <ele>2067</ele>
        <time>2022-07-15T06:36:24Z</time>
      </trkpt>
      <trkpt lat="44.70228" lon="7.0923">
        <ele>2069</ele>
        <time>2022-07-15T06:36:29Z</time>
      </trkpt>
      <trkpt lat="44.70227" lon="7.09226">
        <ele>2071</ele>
        <time>2022-07-15T06:36:34Z</time>
      </trkpt>
      <trkpt lat="44.70224" lon="7.09222">
        <ele>2072</ele>
        <time>2022-07-15T06:36:39Z</time>
      </trkpt>
      <trkpt lat="44.70224" lon="7.09217">
        <ele>2073</ele>
        <time>2022-07-15T06:36:45Z</time>
      </trkpt>
      <trkpt lat="44.70223" lon="7.09212">
        <ele>2074</ele>
        <time>2022-07-15T06:36:50Z</time>
      </trkpt>
      <trkpt lat="44.70222" lon="7.09207">
        <ele>2075</ele>
        <time>2022-07-15T06:36:56Z</time>
      </trkpt>
      <trkpt lat="44.70225" lon="7.09198">
        <ele>2076</ele>
        <time>2022-07-15T06:37:06Z</time>
      </trkpt>
      <trkpt lat="44.70225" lon="7.09193">
        <ele>2077</ele>
        <time>2022-07-15T06:37:12Z</time>
      </trkpt>
      <trkpt lat="44.70226" lon="7.09188">
        <ele>2077</ele>
        <time>2022-07-15T06:37:18Z</time>
      </trkpt>
      <trkpt lat="44.70227" lon="7.09183">
        <ele>2077</ele>
        <time>2022-07-15T06:37:24Z</time>
      </trkpt>
      <trkpt lat="44.70227" lon="7.09178">
        <ele>2078</ele>
        <time>2022-07-15T06:37:30Z</time>
      </trkpt>
      <trkpt lat="44.70227" lon="7.09173">
        <ele>2078</ele>
        <time>2022-07-15T06:37:36Z</time>
      </trkpt>
      <trkpt lat="44.70229" lon="7.09169">
        <ele>2081</ele>
        <time>2022-07-15T06:37:43Z</time>
      </trkpt>
      <trkpt lat="44.70229" lon="7.09163">
        <ele>2081</ele>
        <time>2022-07-15T06:37:52Z</time>
      </trkpt>
      <trkpt lat="44.70232" lon="7.09161">
        <ele>2082</ele>
        <time>2022-07-15T06:38:19Z</time>
      </trkpt>
      <trkpt lat="44.70233" lon="7.09156">
        <ele>2084</ele>
        <time>2022-07-15T06:38:26Z</time>
      </trkpt>
      <trkpt lat="44.70236" lon="7.09152">
        <ele>2083</ele>
        <time>2022-07-15T06:38:35Z</time>
      </trkpt>
      <trkpt lat="44.70238" lon="7.09147">
        <ele>2085</ele>
        <time>2022-07-15T06:38:43Z</time>
      </trkpt>
      <trkpt lat="44.70238" lon="7.0914">
        <ele>2085</ele>
        <time>2022-07-15T06:38:52Z</time>
      </trkpt>
      <trkpt lat="44.70238" lon="7.09134">
        <ele>2085</ele>
        <time>2022-07-15T06:39:02Z</time>
      </trkpt>
      <trkpt lat="44.70239" lon="7.09129">
        <ele>2089</ele>
        <time>2022-07-15T06:39:15Z</time>
      </trkpt>
      <trkpt lat="44.70237" lon="7.09126">
        <ele>2091</ele>
        <time>2022-07-15T06:39:22Z</time>
      </trkpt>
      <trkpt lat="44.7024" lon="7.09106">
        <ele>2101</ele>
        <time>2022-07-15T06:39:52Z</time>
      </trkpt>
      <trkpt lat="44.70243" lon="7.09104">
        <ele>2103</ele>
        <time>2022-07-15T06:40:00Z</time>
      </trkpt>
      <trkpt lat="44.70246" lon="7.09108">
        <ele>2103</ele>
        <time>2022-07-15T06:40:04Z</time>
      </trkpt>
      <trkpt lat="44.70247" lon="7.09118">
        <ele>2105</ele>
        <time>2022-07-15T06:40:14Z</time>
      </trkpt>
      <trkpt lat="44.70253" lon="7.09131">
        <ele>2108</ele>
        <time>2022-07-15T06:40:30Z</time>
      </trkpt>
      <trkpt lat="44.70258" lon="7.09146">
        <ele>2109</ele>
        <time>2022-07-15T06:40:47Z</time>
      </trkpt>
      <trkpt lat="44.70262" lon="7.09155">
        <ele>2110</ele>
        <time>2022-07-15T06:41:17Z</time>
      </trkpt>
      <trkpt lat="44.70263" lon="7.0916">
        <ele>2111</ele>
        <time>2022-07-15T06:41:23Z</time>
      </trkpt>
      <trkpt lat="44.70265" lon="7.09165">
        <ele>2112</ele>
        <time>2022-07-15T06:41:30Z</time>
      </trkpt>
      <trkpt lat="44.70269" lon="7.09173">
        <ele>2113</ele>
        <time>2022-07-15T06:41:45Z</time>
      </trkpt>
      <trkpt lat="44.70271" lon="7.09178">
        <ele>2115</ele>
        <time>2022-07-15T06:41:52Z</time>
      </trkpt>
      <trkpt lat="44.70274" lon="7.09187">
        <ele>2118</ele>
        <time>2022-07-15T06:42:05Z</time>
      </trkpt>
      <trkpt lat="44.70276" lon="7.09192">
        <ele>2119</ele>
        <time>2022-07-15T06:42:12Z</time>
      </trkpt>
      <trkpt lat="44.7028" lon="7.09195">
        <ele>2120</ele>
        <time>2022-07-15T06:42:19Z</time>
      </trkpt>
      <trkpt lat="44.70281" lon="7.09199">
        <ele>2121</ele>
        <time>2022-07-15T06:42:25Z</time>
      </trkpt>
      <trkpt lat="44.70285" lon="7.09201">
        <ele>2122</ele>
        <time>2022-07-15T06:42:30Z</time>
      </trkpt>
      <trkpt lat="44.70296" lon="7.09207">
        <ele>2124</ele>
        <time>2022-07-15T06:42:51Z</time>
      </trkpt>
      <trkpt lat="44.70299" lon="7.0921">
        <ele>2124</ele>
        <time>2022-07-15T06:42:58Z</time>
      </trkpt>
      <trkpt lat="44.70302" lon="7.09213">
        <ele>2125</ele>
        <time>2022-07-15T06:43:05Z</time>
      </trkpt>
      <trkpt lat="44.70305" lon="7.09215">
        <ele>2125</ele>
        <time>2022-07-15T06:43:11Z</time>
      </trkpt>
      <trkpt lat="44.70312" lon="7.09219">
        <ele>2126</ele>
        <time>2022-07-15T06:43:26Z</time>
      </trkpt>
      <trkpt lat="44.70315" lon="7.09221">
        <ele>2127</ele>
        <time>2022-07-15T06:43:32Z</time>
      </trkpt>
      <trkpt lat="44.70318" lon="7.09226">
        <ele>2128</ele>
        <time>2022-07-15T06:43:39Z</time>
      </trkpt>
      <trkpt lat="44.70317" lon="7.09231">
        <ele>2128</ele>
        <time>2022-07-15T06:43:45Z</time>
      </trkpt>
      <trkpt lat="44.70317" lon="7.09236">
        <ele>2129</ele>
        <time>2022-07-15T06:43:50Z</time>
      </trkpt>
      <trkpt lat="44.70316" lon="7.09242">
        <ele>2130</ele>
        <time>2022-07-15T06:43:56Z</time>
      </trkpt>
      <trkpt lat="44.70314" lon="7.09246">
        <ele>2132</ele>
        <time>2022-07-15T06:44:01Z</time>
      </trkpt>
      <trkpt lat="44.70314" lon="7.09252">
        <ele>2132</ele>
        <time>2022-07-15T06:44:08Z</time>
      </trkpt>
      <trkpt lat="44.70316" lon="7.09257">
        <ele>2133</ele>
        <time>2022-07-15T06:44:15Z</time>
      </trkpt>
      <trkpt lat="44.70318" lon="7.09266">
        <ele>2135</ele>
        <time>2022-07-15T06:44:25Z</time>
      </trkpt>
      <trkpt lat="44.70325" lon="7.09279">
        <ele>2137</ele>
        <time>2022-07-15T06:44:43Z</time>
      </trkpt>
      <trkpt lat="44.70329" lon="7.09305">
        <ele>2140</ele>
        <time>2022-07-15T06:45:17Z</time>
      </trkpt>
      <trkpt lat="44.7033" lon="7.09311">
        <ele>2142</ele>
        <time>2022-07-15T06:45:24Z</time>
      </trkpt>
      <trkpt lat="44.70333" lon="7.09314">
        <ele>2143</ele>
        <time>2022-07-15T06:45:30Z</time>
      </trkpt>
      <trkpt lat="44.70336" lon="7.09318">
        <ele>2146</ele>
        <time>2022-07-15T06:45:36Z</time>
      </trkpt>
      <trkpt lat="44.70343" lon="7.09316">
        <ele>2148</ele>
        <time>2022-07-15T06:45:46Z</time>
      </trkpt>
      <trkpt lat="44.70345" lon="7.09311">
        <ele>2149</ele>
        <time>2022-07-15T06:46:01Z</time>
      </trkpt>
      <trkpt lat="44.70346" lon="7.09306">
        <ele>2150</ele>
        <time>2022-07-15T06:46:11Z</time>
      </trkpt>
      <trkpt lat="44.70351" lon="7.09297">
        <ele>2150</ele>
        <time>2022-07-15T06:46:20Z</time>
      </trkpt>
      <trkpt lat="44.70353" lon="7.09293">
        <ele>2150</ele>
        <time>2022-07-15T06:46:24Z</time>
      </trkpt>
      <trkpt lat="44.70362" lon="7.09278">
        <ele>2151</ele>
        <time>2022-07-15T06:46:48Z</time>
      </trkpt>
      <trkpt lat="44.70364" lon="7.09273">
        <ele>2152</ele>
        <time>2022-07-15T06:46:54Z</time>
      </trkpt>
      <trkpt lat="44.70366" lon="7.09269">
        <ele>2155</ele>
        <time>2022-07-15T06:47:26Z</time>
      </trkpt>
      <trkpt lat="44.70367" lon="7.09264">
        <ele>2156</ele>
        <time>2022-07-15T06:47:33Z</time>
      </trkpt>
      <trkpt lat="44.70369" lon="7.0926">
        <ele>2157</ele>
        <time>2022-07-15T06:48:09Z</time>
      </trkpt>
      <trkpt lat="44.70368" lon="7.09255">
        <ele>2156</ele>
        <time>2022-07-15T06:48:14Z</time>
      </trkpt>
      <trkpt lat="44.70369" lon="7.0924">
        <ele>2157</ele>
        <time>2022-07-15T06:48:30Z</time>
      </trkpt>
      <trkpt lat="44.7037" lon="7.09235">
        <ele>2157</ele>
        <time>2022-07-15T06:48:38Z</time>
      </trkpt>
      <trkpt lat="44.70371" lon="7.09214">
        <ele>2159</ele>
        <time>2022-07-15T06:49:00Z</time>
      </trkpt>
      <trkpt lat="44.70371" lon="7.09208">
        <ele>2159</ele>
        <time>2022-07-15T06:49:06Z</time>
      </trkpt>
      <trkpt lat="44.70368" lon="7.09194">
        <ele>2162</ele>
        <time>2022-07-15T06:49:22Z</time>
      </trkpt>
      <trkpt lat="44.70366" lon="7.09189">
        <ele>2162</ele>
        <time>2022-07-15T06:49:25Z</time>
      </trkpt>
      <trkpt lat="44.70361" lon="7.09165">
        <ele>2162</ele>
        <time>2022-07-15T06:49:59Z</time>
      </trkpt>
      <trkpt lat="44.7036" lon="7.0916">
        <ele>2162</ele>
        <time>2022-07-15T06:50:04Z</time>
      </trkpt>
      <trkpt lat="44.70358" lon="7.0915">
        <ele>2162</ele>
        <time>2022-07-15T06:50:16Z</time>
      </trkpt>
      <trkpt lat="44.70355" lon="7.09146">
        <ele>2162</ele>
        <time>2022-07-15T06:50:22Z</time>
      </trkpt>
      <trkpt lat="44.70348" lon="7.09118">
        <ele>2165</ele>
        <time>2022-07-15T06:50:56Z</time>
      </trkpt>
      <trkpt lat="44.70347" lon="7.09113">
        <ele>2169</ele>
        <time>2022-07-15T06:51:05Z</time>
      </trkpt>
      <trkpt lat="44.7035" lon="7.0911">
        <ele>2170</ele>
        <time>2022-07-15T06:51:10Z</time>
      </trkpt>
      <trkpt lat="44.7035" lon="7.09105">
        <ele>2169</ele>
        <time>2022-07-15T06:51:17Z</time>
      </trkpt>
      <trkpt lat="44.70349" lon="7.091">
        <ele>2173</ele>
        <time>2022-07-15T06:51:39Z</time>
      </trkpt>
      <trkpt lat="44.70347" lon="7.09096">
        <ele>2178</ele>
        <time>2022-07-15T06:51:45Z</time>
      </trkpt>
      <trkpt lat="44.70343" lon="7.09094">
        <ele>2179</ele>
        <time>2022-07-15T06:51:52Z</time>
      </trkpt>
      <trkpt lat="44.70331" lon="7.09093">
        <ele>2183</ele>
        <time>2022-07-15T06:52:35Z</time>
      </trkpt>
      <trkpt lat="44.70328" lon="7.09091">
        <ele>2184</ele>
        <time>2022-07-15T06:52:40Z</time>
      </trkpt>
      <trkpt lat="44.70325" lon="7.09087">
        <ele>2184</ele>
        <time>2022-07-15T06:52:59Z</time>
      </trkpt>
      <trkpt lat="44.70323" lon="7.09083">
        <ele>2185</ele>
        <time>2022-07-15T06:53:07Z</time>
      </trkpt>
      <trkpt lat="44.7032" lon="7.09078">
        <ele>2185</ele>
        <time>2022-07-15T06:53:13Z</time>
      </trkpt>
      <trkpt lat="44.70317" lon="7.09079">
        <ele>2187</ele>
        <time>2022-07-15T06:53:41Z</time>
      </trkpt>
      <trkpt lat="44.70315" lon="7.09073">
        <ele>2188</ele>
        <time>2022-07-15T06:53:56Z</time>
      </trkpt>
      <trkpt lat="44.70308" lon="7.09068">
        <ele>2188</ele>
        <time>2022-07-15T06:54:05Z</time>
      </trkpt>
      <trkpt lat="44.703" lon="7.09065">
        <ele>2190</ele>
        <time>2022-07-15T06:54:12Z</time>
      </trkpt>
      <trkpt lat="44.70297" lon="7.09062">
        <ele>2191</ele>
        <time>2022-07-15T06:54:16Z</time>
      </trkpt>
      <trkpt lat="44.70293" lon="7.09047">
        <ele>2191</ele>
        <time>2022-07-15T06:54:28Z</time>
      </trkpt>
      <trkpt lat="44.70293" lon="7.09042">
        <ele>2191</ele>
        <time>2022-07-15T06:54:31Z</time>
      </trkpt>
      <trkpt lat="44.70296" lon="7.09027">
        <ele>2189</ele>
        <time>2022-07-15T06:54:44Z</time>
      </trkpt>
      <trkpt lat="44.70305" lon="7.09009">
        <ele>2190</ele>
        <time>2022-07-15T06:55:24Z</time>
      </trkpt>
      <trkpt lat="44.70309" lon="7.08999">
        <ele>2190</ele>
        <time>2022-07-15T06:55:35Z</time>
      </trkpt>
      <trkpt lat="44.70313" lon="7.08995">
        <ele>2190</ele>
        <time>2022-07-15T06:55:41Z</time>
      </trkpt>
      <trkpt lat="44.70315" lon="7.08991">
        <ele>2190</ele>
        <time>2022-07-15T06:55:47Z</time>
      </trkpt>
      <trkpt lat="44.70317" lon="7.08985">
        <ele>2191</ele>
        <time>2022-07-15T06:55:53Z</time>
      </trkpt>
      <trkpt lat="44.7032" lon="7.08981">
        <ele>2191</ele>
        <time>2022-07-15T06:56:00Z</time>
      </trkpt>
      <trkpt lat="44.70323" lon="7.08979">
        <ele>2192</ele>
        <time>2022-07-15T06:56:06Z</time>
      </trkpt>
      <trkpt lat="44.70335" lon="7.08965">
        <ele>2194</ele>
        <time>2022-07-15T06:56:27Z</time>
      </trkpt>
      <trkpt lat="44.70339" lon="7.08963">
        <ele>2194</ele>
        <time>2022-07-15T06:56:33Z</time>
      </trkpt>
      <trkpt lat="44.70344" lon="7.08955">
        <ele>2195</ele>
        <time>2022-07-15T06:56:45Z</time>
      </trkpt>
      <trkpt lat="44.70346" lon="7.08951">
        <ele>2194</ele>
        <time>2022-07-15T06:56:50Z</time>
      </trkpt>
      <trkpt lat="44.70352" lon="7.08944">
        <ele>2194</ele>
        <time>2022-07-15T06:57:00Z</time>
      </trkpt>
      <trkpt lat="44.70354" lon="7.08939">
        <ele>2195</ele>
        <time>2022-07-15T06:57:05Z</time>
      </trkpt>
      <trkpt lat="44.70358" lon="7.08936">
        <ele>2195</ele>
        <time>2022-07-15T06:57:11Z</time>
      </trkpt>
      <trkpt lat="44.70358" lon="7.08931">
        <ele>2195</ele>
        <time>2022-07-15T06:57:16Z</time>
      </trkpt>
      <trkpt lat="44.70361" lon="7.08926">
        <ele>2195</ele>
        <time>2022-07-15T06:57:22Z</time>
      </trkpt>
      <trkpt lat="44.70364" lon="7.08923">
        <ele>2195</ele>
        <time>2022-07-15T06:57:28Z</time>
      </trkpt>
      <trkpt lat="44.70368" lon="7.08916">
        <ele>2196</ele>
        <time>2022-07-15T06:57:39Z</time>
      </trkpt>
      <trkpt lat="44.70372" lon="7.08915">
        <ele>2197</ele>
        <time>2022-07-15T06:57:44Z</time>
      </trkpt>
      <trkpt lat="44.70375" lon="7.08914">
        <ele>2197</ele>
        <time>2022-07-15T06:57:50Z</time>
      </trkpt>
      <trkpt lat="44.70379" lon="7.08912">
        <ele>2197</ele>
        <time>2022-07-15T06:57:57Z</time>
      </trkpt>
      <trkpt lat="44.70381" lon="7.08907">
        <ele>2197</ele>
        <time>2022-07-15T06:58:03Z</time>
      </trkpt>
      <trkpt lat="44.70387" lon="7.08901">
        <ele>2198</ele>
        <time>2022-07-15T06:58:15Z</time>
      </trkpt>
      <trkpt lat="44.7039" lon="7.08898">
        <ele>2198</ele>
        <time>2022-07-15T06:58:21Z</time>
      </trkpt>
      <trkpt lat="44.70392" lon="7.08895">
        <ele>2199</ele>
        <time>2022-07-15T06:58:27Z</time>
      </trkpt>
      <trkpt lat="44.70396" lon="7.08894">
        <ele>2199</ele>
        <time>2022-07-15T06:58:34Z</time>
      </trkpt>
      <trkpt lat="44.70396" lon="7.08899">
        <ele>2200</ele>
        <time>2022-07-15T06:58:40Z</time>
      </trkpt>
      <trkpt lat="44.7039" lon="7.08914">
        <ele>2211</ele>
        <time>2022-07-15T06:58:54Z</time>
      </trkpt>
      <trkpt lat="44.70389" lon="7.08919">
        <ele>2212</ele>
        <time>2022-07-15T06:59:00Z</time>
      </trkpt>
      <trkpt lat="44.70386" lon="7.08929">
        <ele>2217</ele>
        <time>2022-07-15T06:59:11Z</time>
      </trkpt>
      <trkpt lat="44.70386" lon="7.08934">
        <ele>2217</ele>
        <time>2022-07-15T06:59:16Z</time>
      </trkpt>
      <trkpt lat="44.70379" lon="7.08947">
        <ele>2219</ele>
        <time>2022-07-15T06:59:48Z</time>
      </trkpt>
      <trkpt lat="44.70378" lon="7.08968">
        <ele>2219</ele>
        <time>2022-07-15T07:00:10Z</time>
      </trkpt>
      <trkpt lat="44.70377" lon="7.08973">
        <ele>2220</ele>
        <time>2022-07-15T07:00:15Z</time>
      </trkpt>
      <trkpt lat="44.70381" lon="7.08973">
        <ele>2224</ele>
        <time>2022-07-15T07:00:26Z</time>
      </trkpt>
      <trkpt lat="44.70384" lon="7.0897">
        <ele>2226</ele>
        <time>2022-07-15T07:00:31Z</time>
      </trkpt>
      <trkpt lat="44.70391" lon="7.08958">
        <ele>2228</ele>
        <time>2022-07-15T07:00:47Z</time>
      </trkpt>
      <trkpt lat="44.70396" lon="7.08951">
        <ele>2229</ele>
        <time>2022-07-15T07:01:00Z</time>
      </trkpt>
      <trkpt lat="44.70399" lon="7.08947">
        <ele>2229</ele>
        <time>2022-07-15T07:01:06Z</time>
      </trkpt>
      <trkpt lat="44.70405" lon="7.08941">
        <ele>2230</ele>
        <time>2022-07-15T07:01:18Z</time>
      </trkpt>
      <trkpt lat="44.70409" lon="7.08939">
        <ele>2231</ele>
        <time>2022-07-15T07:01:25Z</time>
      </trkpt>
      <trkpt lat="44.70412" lon="7.08935">
        <ele>2232</ele>
        <time>2022-07-15T07:01:30Z</time>
      </trkpt>
      <trkpt lat="44.70425" lon="7.08916">
        <ele>2237</ele>
        <time>2022-07-15T07:01:56Z</time>
      </trkpt>
      <trkpt lat="44.70428" lon="7.08913">
        <ele>2237</ele>
        <time>2022-07-15T07:02:01Z</time>
      </trkpt>
      <trkpt lat="44.70431" lon="7.08909">
        <ele>2235</ele>
        <time>2022-07-15T07:02:06Z</time>
      </trkpt>
      <trkpt lat="44.70433" lon="7.08905">
        <ele>2235</ele>
        <time>2022-07-15T07:02:11Z</time>
      </trkpt>
      <trkpt lat="44.70438" lon="7.08898">
        <ele>2236</ele>
        <time>2022-07-15T07:02:20Z</time>
      </trkpt>
      <trkpt lat="44.70439" lon="7.08893">
        <ele>2236</ele>
        <time>2022-07-15T07:02:24Z</time>
      </trkpt>
      <trkpt lat="44.70441" lon="7.08888">
        <ele>2237</ele>
        <time>2022-07-15T07:02:29Z</time>
      </trkpt>
      <trkpt lat="44.70443" lon="7.08884">
        <ele>2237</ele>
        <time>2022-07-15T07:02:34Z</time>
      </trkpt>
      <trkpt lat="44.70447" lon="7.08858">
        <ele>2237</ele>
        <time>2022-07-15T07:03:00Z</time>
      </trkpt>
      <trkpt lat="44.70451" lon="7.08843">
        <ele>2238</ele>
        <time>2022-07-15T07:03:16Z</time>
      </trkpt>
      <trkpt lat="44.70454" lon="7.0884">
        <ele>2238</ele>
        <time>2022-07-15T07:03:21Z</time>
      </trkpt>
      <trkpt lat="44.70455" lon="7.08835">
        <ele>2238</ele>
        <time>2022-07-15T07:03:25Z</time>
      </trkpt>
      <trkpt lat="44.70457" lon="7.0883">
        <ele>2237</ele>
        <time>2022-07-15T07:03:30Z</time>
      </trkpt>
      <trkpt lat="44.70458" lon="7.08825">
        <ele>2237</ele>
        <time>2022-07-15T07:03:35Z</time>
      </trkpt>
      <trkpt lat="44.70459" lon="7.08821">
        <ele>2239</ele>
        <time>2022-07-15T07:03:40Z</time>
      </trkpt>
      <trkpt lat="44.70461" lon="7.08816">
        <ele>2240</ele>
        <time>2022-07-15T07:03:47Z</time>
      </trkpt>
      <trkpt lat="44.70462" lon="7.08811">
        <ele>2241</ele>
        <time>2022-07-15T07:03:52Z</time>
      </trkpt>
      <trkpt lat="44.70462" lon="7.08806">
        <ele>2241</ele>
        <time>2022-07-15T07:03:56Z</time>
      </trkpt>
      <trkpt lat="44.70462" lon="7.088">
        <ele>2240</ele>
        <time>2022-07-15T07:04:02Z</time>
      </trkpt>
      <trkpt lat="44.70462" lon="7.08795">
        <ele>2241</ele>
        <time>2022-07-15T07:04:07Z</time>
      </trkpt>
      <trkpt lat="44.70462" lon="7.0879">
        <ele>2242</ele>
        <time>2022-07-15T07:04:12Z</time>
      </trkpt>
      <trkpt lat="44.70463" lon="7.08785">
        <ele>2242</ele>
        <time>2022-07-15T07:04:17Z</time>
      </trkpt>
      <trkpt lat="44.70464" lon="7.08781">
        <ele>2243</ele>
        <time>2022-07-15T07:04:24Z</time>
      </trkpt>
      <trkpt lat="44.70465" lon="7.08776">
        <ele>2242</ele>
        <time>2022-07-15T07:04:29Z</time>
      </trkpt>
      <trkpt lat="44.70466" lon="7.08771">
        <ele>2238</ele>
        <time>2022-07-15T07:04:35Z</time>
      </trkpt>
      <trkpt lat="44.7047" lon="7.08769">
        <ele>2238</ele>
        <time>2022-07-15T07:04:41Z</time>
      </trkpt>
      <trkpt lat="44.70471" lon="7.0876">
        <ele>2240</ele>
        <time>2022-07-15T07:04:56Z</time>
      </trkpt>
      <trkpt lat="44.70474" lon="7.08756">
        <ele>2244</ele>
        <time>2022-07-15T07:05:04Z</time>
      </trkpt>
      <trkpt lat="44.70476" lon="7.08752">
        <ele>2245</ele>
        <time>2022-07-15T07:05:11Z</time>
      </trkpt>
      <trkpt lat="44.70478" lon="7.08747">
        <ele>2246</ele>
        <time>2022-07-15T07:05:18Z</time>
      </trkpt>
      <trkpt lat="44.70481" lon="7.08732">
        <ele>2249</ele>
        <time>2022-07-15T07:05:35Z</time>
      </trkpt>
      <trkpt lat="44.70483" lon="7.08728">
        <ele>2250</ele>
        <time>2022-07-15T07:05:41Z</time>
      </trkpt>
      <trkpt lat="44.70483" lon="7.08723">
        <ele>2250</ele>
        <time>2022-07-15T07:05:48Z</time>
      </trkpt>
      <trkpt lat="44.70485" lon="7.08718">
        <ele>2250</ele>
        <time>2022-07-15T07:05:55Z</time>
      </trkpt>
      <trkpt lat="44.70487" lon="7.08714">
        <ele>2252</ele>
        <time>2022-07-15T07:06:03Z</time>
      </trkpt>
      <trkpt lat="44.70489" lon="7.0871">
        <ele>2254</ele>
        <time>2022-07-15T07:06:08Z</time>
      </trkpt>
      <trkpt lat="44.70489" lon="7.08705">
        <ele>2255</ele>
        <time>2022-07-15T07:06:14Z</time>
      </trkpt>
      <trkpt lat="44.70491" lon="7.08701">
        <ele>2256</ele>
        <time>2022-07-15T07:06:20Z</time>
      </trkpt>
      <trkpt lat="44.7049" lon="7.08695">
        <ele>2257</ele>
        <time>2022-07-15T07:06:27Z</time>
      </trkpt>
      <trkpt lat="44.70488" lon="7.08691">
        <ele>2259</ele>
        <time>2022-07-15T07:06:34Z</time>
      </trkpt>
      <trkpt lat="44.70487" lon="7.08686">
        <ele>2260</ele>
        <time>2022-07-15T07:06:41Z</time>
      </trkpt>
      <trkpt lat="44.70484" lon="7.08676">
        <ele>2266</ele>
        <time>2022-07-15T07:06:54Z</time>
      </trkpt>
      <trkpt lat="44.70481" lon="7.08662">
        <ele>2268</ele>
        <time>2022-07-15T07:07:10Z</time>
      </trkpt>
      <trkpt lat="44.70479" lon="7.08658">
        <ele>2269</ele>
        <time>2022-07-15T07:07:19Z</time>
      </trkpt>
      <trkpt lat="44.70479" lon="7.08653">
        <ele>2270</ele>
        <time>2022-07-15T07:08:03Z</time>
      </trkpt>
      <trkpt lat="44.70482" lon="7.08626">
        <ele>2273</ele>
        <time>2022-07-15T07:08:33Z</time>
      </trkpt>
      <trkpt lat="44.70483" lon="7.08621">
        <ele>2273</ele>
        <time>2022-07-15T07:08:39Z</time>
      </trkpt>
      <trkpt lat="44.70483" lon="7.08615">
        <ele>2272</ele>
        <time>2022-07-15T07:08:44Z</time>
      </trkpt>
      <trkpt lat="44.70484" lon="7.0861">
        <ele>2271</ele>
        <time>2022-07-15T07:08:47Z</time>
      </trkpt>
      <trkpt lat="44.70485" lon="7.08605">
        <ele>2269</ele>
        <time>2022-07-15T07:08:52Z</time>
      </trkpt>
      <trkpt lat="44.70488" lon="7.08602">
        <ele>2269</ele>
        <time>2022-07-15T07:08:58Z</time>
      </trkpt>
      <trkpt lat="44.7049" lon="7.08593">
        <ele>2273</ele>
        <time>2022-07-15T07:09:12Z</time>
      </trkpt>
      <trkpt lat="44.70493" lon="7.08589">
        <ele>2276</ele>
        <time>2022-07-15T07:09:17Z</time>
      </trkpt>
      <trkpt lat="44.70497" lon="7.08587">
        <ele>2277</ele>
        <time>2022-07-15T07:09:23Z</time>
      </trkpt>
      <trkpt lat="44.70501" lon="7.08587">
        <ele>2279</ele>
        <time>2022-07-15T07:09:29Z</time>
      </trkpt>
      <trkpt lat="44.70508" lon="7.08583">
        <ele>2281</ele>
        <time>2022-07-15T07:09:40Z</time>
      </trkpt>
      <trkpt lat="44.70515" lon="7.0858">
        <ele>2283</ele>
        <time>2022-07-15T07:09:52Z</time>
      </trkpt>
      <trkpt lat="44.70518" lon="7.08581">
        <ele>2284</ele>
        <time>2022-07-15T07:09:58Z</time>
      </trkpt>
      <trkpt lat="44.70525" lon="7.08577">
        <ele>2287</ele>
        <time>2022-07-15T07:10:10Z</time>
      </trkpt>
      <trkpt lat="44.70528" lon="7.08574">
        <ele>2288</ele>
        <time>2022-07-15T07:10:16Z</time>
      </trkpt>
      <trkpt lat="44.7053" lon="7.0857">
        <ele>2290</ele>
        <time>2022-07-15T07:10:22Z</time>
      </trkpt>
      <trkpt lat="44.70533" lon="7.08566">
        <ele>2291</ele>
        <time>2022-07-15T07:10:28Z</time>
      </trkpt>
      <trkpt lat="44.70536" lon="7.08562">
        <ele>2292</ele>
        <time>2022-07-15T07:10:32Z</time>
      </trkpt>
      <trkpt lat="44.70546" lon="7.08554">
        <ele>2295</ele>
        <time>2022-07-15T07:10:48Z</time>
      </trkpt>
      <trkpt lat="44.70549" lon="7.0855">
        <ele>2296</ele>
        <time>2022-07-15T07:10:53Z</time>
      </trkpt>
      <trkpt lat="44.7055" lon="7.08545">
        <ele>2298</ele>
        <time>2022-07-15T07:10:58Z</time>
      </trkpt>
      <trkpt lat="44.70548" lon="7.08525">
        <ele>2300</ele>
        <time>2022-07-15T07:11:15Z</time>
      </trkpt>
      <trkpt lat="44.7055" lon="7.0852">
        <ele>2299</ele>
        <time>2022-07-15T07:11:21Z</time>
      </trkpt>
      <trkpt lat="44.70549" lon="7.08515">
        <ele>2299</ele>
        <time>2022-07-15T07:11:26Z</time>
      </trkpt>
      <trkpt lat="44.70547" lon="7.08494">
        <ele>2301</ele>
        <time>2022-07-15T07:11:50Z</time>
      </trkpt>
      <trkpt lat="44.70548" lon="7.08488">
        <ele>2301</ele>
        <time>2022-07-15T07:11:56Z</time>
      </trkpt>
      <trkpt lat="44.7055" lon="7.08483">
        <ele>2302</ele>
        <time>2022-07-15T07:12:01Z</time>
      </trkpt>
      <trkpt lat="44.70551" lon="7.08479">
        <ele>2302</ele>
        <time>2022-07-15T07:12:06Z</time>
      </trkpt>
      <trkpt lat="44.70553" lon="7.08475">
        <ele>2304</ele>
        <time>2022-07-15T07:12:11Z</time>
      </trkpt>
      <trkpt lat="44.70556" lon="7.08471">
        <ele>2304</ele>
        <time>2022-07-15T07:12:16Z</time>
      </trkpt>
      <trkpt lat="44.70561" lon="7.08458">
        <ele>2302</ele>
        <time>2022-07-15T07:12:32Z</time>
      </trkpt>
      <trkpt lat="44.70564" lon="7.08455">
        <ele>2302</ele>
        <time>2022-07-15T07:12:40Z</time>
      </trkpt>
      <trkpt lat="44.70565" lon="7.0845">
        <ele>2303</ele>
        <time>2022-07-15T07:12:44Z</time>
      </trkpt>
      <trkpt lat="44.70569" lon="7.08448">
        <ele>2303</ele>
        <time>2022-07-15T07:12:49Z</time>
      </trkpt>
      <trkpt lat="44.70572" lon="7.08445">
        <ele>2304</ele>
        <time>2022-07-15T07:12:55Z</time>
      </trkpt>
      <trkpt lat="44.70581" lon="7.08436">
        <ele>2308</ele>
        <time>2022-07-15T07:13:16Z</time>
      </trkpt>
      <trkpt lat="44.70586" lon="7.08428">
        <ele>2309</ele>
        <time>2022-07-15T07:13:28Z</time>
      </trkpt>
      <trkpt lat="44.70592" lon="7.08422">
        <ele>2311</ele>
        <time>2022-07-15T07:13:43Z</time>
      </trkpt>
      <trkpt lat="44.70595" lon="7.08413">
        <ele>2313</ele>
        <time>2022-07-15T07:13:56Z</time>
      </trkpt>
      <trkpt lat="44.70597" lon="7.08409">
        <ele>2313</ele>
        <time>2022-07-15T07:14:03Z</time>
      </trkpt>
      <trkpt lat="44.70596" lon="7.08403">
        <ele>2314</ele>
        <time>2022-07-15T07:14:09Z</time>
      </trkpt>
      <trkpt lat="44.70599" lon="7.08399">
        <ele>2315</ele>
        <time>2022-07-15T07:14:15Z</time>
      </trkpt>
      <trkpt lat="44.70605" lon="7.08402">
        <ele>2318</ele>
        <time>2022-07-15T07:14:26Z</time>
      </trkpt>
      <trkpt lat="44.70606" lon="7.08398">
        <ele>2319</ele>
        <time>2022-07-15T07:14:34Z</time>
      </trkpt>
      <trkpt lat="44.70606" lon="7.08393">
        <ele>2319</ele>
        <time>2022-07-15T07:14:39Z</time>
      </trkpt>
      <trkpt lat="44.70607" lon="7.08387">
        <ele>2320</ele>
        <time>2022-07-15T07:14:46Z</time>
      </trkpt>
      <trkpt lat="44.70611" lon="7.08384">
        <ele>2320</ele>
        <time>2022-07-15T07:14:54Z</time>
      </trkpt>
      <trkpt lat="44.70614" lon="7.08383">
        <ele>2322</ele>
        <time>2022-07-15T07:15:02Z</time>
      </trkpt>
      <trkpt lat="44.70617" lon="7.0838">
        <ele>2322</ele>
        <time>2022-07-15T07:15:08Z</time>
      </trkpt>
      <trkpt lat="44.70619" lon="7.08375">
        <ele>2323</ele>
        <time>2022-07-15T07:15:15Z</time>
      </trkpt>
      <trkpt lat="44.70622" lon="7.08372">
        <ele>2324</ele>
        <time>2022-07-15T07:15:21Z</time>
      </trkpt>
      <trkpt lat="44.70625" lon="7.08369">
        <ele>2325</ele>
        <time>2022-07-15T07:15:27Z</time>
      </trkpt>
      <trkpt lat="44.70631" lon="7.08357">
        <ele>2328</ele>
        <time>2022-07-15T07:15:50Z</time>
      </trkpt>
      <trkpt lat="44.70633" lon="7.08353">
        <ele>2331</ele>
        <time>2022-07-15T07:15:56Z</time>
      </trkpt>
      <trkpt lat="44.70645" lon="7.08337">
        <ele>2334</ele>
        <time>2022-07-15T07:16:17Z</time>
      </trkpt>
      <trkpt lat="44.70651" lon="7.08324">
        <ele>2335</ele>
        <time>2022-07-15T07:16:36Z</time>
      </trkpt>
      <trkpt lat="44.70657" lon="7.08316">
        <ele>2336</ele>
        <time>2022-07-15T07:16:48Z</time>
      </trkpt>
      <trkpt lat="44.70663" lon="7.08336">
        <ele>2343</ele>
        <time>2022-07-15T07:17:13Z</time>
      </trkpt>
      <trkpt lat="44.70667" lon="7.08336">
        <ele>2344</ele>
        <time>2022-07-15T07:17:21Z</time>
      </trkpt>
      <trkpt lat="44.70668" lon="7.08325">
        <ele>2346</ele>
        <time>2022-07-15T07:17:33Z</time>
      </trkpt>
      <trkpt lat="44.70671" lon="7.08321">
        <ele>2346</ele>
        <time>2022-07-15T07:17:38Z</time>
      </trkpt>
      <trkpt lat="44.70674" lon="7.08319">
        <ele>2346</ele>
        <time>2022-07-15T07:17:44Z</time>
      </trkpt>
      <trkpt lat="44.70678" lon="7.08319">
        <ele>2347</ele>
        <time>2022-07-15T07:17:50Z</time>
      </trkpt>
      <trkpt lat="44.70681" lon="7.0832">
        <ele>2348</ele>
        <time>2022-07-15T07:17:56Z</time>
      </trkpt>
      <trkpt lat="44.70692" lon="7.08324">
        <ele>2346</ele>
        <time>2022-07-15T07:18:12Z</time>
      </trkpt>
      <trkpt lat="44.70699" lon="7.0833">
        <ele>2348</ele>
        <time>2022-07-15T07:18:23Z</time>
      </trkpt>
      <trkpt lat="44.70703" lon="7.08331">
        <ele>2347</ele>
        <time>2022-07-15T07:18:29Z</time>
      </trkpt>
      <trkpt lat="44.70706" lon="7.08333">
        <ele>2347</ele>
        <time>2022-07-15T07:18:35Z</time>
      </trkpt>
      <trkpt lat="44.7071" lon="7.08332">
        <ele>2347</ele>
        <time>2022-07-15T07:18:39Z</time>
      </trkpt>
      <trkpt lat="44.70714" lon="7.08334">
        <ele>2349</ele>
        <time>2022-07-15T07:18:45Z</time>
      </trkpt>
      <trkpt lat="44.70718" lon="7.08331">
        <ele>2351</ele>
        <time>2022-07-15T07:18:49Z</time>
      </trkpt>
      <trkpt lat="44.70724" lon="7.08325">
        <ele>2353</ele>
        <time>2022-07-15T07:19:01Z</time>
      </trkpt>
      <trkpt lat="44.70728" lon="7.08324">
        <ele>2354</ele>
        <time>2022-07-15T07:19:07Z</time>
      </trkpt>
      <trkpt lat="44.70731" lon="7.08322">
        <ele>2355</ele>
        <time>2022-07-15T07:19:14Z</time>
      </trkpt>
      <trkpt lat="44.70735" lon="7.08319">
        <ele>2356</ele>
        <time>2022-07-15T07:19:19Z</time>
      </trkpt>
      <trkpt lat="44.70736" lon="7.08315">
        <ele>2357</ele>
        <time>2022-07-15T07:19:24Z</time>
      </trkpt>
      <trkpt lat="44.70737" lon="7.0831">
        <ele>2358</ele>
        <time>2022-07-15T07:19:30Z</time>
      </trkpt>
      <trkpt lat="44.70738" lon="7.08299">
        <ele>2358</ele>
        <time>2022-07-15T07:19:41Z</time>
      </trkpt>
      <trkpt lat="44.70737" lon="7.08294">
        <ele>2358</ele>
        <time>2022-07-15T07:19:45Z</time>
      </trkpt>
      <trkpt lat="44.7074" lon="7.08292">
        <ele>2361</ele>
        <time>2022-07-15T07:19:54Z</time>
      </trkpt>
      <trkpt lat="44.70742" lon="7.08287">
        <ele>2361</ele>
        <time>2022-07-15T07:20:00Z</time>
      </trkpt>
      <trkpt lat="44.70743" lon="7.08283">
        <ele>2362</ele>
        <time>2022-07-15T07:20:05Z</time>
      </trkpt>
      <trkpt lat="44.70741" lon="7.08258">
        <ele>2366</ele>
        <time>2022-07-15T07:20:38Z</time>
      </trkpt>
      <trkpt lat="44.70741" lon="7.08253">
        <ele>2368</ele>
        <time>2022-07-15T07:20:43Z</time>
      </trkpt>
      <trkpt lat="44.70741" lon="7.08251">
        <ele>2369</ele>
        <time>2022-07-15T07:21:00Z</time>
      </trkpt>
      <trkpt lat="44.70741" lon="7.08246">
        <ele>2370</ele>
        <time>2022-07-15T07:21:34Z</time>
      </trkpt>
      <trkpt lat="44.7074" lon="7.08241">
        <ele>2372</ele>
        <time>2022-07-15T07:21:38Z</time>
      </trkpt>
      <trkpt lat="44.70741" lon="7.08236">
        <ele>2372</ele>
        <time>2022-07-15T07:21:42Z</time>
      </trkpt>
      <trkpt lat="44.7074" lon="7.0823">
        <ele>2373</ele>
        <time>2022-07-15T07:21:47Z</time>
      </trkpt>
      <trkpt lat="44.7074" lon="7.08225">
        <ele>2374</ele>
        <time>2022-07-15T07:21:52Z</time>
      </trkpt>
      <trkpt lat="44.7074" lon="7.08209">
        <ele>2377</ele>
        <time>2022-07-15T07:22:07Z</time>
      </trkpt>
      <trkpt lat="44.70742" lon="7.08204">
        <ele>2377</ele>
        <time>2022-07-15T07:22:12Z</time>
      </trkpt>
      <trkpt lat="44.70743" lon="7.08199">
        <ele>2377</ele>
        <time>2022-07-15T07:22:17Z</time>
      </trkpt>
      <trkpt lat="44.70745" lon="7.08195">
        <ele>2378</ele>
        <time>2022-07-15T07:22:22Z</time>
      </trkpt>
      <trkpt lat="44.70747" lon="7.08191">
        <ele>2378</ele>
        <time>2022-07-15T07:22:27Z</time>
      </trkpt>
      <trkpt lat="44.70749" lon="7.08187">
        <ele>2379</ele>
        <time>2022-07-15T07:22:34Z</time>
      </trkpt>
      <trkpt lat="44.7075" lon="7.08177">
        <ele>2379</ele>
        <time>2022-07-15T07:22:45Z</time>
      </trkpt>
      <trkpt lat="44.70752" lon="7.08172">
        <ele>2379</ele>
        <time>2022-07-15T07:22:51Z</time>
      </trkpt>
      <trkpt lat="44.70753" lon="7.08167">
        <ele>2380</ele>
        <time>2022-07-15T07:22:56Z</time>
      </trkpt>
      <trkpt lat="44.70755" lon="7.08163">
        <ele>2381</ele>
        <time>2022-07-15T07:23:00Z</time>
      </trkpt>
      <trkpt lat="44.70757" lon="7.08159">
        <ele>2381</ele>
        <time>2022-07-15T07:23:05Z</time>
      </trkpt>
      <trkpt lat="44.70767" lon="7.08131">
        <ele>2383</ele>
        <time>2022-07-15T07:23:35Z</time>
      </trkpt>
      <trkpt lat="44.7077" lon="7.08121">
        <ele>2385</ele>
        <time>2022-07-15T07:23:47Z</time>
      </trkpt>
      <trkpt lat="44.70771" lon="7.08117">
        <ele>2386</ele>
        <time>2022-07-15T07:23:53Z</time>
      </trkpt>
      <trkpt lat="44.70774" lon="7.08107">
        <ele>2388</ele>
        <time>2022-07-15T07:24:04Z</time>
      </trkpt>
      <trkpt lat="44.70775" lon="7.08102">
        <ele>2389</ele>
        <time>2022-07-15T07:24:09Z</time>
      </trkpt>
      <trkpt lat="44.70776" lon="7.08097">
        <ele>2390</ele>
        <time>2022-07-15T07:24:15Z</time>
      </trkpt>
      <trkpt lat="44.70778" lon="7.08087">
        <ele>2392</ele>
        <time>2022-07-15T07:24:25Z</time>
      </trkpt>
      <trkpt lat="44.70781" lon="7.08073">
        <ele>2394</ele>
        <time>2022-07-15T07:24:41Z</time>
      </trkpt>
      <trkpt lat="44.70789" lon="7.08043">
        <ele>2394</ele>
        <time>2022-07-15T07:25:10Z</time>
      </trkpt>
      <trkpt lat="44.70794" lon="7.08024">
        <ele>2397</ele>
        <time>2022-07-15T07:25:31Z</time>
      </trkpt>
      <trkpt lat="44.70802" lon="7.08014">
        <ele>2398</ele>
        <time>2022-07-15T07:25:47Z</time>
      </trkpt>
      <trkpt lat="44.70801" lon="7.08009">
        <ele>2399</ele>
        <time>2022-07-15T07:25:53Z</time>
      </trkpt>
      <trkpt lat="44.70797" lon="7.08001">
        <ele>2402</ele>
        <time>2022-07-15T07:26:01Z</time>
      </trkpt>
      <trkpt lat="44.70795" lon="7.07997">
        <ele>2403</ele>
        <time>2022-07-15T07:26:06Z</time>
      </trkpt>
      <trkpt lat="44.70794" lon="7.07992">
        <ele>2404</ele>
        <time>2022-07-15T07:26:11Z</time>
      </trkpt>
      <trkpt lat="44.70796" lon="7.07982">
        <ele>2406</ele>
        <time>2022-07-15T07:26:22Z</time>
      </trkpt>
      <trkpt lat="44.70797" lon="7.07971">
        <ele>2409</ele>
        <time>2022-07-15T07:26:33Z</time>
      </trkpt>
      <trkpt lat="44.70795" lon="7.07961">
        <ele>2410</ele>
        <time>2022-07-15T07:26:43Z</time>
      </trkpt>
      <trkpt lat="44.70794" lon="7.07956">
        <ele>2411</ele>
        <time>2022-07-15T07:26:48Z</time>
      </trkpt>
      <trkpt lat="44.70793" lon="7.07951">
        <ele>2411</ele>
        <time>2022-07-15T07:26:53Z</time>
      </trkpt>
      <trkpt lat="44.7079" lon="7.07942">
        <ele>2413</ele>
        <time>2022-07-15T07:27:03Z</time>
      </trkpt>
      <trkpt lat="44.7079" lon="7.07937">
        <ele>2414</ele>
        <time>2022-07-15T07:27:08Z</time>
      </trkpt>
      <trkpt lat="44.70791" lon="7.07932">
        <ele>2414</ele>
        <time>2022-07-15T07:27:14Z</time>
      </trkpt>
      <trkpt lat="44.70795" lon="7.07933">
        <ele>2414</ele>
        <time>2022-07-15T07:27:19Z</time>
      </trkpt>
      <trkpt lat="44.70804" lon="7.07943">
        <ele>2419</ele>
        <time>2022-07-15T07:27:35Z</time>
      </trkpt>
      <trkpt lat="44.70807" lon="7.07944">
        <ele>2419</ele>
        <time>2022-07-15T07:27:41Z</time>
      </trkpt>
      <trkpt lat="44.70811" lon="7.07946">
        <ele>2418</ele>
        <time>2022-07-15T07:27:48Z</time>
      </trkpt>
      <trkpt lat="44.70814" lon="7.07949">
        <ele>2419</ele>
        <time>2022-07-15T07:27:54Z</time>
      </trkpt>
      <trkpt lat="44.70817" lon="7.07951">
        <ele>2420</ele>
        <time>2022-07-15T07:28:00Z</time>
      </trkpt>
      <trkpt lat="44.70821" lon="7.07954">
        <ele>2421</ele>
        <time>2022-07-15T07:28:06Z</time>
      </trkpt>
      <trkpt lat="44.70827" lon="7.0798">
        <ele>2425</ele>
        <time>2022-07-15T07:28:31Z</time>
      </trkpt>
      <trkpt lat="44.70835" lon="7.0799">
        <ele>2425</ele>
        <time>2022-07-15T07:28:45Z</time>
      </trkpt>
      <trkpt lat="44.70843" lon="7.07995">
        <ele>2426</ele>
        <time>2022-07-15T07:28:56Z</time>
      </trkpt>
      <trkpt lat="44.70846" lon="7.07997">
        <ele>2426</ele>
        <time>2022-07-15T07:29:02Z</time>
      </trkpt>
      <trkpt lat="44.70853" lon="7.08001">
        <ele>2425</ele>
        <time>2022-07-15T07:29:12Z</time>
      </trkpt>
      <trkpt lat="44.70856" lon="7.08011">
        <ele>2427</ele>
        <time>2022-07-15T07:29:21Z</time>
      </trkpt>
      <trkpt lat="44.70855" lon="7.08016">
        <ele>2427</ele>
        <time>2022-07-15T07:29:25Z</time>
      </trkpt>
      <trkpt lat="44.70855" lon="7.08021">
        <ele>2428</ele>
        <time>2022-07-15T07:29:30Z</time>
      </trkpt>
      <trkpt lat="44.70854" lon="7.08027">
        <ele>2428</ele>
        <time>2022-07-15T07:29:35Z</time>
      </trkpt>
      <trkpt lat="44.70852" lon="7.08031">
        <ele>2429</ele>
        <time>2022-07-15T07:29:39Z</time>
      </trkpt>
      <trkpt lat="44.70849" lon="7.08033">
        <ele>2430</ele>
        <time>2022-07-15T07:29:44Z</time>
      </trkpt>
      <trkpt lat="44.70846" lon="7.08036">
        <ele>2430</ele>
        <time>2022-07-15T07:29:48Z</time>
      </trkpt>
      <trkpt lat="44.70842" lon="7.08051">
        <ele>2436</ele>
        <time>2022-07-15T07:30:03Z</time>
      </trkpt>
      <trkpt lat="44.70843" lon="7.08061">
        <ele>2437</ele>
        <time>2022-07-15T07:30:13Z</time>
      </trkpt>
      <trkpt lat="44.70846" lon="7.08071">
        <ele>2439</ele>
        <time>2022-07-15T07:30:23Z</time>
      </trkpt>
      <trkpt lat="44.7085" lon="7.08073">
        <ele>2441</ele>
        <time>2022-07-15T07:30:28Z</time>
      </trkpt>
      <trkpt lat="44.70853" lon="7.08074">
        <ele>2441</ele>
        <time>2022-07-15T07:30:33Z</time>
      </trkpt>
      <trkpt lat="44.70856" lon="7.0807">
        <ele>2441</ele>
        <time>2022-07-15T07:30:40Z</time>
      </trkpt>
      <trkpt lat="44.70859" lon="7.08068">
        <ele>2440</ele>
        <time>2022-07-15T07:30:44Z</time>
      </trkpt>
      <trkpt lat="44.70863" lon="7.08067">
        <ele>2440</ele>
        <time>2022-07-15T07:30:49Z</time>
      </trkpt>
      <trkpt lat="44.7087" lon="7.0807">
        <ele>2439</ele>
        <time>2022-07-15T07:31:00Z</time>
      </trkpt>
      <trkpt lat="44.70891" lon="7.08082">
        <ele>2444</ele>
        <time>2022-07-15T07:31:31Z</time>
      </trkpt>
      <trkpt lat="44.70894" lon="7.08084">
        <ele>2444</ele>
        <time>2022-07-15T07:31:36Z</time>
      </trkpt>
      <trkpt lat="44.70905" lon="7.0809">
        <ele>2448</ele>
        <time>2022-07-15T07:31:51Z</time>
      </trkpt>
      <trkpt lat="44.70913" lon="7.08091">
        <ele>2448</ele>
        <time>2022-07-15T07:32:01Z</time>
      </trkpt>
      <trkpt lat="44.70917" lon="7.08091">
        <ele>2450</ele>
        <time>2022-07-15T07:32:07Z</time>
      </trkpt>
      <trkpt lat="44.70924" lon="7.08089">
        <ele>2451</ele>
        <time>2022-07-15T07:32:17Z</time>
      </trkpt>
      <trkpt lat="44.70928" lon="7.08089">
        <ele>2452</ele>
        <time>2022-07-15T07:32:23Z</time>
      </trkpt>
      <trkpt lat="44.70935" lon="7.08089">
        <ele>2454</ele>
        <time>2022-07-15T07:32:35Z</time>
      </trkpt>
      <trkpt lat="44.70939" lon="7.0809">
        <ele>2456</ele>
        <time>2022-07-15T07:32:41Z</time>
      </trkpt>
      <trkpt lat="44.70943" lon="7.08092">
        <ele>2456</ele>
        <time>2022-07-15T07:32:47Z</time>
      </trkpt>
      <trkpt lat="44.70946" lon="7.08095">
        <ele>2459</ele>
        <time>2022-07-15T07:32:52Z</time>
      </trkpt>
      <trkpt lat="44.70948" lon="7.0809">
        <ele>2459</ele>
        <time>2022-07-15T07:33:14Z</time>
      </trkpt>
      <trkpt lat="44.70947" lon="7.08085">
        <ele>2458</ele>
        <time>2022-07-15T07:33:18Z</time>
      </trkpt>
      <trkpt lat="44.70946" lon="7.08079">
        <ele>2458</ele>
        <time>2022-07-15T07:33:23Z</time>
      </trkpt>
      <trkpt lat="44.70943" lon="7.0807">
        <ele>2459</ele>
        <time>2022-07-15T07:33:31Z</time>
      </trkpt>
      <trkpt lat="44.70942" lon="7.08064">
        <ele>2461</ele>
        <time>2022-07-15T07:33:36Z</time>
      </trkpt>
      <trkpt lat="44.70941" lon="7.08059">
        <ele>2462</ele>
        <time>2022-07-15T07:33:40Z</time>
      </trkpt>
      <trkpt lat="44.70941" lon="7.08054">
        <ele>2463</ele>
        <time>2022-07-15T07:33:44Z</time>
      </trkpt>
      <trkpt lat="44.70942" lon="7.08033">
        <ele>2468</ele>
        <time>2022-07-15T07:34:01Z</time>
      </trkpt>
      <trkpt lat="44.70942" lon="7.08028">
        <ele>2468</ele>
        <time>2022-07-15T07:34:05Z</time>
      </trkpt>
      <trkpt lat="44.70944" lon="7.08012">
        <ele>2469</ele>
        <time>2022-07-15T07:34:17Z</time>
      </trkpt>
      <trkpt lat="44.70942" lon="7.07991">
        <ele>2471</ele>
        <time>2022-07-15T07:34:35Z</time>
      </trkpt>
      <trkpt lat="44.70941" lon="7.07986">
        <ele>2472</ele>
        <time>2022-07-15T07:34:40Z</time>
      </trkpt>
      <trkpt lat="44.70938" lon="7.07976">
        <ele>2474</ele>
        <time>2022-07-15T07:34:52Z</time>
      </trkpt>
      <trkpt lat="44.70936" lon="7.07971">
        <ele>2475</ele>
        <time>2022-07-15T07:34:58Z</time>
      </trkpt>
      <trkpt lat="44.70935" lon="7.07967">
        <ele>2476</ele>
        <time>2022-07-15T07:35:04Z</time>
      </trkpt>
      <trkpt lat="44.70933" lon="7.07962">
        <ele>2476</ele>
        <time>2022-07-15T07:35:10Z</time>
      </trkpt>
      <trkpt lat="44.70932" lon="7.07957">
        <ele>2478</ele>
        <time>2022-07-15T07:35:17Z</time>
      </trkpt>
      <trkpt lat="44.70933" lon="7.07951">
        <ele>2478</ele>
        <time>2022-07-15T07:35:23Z</time>
      </trkpt>
      <trkpt lat="44.70934" lon="7.07946">
        <ele>2479</ele>
        <time>2022-07-15T07:35:28Z</time>
      </trkpt>
      <trkpt lat="44.70933" lon="7.07941">
        <ele>2479</ele>
        <time>2022-07-15T07:35:33Z</time>
      </trkpt>
      <trkpt lat="44.70934" lon="7.07926">
        <ele>2482</ele>
        <time>2022-07-15T07:35:48Z</time>
      </trkpt>
      <trkpt lat="44.70934" lon="7.0792">
        <ele>2483</ele>
        <time>2022-07-15T07:35:54Z</time>
      </trkpt>
      <trkpt lat="44.70936" lon="7.07916">
        <ele>2485</ele>
        <time>2022-07-15T07:35:59Z</time>
      </trkpt>
      <trkpt lat="44.70938" lon="7.07911">
        <ele>2486</ele>
        <time>2022-07-15T07:36:04Z</time>
      </trkpt>
      <trkpt lat="44.70939" lon="7.07906">
        <ele>2488</ele>
        <time>2022-07-15T07:36:09Z</time>
      </trkpt>
      <trkpt lat="44.70941" lon="7.07901">
        <ele>2488</ele>
        <time>2022-07-15T07:36:14Z</time>
      </trkpt>
      <trkpt lat="44.70943" lon="7.07897">
        <ele>2489</ele>
        <time>2022-07-15T07:36:20Z</time>
      </trkpt>
      <trkpt lat="44.70946" lon="7.07892">
        <ele>2489</ele>
        <time>2022-07-15T07:36:26Z</time>
      </trkpt>
      <trkpt lat="44.70947" lon="7.07888">
        <ele>2489</ele>
        <time>2022-07-15T07:36:32Z</time>
      </trkpt>
      <trkpt lat="44.7095" lon="7.07883">
        <ele>2489</ele>
        <time>2022-07-15T07:36:38Z</time>
      </trkpt>
      <trkpt lat="44.7095" lon="7.07878">
        <ele>2490</ele>
        <time>2022-07-15T07:36:43Z</time>
      </trkpt>
      <trkpt lat="44.70948" lon="7.07874">
        <ele>2492</ele>
        <time>2022-07-15T07:36:50Z</time>
      </trkpt>
      <trkpt lat="44.70943" lon="7.0786">
        <ele>2491</ele>
        <time>2022-07-15T07:37:06Z</time>
      </trkpt>
      <trkpt lat="44.70944" lon="7.07854">
        <ele>2491</ele>
        <time>2022-07-15T07:37:11Z</time>
      </trkpt>
      <trkpt lat="44.70947" lon="7.07854">
        <ele>2490</ele>
        <time>2022-07-15T07:37:27Z</time>
      </trkpt>
      <trkpt lat="44.70956" lon="7.07851">
        <ele>2492</ele>
        <time>2022-07-15T07:37:36Z</time>
      </trkpt>
      <trkpt lat="44.70959" lon="7.07852">
        <ele>2494</ele>
        <time>2022-07-15T07:37:42Z</time>
      </trkpt>
      <trkpt lat="44.70963" lon="7.07855">
        <ele>2494</ele>
        <time>2022-07-15T07:37:48Z</time>
      </trkpt>
      <trkpt lat="44.70971" lon="7.07856">
        <ele>2496</ele>
        <time>2022-07-15T07:37:59Z</time>
      </trkpt>
      <trkpt lat="44.70974" lon="7.07854">
        <ele>2497</ele>
        <time>2022-07-15T07:38:04Z</time>
      </trkpt>
      <trkpt lat="44.70978" lon="7.07852">
        <ele>2498</ele>
        <time>2022-07-15T07:38:11Z</time>
      </trkpt>
      <trkpt lat="44.70975" lon="7.07848">
        <ele>2498</ele>
        <time>2022-07-15T07:38:15Z</time>
      </trkpt>
      <trkpt lat="44.70969" lon="7.07843">
        <ele>2499</ele>
        <time>2022-07-15T07:38:30Z</time>
      </trkpt>
      <trkpt lat="44.70968" lon="7.07838">
        <ele>2499</ele>
        <time>2022-07-15T07:38:35Z</time>
      </trkpt>
      <trkpt lat="44.70972" lon="7.07836">
        <ele>2500</ele>
        <time>2022-07-15T07:38:42Z</time>
      </trkpt>
      <trkpt lat="44.70975" lon="7.07835">
        <ele>2501</ele>
        <time>2022-07-15T07:38:47Z</time>
      </trkpt>
      <trkpt lat="44.7098" lon="7.07836">
        <ele>2502</ele>
        <time>2022-07-15T07:38:52Z</time>
      </trkpt>
      <trkpt lat="44.70983" lon="7.07838">
        <ele>2504</ele>
        <time>2022-07-15T07:38:57Z</time>
      </trkpt>
      <trkpt lat="44.70986" lon="7.07842">
        <ele>2506</ele>
        <time>2022-07-15T07:39:02Z</time>
      </trkpt>
      <trkpt lat="44.7099" lon="7.07841">
        <ele>2507</ele>
        <time>2022-07-15T07:39:07Z</time>
      </trkpt>
      <trkpt lat="44.70991" lon="7.07836">
        <ele>2507</ele>
        <time>2022-07-15T07:39:12Z</time>
      </trkpt>
      <trkpt lat="44.70992" lon="7.0783">
        <ele>2505</ele>
        <time>2022-07-15T07:39:15Z</time>
      </trkpt>
      <trkpt lat="44.70996" lon="7.07831">
        <ele>2504</ele>
        <time>2022-07-15T07:39:52Z</time>
      </trkpt>
      <trkpt lat="44.71004" lon="7.07831">
        <ele>2504</ele>
        <time>2022-07-15T07:40:01Z</time>
      </trkpt>
      <trkpt lat="44.71008" lon="7.07831">
        <ele>2505</ele>
        <time>2022-07-15T07:40:07Z</time>
      </trkpt>
      <trkpt lat="44.71011" lon="7.07829">
        <ele>2506</ele>
        <time>2022-07-15T07:40:12Z</time>
      </trkpt>
      <trkpt lat="44.7102" lon="7.07831">
        <ele>2506</ele>
        <time>2022-07-15T07:40:21Z</time>
      </trkpt>
      <trkpt lat="44.71023" lon="7.07832">
        <ele>2507</ele>
        <time>2022-07-15T07:40:25Z</time>
      </trkpt>
      <trkpt lat="44.71028" lon="7.07833">
        <ele>2507</ele>
        <time>2022-07-15T07:40:30Z</time>
      </trkpt>
      <trkpt lat="44.7103" lon="7.07836">
        <ele>2508</ele>
        <time>2022-07-15T07:40:35Z</time>
      </trkpt>
      <trkpt lat="44.71037" lon="7.0784">
        <ele>2508</ele>
        <time>2022-07-15T07:40:44Z</time>
      </trkpt>
      <trkpt lat="44.71041" lon="7.07841">
        <ele>2508</ele>
        <time>2022-07-15T07:40:48Z</time>
      </trkpt>
      <trkpt lat="44.71045" lon="7.07842">
        <ele>2509</ele>
        <time>2022-07-15T07:40:53Z</time>
      </trkpt>
      <trkpt lat="44.71049" lon="7.07845">
        <ele>2509</ele>
        <time>2022-07-15T07:40:58Z</time>
      </trkpt>
      <trkpt lat="44.71053" lon="7.07847">
        <ele>2510</ele>
        <time>2022-07-15T07:41:03Z</time>
      </trkpt>
      <trkpt lat="44.71076" lon="7.07874">
        <ele>2511</ele>
        <time>2022-07-15T07:41:34Z</time>
      </trkpt>
      <trkpt lat="44.71092" lon="7.07891">
        <ele>2511</ele>
        <time>2022-07-15T07:41:56Z</time>
      </trkpt>
      <trkpt lat="44.71095" lon="7.07894">
        <ele>2510</ele>
        <time>2022-07-15T07:42:01Z</time>
      </trkpt>
      <trkpt lat="44.71096" lon="7.07922">
        <ele>2515</ele>
        <time>2022-07-15T07:42:49Z</time>
      </trkpt>
      <trkpt lat="44.71097" lon="7.07927">
        <ele>2516</ele>
        <time>2022-07-15T07:42:55Z</time>
      </trkpt>
      <trkpt lat="44.71094" lon="7.07943">
        <ele>2522</ele>
        <time>2022-07-15T07:43:10Z</time>
      </trkpt>
      <trkpt lat="44.71094" lon="7.07954">
        <ele>2525</ele>
        <time>2022-07-15T07:43:20Z</time>
      </trkpt>
      <trkpt lat="44.71098" lon="7.07955">
        <ele>2526</ele>
        <time>2022-07-15T07:43:28Z</time>
      </trkpt>
      <trkpt lat="44.71101" lon="7.07953">
        <ele>2525</ele>
        <time>2022-07-15T07:43:33Z</time>
      </trkpt>
      <trkpt lat="44.71105" lon="7.07951">
        <ele>2525</ele>
        <time>2022-07-15T07:43:40Z</time>
      </trkpt>
      <trkpt lat="44.71109" lon="7.0795">
        <ele>2526</ele>
        <time>2022-07-15T07:43:46Z</time>
      </trkpt>
      <trkpt lat="44.71118" lon="7.07942">
        <ele>2529</ele>
        <time>2022-07-15T07:44:04Z</time>
      </trkpt>
      <trkpt lat="44.71121" lon="7.07939">
        <ele>2530</ele>
        <time>2022-07-15T07:44:10Z</time>
      </trkpt>
      <trkpt lat="44.71129" lon="7.07938">
        <ele>2532</ele>
        <time>2022-07-15T07:44:22Z</time>
      </trkpt>
      <trkpt lat="44.71137" lon="7.07937">
        <ele>2533</ele>
        <time>2022-07-15T07:44:33Z</time>
      </trkpt>
      <trkpt lat="44.71143" lon="7.07941">
        <ele>2534</ele>
        <time>2022-07-15T07:44:44Z</time>
      </trkpt>
      <trkpt lat="44.71146" lon="7.07944">
        <ele>2534</ele>
        <time>2022-07-15T07:44:50Z</time>
      </trkpt>
      <trkpt lat="44.7115" lon="7.07945">
        <ele>2534</ele>
        <time>2022-07-15T07:44:55Z</time>
      </trkpt>
      <trkpt lat="44.7116" lon="7.07954">
        <ele>2536</ele>
        <time>2022-07-15T07:45:14Z</time>
      </trkpt>
      <trkpt lat="44.71163" lon="7.07956">
        <ele>2537</ele>
        <time>2022-07-15T07:45:19Z</time>
      </trkpt>
      <trkpt lat="44.71166" lon="7.0796">
        <ele>2537</ele>
        <time>2022-07-15T07:45:24Z</time>
      </trkpt>
      <trkpt lat="44.71169" lon="7.07963">
        <ele>2538</ele>
        <time>2022-07-15T07:45:29Z</time>
      </trkpt>
      <trkpt lat="44.71176" lon="7.07966">
        <ele>2539</ele>
        <time>2022-07-15T07:45:40Z</time>
      </trkpt>
      <trkpt lat="44.71179" lon="7.0797">
        <ele>2540</ele>
        <time>2022-07-15T07:45:45Z</time>
      </trkpt>
      <trkpt lat="44.71183" lon="7.0797">
        <ele>2541</ele>
        <time>2022-07-15T07:45:50Z</time>
      </trkpt>
      <trkpt lat="44.71187" lon="7.07969">
        <ele>2541</ele>
        <time>2022-07-15T07:45:56Z</time>
      </trkpt>
      <trkpt lat="44.71191" lon="7.07967">
        <ele>2541</ele>
        <time>2022-07-15T07:46:02Z</time>
      </trkpt>
      <trkpt lat="44.71193" lon="7.07964">
        <ele>2542</ele>
        <time>2022-07-15T07:46:07Z</time>
      </trkpt>
      <trkpt lat="44.71197" lon="7.07963">
        <ele>2543</ele>
        <time>2022-07-15T07:46:13Z</time>
      </trkpt>
      <trkpt lat="44.71204" lon="7.07962">
        <ele>2543</ele>
        <time>2022-07-15T07:46:24Z</time>
      </trkpt>
      <trkpt lat="44.71208" lon="7.0796">
        <ele>2543</ele>
        <time>2022-07-15T07:46:31Z</time>
      </trkpt>
      <trkpt lat="44.71214" lon="7.07956">
        <ele>2544</ele>
        <time>2022-07-15T07:46:42Z</time>
      </trkpt>
      <trkpt lat="44.71218" lon="7.07955">
        <ele>2544</ele>
        <time>2022-07-15T07:46:47Z</time>
      </trkpt>
      <trkpt lat="44.71222" lon="7.07954">
        <ele>2547</ele>
        <time>2022-07-15T07:46:57Z</time>
      </trkpt>
      <trkpt lat="44.7124" lon="7.07959">
        <ele>2553</ele>
        <time>2022-07-15T07:47:29Z</time>
      </trkpt>
      <trkpt lat="44.71243" lon="7.07962">
        <ele>2553</ele>
        <time>2022-07-15T07:47:36Z</time>
      </trkpt>
      <trkpt lat="44.71249" lon="7.07967">
        <ele>2557</ele>
        <time>2022-07-15T07:47:52Z</time>
      </trkpt>
      <trkpt lat="44.71252" lon="7.07971">
        <ele>2559</ele>
        <time>2022-07-15T07:48:00Z</time>
      </trkpt>
      <trkpt lat="44.71255" lon="7.07975">
        <ele>2560</ele>
        <time>2022-07-15T07:48:08Z</time>
      </trkpt>
      <trkpt lat="44.71257" lon="7.07979">
        <ele>2563</ele>
        <time>2022-07-15T07:48:17Z</time>
      </trkpt>
      <trkpt lat="44.71258" lon="7.0799">
        <ele>2564</ele>
        <time>2022-07-15T07:48:47Z</time>
      </trkpt>
      <trkpt lat="44.71255" lon="7.07989">
        <ele>2564</ele>
        <time>2022-07-15T07:48:52Z</time>
      </trkpt>
      <trkpt lat="44.71254" lon="7.07984">
        <ele>2565</ele>
        <time>2022-07-15T07:49:33Z</time>
      </trkpt>
      <trkpt lat="44.71258" lon="7.07983">
        <ele>2566</ele>
        <time>2022-07-15T07:49:54Z</time>
      </trkpt>
      <trkpt lat="44.71261" lon="7.07987">
        <ele>2567</ele>
        <time>2022-07-15T07:52:31Z</time>
      </trkpt>
      <trkpt lat="44.71269" lon="7.07997">
        <ele>2567</ele>
        <time>2022-07-15T07:52:48Z</time>
      </trkpt>
      <trkpt lat="44.71277" lon="7.0801">
        <ele>2571</ele>
        <time>2022-07-15T07:53:19Z</time>
      </trkpt>
      <trkpt lat="44.71278" lon="7.08015">
        <ele>2572</ele>
        <time>2022-07-15T07:53:24Z</time>
      </trkpt>
      <trkpt lat="44.7128" lon="7.08019">
        <ele>2573</ele>
        <time>2022-07-15T07:53:29Z</time>
      </trkpt>
      <trkpt lat="44.71284" lon="7.08027">
        <ele>2574</ele>
        <time>2022-07-15T07:53:40Z</time>
      </trkpt>
      <trkpt lat="44.71287" lon="7.08031">
        <ele>2576</ele>
        <time>2022-07-15T07:53:47Z</time>
      </trkpt>
      <trkpt lat="44.71291" lon="7.08031">
        <ele>2577</ele>
        <time>2022-07-15T07:53:57Z</time>
      </trkpt>
      <trkpt lat="44.71293" lon="7.08028">
        <ele>2578</ele>
        <time>2022-07-15T07:54:03Z</time>
      </trkpt>
      <trkpt lat="44.71296" lon="7.08025">
        <ele>2579</ele>
        <time>2022-07-15T07:54:10Z</time>
      </trkpt>
      <trkpt lat="44.71299" lon="7.08023">
        <ele>2580</ele>
        <time>2022-07-15T07:54:16Z</time>
      </trkpt>
      <trkpt lat="44.71306" lon="7.08018">
        <ele>2582</ele>
        <time>2022-07-15T07:54:28Z</time>
      </trkpt>
      <trkpt lat="44.71317" lon="7.08013">
        <ele>2584</ele>
        <time>2022-07-15T07:54:46Z</time>
      </trkpt>
      <trkpt lat="44.71321" lon="7.08014">
        <ele>2585</ele>
        <time>2022-07-15T07:54:52Z</time>
      </trkpt>
      <trkpt lat="44.7132" lon="7.08019">
        <ele>2586</ele>
        <time>2022-07-15T07:54:58Z</time>
      </trkpt>
      <trkpt lat="44.71317" lon="7.08023">
        <ele>2588</ele>
        <time>2022-07-15T07:55:04Z</time>
      </trkpt>
      <trkpt lat="44.71316" lon="7.08028">
        <ele>2589</ele>
        <time>2022-07-15T07:55:11Z</time>
      </trkpt>
      <trkpt lat="44.71316" lon="7.08033">
        <ele>2590</ele>
        <time>2022-07-15T07:55:18Z</time>
      </trkpt>
      <trkpt lat="44.71318" lon="7.08043">
        <ele>2592</ele>
        <time>2022-07-15T07:55:30Z</time>
      </trkpt>
      <trkpt lat="44.71319" lon="7.08048">
        <ele>2593</ele>
        <time>2022-07-15T07:55:36Z</time>
      </trkpt>
      <trkpt lat="44.71322" lon="7.08045">
        <ele>2593</ele>
        <time>2022-07-15T07:55:48Z</time>
      </trkpt>
      <trkpt lat="44.71323" lon="7.0804">
        <ele>2593</ele>
        <time>2022-07-15T07:55:55Z</time>
      </trkpt>
      <trkpt lat="44.71325" lon="7.08036">
        <ele>2595</ele>
        <time>2022-07-15T07:56:01Z</time>
      </trkpt>
      <trkpt lat="44.71328" lon="7.08038">
        <ele>2596</ele>
        <time>2022-07-15T07:56:06Z</time>
      </trkpt>
      <trkpt lat="44.71331" lon="7.08041">
        <ele>2596</ele>
        <time>2022-07-15T07:56:11Z</time>
      </trkpt>
      <trkpt lat="44.71335" lon="7.08042">
        <ele>2596</ele>
        <time>2022-07-15T07:56:15Z</time>
      </trkpt>
      <trkpt lat="44.71338" lon="7.08046">
        <ele>2597</ele>
        <time>2022-07-15T07:56:20Z</time>
      </trkpt>
      <trkpt lat="44.7135" lon="7.08047">
        <ele>2595</ele>
        <time>2022-07-15T07:56:34Z</time>
      </trkpt>
      <trkpt lat="44.71352" lon="7.08051">
        <ele>2595</ele>
        <time>2022-07-15T07:56:38Z</time>
      </trkpt>
      <trkpt lat="44.71353" lon="7.08055">
        <ele>2599</ele>
        <time>2022-07-15T07:57:29Z</time>
      </trkpt>
      <trkpt lat="44.71357" lon="7.08054">
        <ele>2600</ele>
        <time>2022-07-15T07:57:42Z</time>
      </trkpt>
      <trkpt lat="44.7136" lon="7.08051">
        <ele>2600</ele>
        <time>2022-07-15T07:57:46Z</time>
      </trkpt>
      <trkpt lat="44.71367" lon="7.08054">
        <ele>2600</ele>
        <time>2022-07-15T07:57:57Z</time>
      </trkpt>
      <trkpt lat="44.71372" lon="7.08062">
        <ele>2603</ele>
        <time>2022-07-15T07:58:09Z</time>
      </trkpt>
      <trkpt lat="44.71375" lon="7.08065">
        <ele>2605</ele>
        <time>2022-07-15T07:58:16Z</time>
      </trkpt>
      <trkpt lat="44.71378" lon="7.08068">
        <ele>2605</ele>
        <time>2022-07-15T07:58:23Z</time>
      </trkpt>
      <trkpt lat="44.71381" lon="7.08064">
        <ele>2607</ele>
        <time>2022-07-15T07:58:30Z</time>
      </trkpt>
      <trkpt lat="44.71382" lon="7.08059">
        <ele>2608</ele>
        <time>2022-07-15T07:58:36Z</time>
      </trkpt>
      <trkpt lat="44.71389" lon="7.08041">
        <ele>2610</ele>
        <time>2022-07-15T07:58:54Z</time>
      </trkpt>
      <trkpt lat="44.71396" lon="7.08036">
        <ele>2611</ele>
        <time>2022-07-15T07:59:06Z</time>
      </trkpt>
      <trkpt lat="44.714" lon="7.08037">
        <ele>2612</ele>
        <time>2022-07-15T07:59:11Z</time>
      </trkpt>
      <trkpt lat="44.71403" lon="7.08042">
        <ele>2612</ele>
        <time>2022-07-15T07:59:16Z</time>
      </trkpt>
      <trkpt lat="44.71411" lon="7.08053">
        <ele>2611</ele>
        <time>2022-07-15T07:59:29Z</time>
      </trkpt>
      <trkpt lat="44.71422" lon="7.08066">
        <ele>2612</ele>
        <time>2022-07-15T07:59:49Z</time>
      </trkpt>
      <trkpt lat="44.71426" lon="7.08066">
        <ele>2613</ele>
        <time>2022-07-15T07:59:55Z</time>
      </trkpt>
      <trkpt lat="44.7143" lon="7.08067">
        <ele>2614</ele>
        <time>2022-07-15T08:00:01Z</time>
      </trkpt>
      <trkpt lat="44.71433" lon="7.0807">
        <ele>2615</ele>
        <time>2022-07-15T08:00:07Z</time>
      </trkpt>
      <trkpt lat="44.71433" lon="7.08081">
        <ele>2617</ele>
        <time>2022-07-15T08:00:17Z</time>
      </trkpt>
      <trkpt lat="44.7143" lon="7.08091">
        <ele>2620</ele>
        <time>2022-07-15T08:00:28Z</time>
      </trkpt>
      <trkpt lat="44.71431" lon="7.08097">
        <ele>2621</ele>
        <time>2022-07-15T08:00:33Z</time>
      </trkpt>
      <trkpt lat="44.71434" lon="7.08111">
        <ele>2624</ele>
        <time>2022-07-15T08:00:48Z</time>
      </trkpt>
      <trkpt lat="44.71438" lon="7.08111">
        <ele>2624</ele>
        <time>2022-07-15T08:00:54Z</time>
      </trkpt>
      <trkpt lat="44.71441" lon="7.0811">
        <ele>2624</ele>
        <time>2022-07-15T08:01:00Z</time>
      </trkpt>
      <trkpt lat="44.71445" lon="7.08107">
        <ele>2624</ele>
        <time>2022-07-15T08:01:07Z</time>
      </trkpt>
      <trkpt lat="44.71449" lon="7.08092">
        <ele>2626</ele>
        <time>2022-07-15T08:01:41Z</time>
      </trkpt>
      <trkpt lat="44.71452" lon="7.08089">
        <ele>2627</ele>
        <time>2022-07-15T08:01:47Z</time>
      </trkpt>
      <trkpt lat="44.71454" lon="7.08084">
        <ele>2629</ele>
        <time>2022-07-15T08:01:53Z</time>
      </trkpt>
      <trkpt lat="44.71456" lon="7.0808">
        <ele>2630</ele>
        <time>2022-07-15T08:01:59Z</time>
      </trkpt>
      <trkpt lat="44.71461" lon="7.08089">
        <ele>2634</ele>
        <time>2022-07-15T08:02:09Z</time>
      </trkpt>
      <trkpt lat="44.71461" lon="7.08094">
        <ele>2634</ele>
        <time>2022-07-15T08:02:14Z</time>
      </trkpt>
      <trkpt lat="44.71462" lon="7.08099">
        <ele>2634</ele>
        <time>2022-07-15T08:02:19Z</time>
      </trkpt>
      <trkpt lat="44.71476" lon="7.08116">
        <ele>2633</ele>
        <time>2022-07-15T08:02:40Z</time>
      </trkpt>
      <trkpt lat="44.71482" lon="7.08124">
        <ele>2633</ele>
        <time>2022-07-15T08:02:49Z</time>
      </trkpt>
      <trkpt lat="44.71487" lon="7.08132">
        <ele>2633</ele>
        <time>2022-07-15T08:02:59Z</time>
      </trkpt>
      <trkpt lat="44.71489" lon="7.08137">
        <ele>2634</ele>
        <time>2022-07-15T08:03:04Z</time>
      </trkpt>
      <trkpt lat="44.71497" lon="7.08166">
        <ele>2643</ele>
        <time>2022-07-15T08:03:34Z</time>
      </trkpt>
      <trkpt lat="44.71502" lon="7.08174">
        <ele>2643</ele>
        <time>2022-07-15T08:03:42Z</time>
      </trkpt>
      <trkpt lat="44.71504" lon="7.08178">
        <ele>2644</ele>
        <time>2022-07-15T08:03:46Z</time>
      </trkpt>
      <trkpt lat="44.71507" lon="7.08187">
        <ele>2644</ele>
        <time>2022-07-15T08:03:56Z</time>
      </trkpt>
      <trkpt lat="44.71508" lon="7.08192">
        <ele>2644</ele>
        <time>2022-07-15T08:04:01Z</time>
      </trkpt>
      <trkpt lat="44.71509" lon="7.08202">
        <ele>2646</ele>
        <time>2022-07-15T08:04:11Z</time>
      </trkpt>
      <trkpt lat="44.71511" lon="7.08208">
        <ele>2647</ele>
        <time>2022-07-15T08:04:16Z</time>
      </trkpt>
      <trkpt lat="44.71514" lon="7.08212">
        <ele>2648</ele>
        <time>2022-07-15T08:04:21Z</time>
      </trkpt>
      <trkpt lat="44.71514" lon="7.08218">
        <ele>2650</ele>
        <time>2022-07-15T08:04:27Z</time>
      </trkpt>
      <trkpt lat="44.71514" lon="7.08241">
        <ele>2656</ele>
        <time>2022-07-15T08:04:45Z</time>
      </trkpt>
      <trkpt lat="44.71514" lon="7.08246">
        <ele>2657</ele>
        <time>2022-07-15T08:04:50Z</time>
      </trkpt>
      <trkpt lat="44.71516" lon="7.0825">
        <ele>2659</ele>
        <time>2022-07-15T08:04:55Z</time>
      </trkpt>
      <trkpt lat="44.71516" lon="7.08256">
        <ele>2660</ele>
        <time>2022-07-15T08:05:01Z</time>
      </trkpt>
      <trkpt lat="44.71514" lon="7.0826">
        <ele>2661</ele>
        <time>2022-07-15T08:05:40Z</time>
      </trkpt>
      <trkpt lat="44.71512" lon="7.08264">
        <ele>2661</ele>
        <time>2022-07-15T08:05:47Z</time>
      </trkpt>
      <trkpt lat="44.71511" lon="7.08269">
        <ele>2661</ele>
        <time>2022-07-15T08:05:52Z</time>
      </trkpt>
      <trkpt lat="44.71513" lon="7.08272">
        <ele>2661</ele>
        <time>2022-07-15T08:06:04Z</time>
      </trkpt>
      <trkpt lat="44.7151" lon="7.08275">
        <ele>2661</ele>
        <time>2022-07-15T08:09:27Z</time>
      </trkpt>
      <trkpt lat="44.71512" lon="7.0828">
        <ele>2661</ele>
        <time>2022-07-15T08:09:36Z</time>
      </trkpt>
      <trkpt lat="44.71519" lon="7.08286">
        <ele>2660</ele>
        <time>2022-07-15T08:09:47Z</time>
      </trkpt>
      <trkpt lat="44.71522" lon="7.08301">
        <ele>2660</ele>
        <time>2022-07-15T08:10:04Z</time>
      </trkpt>
      <trkpt lat="44.71525" lon="7.08305">
        <ele>2661</ele>
        <time>2022-07-15T08:10:09Z</time>
      </trkpt>
      <trkpt lat="44.71526" lon="7.0831">
        <ele>2661</ele>
        <time>2022-07-15T08:10:15Z</time>
      </trkpt>
      <trkpt lat="44.71527" lon="7.08316">
        <ele>2661</ele>
        <time>2022-07-15T08:10:21Z</time>
      </trkpt>
      <trkpt lat="44.71529" lon="7.0832">
        <ele>2662</ele>
        <time>2022-07-15T08:10:27Z</time>
      </trkpt>
      <trkpt lat="44.7153" lon="7.08325">
        <ele>2663</ele>
        <time>2022-07-15T08:10:32Z</time>
      </trkpt>
      <trkpt lat="44.71531" lon="7.08331">
        <ele>2663</ele>
        <time>2022-07-15T08:10:38Z</time>
      </trkpt>
      <trkpt lat="44.71533" lon="7.08335">
        <ele>2664</ele>
        <time>2022-07-15T08:10:43Z</time>
      </trkpt>
      <trkpt lat="44.71535" lon="7.0834">
        <ele>2666</ele>
        <time>2022-07-15T08:10:50Z</time>
      </trkpt>
      <trkpt lat="44.71536" lon="7.08345">
        <ele>2668</ele>
        <time>2022-07-15T08:10:57Z</time>
      </trkpt>
      <trkpt lat="44.71535" lon="7.08355">
        <ele>2670</ele>
        <time>2022-07-15T08:11:08Z</time>
      </trkpt>
      <trkpt lat="44.71539" lon="7.08368">
        <ele>2674</ele>
        <time>2022-07-15T08:11:26Z</time>
      </trkpt>
      <trkpt lat="44.71541" lon="7.08372">
        <ele>2675</ele>
        <time>2022-07-15T08:11:32Z</time>
      </trkpt>
      <trkpt lat="44.71543" lon="7.08377">
        <ele>2676</ele>
        <time>2022-07-15T08:11:37Z</time>
      </trkpt>
      <trkpt lat="44.71545" lon="7.08381">
        <ele>2677</ele>
        <time>2022-07-15T08:11:43Z</time>
      </trkpt>
      <trkpt lat="44.71547" lon="7.08386">
        <ele>2677</ele>
        <time>2022-07-15T08:11:50Z</time>
      </trkpt>
      <trkpt lat="44.71546" lon="7.08396">
        <ele>2676</ele>
        <time>2022-07-15T08:12:00Z</time>
      </trkpt>
      <trkpt lat="44.71547" lon="7.08401">
        <ele>2678</ele>
        <time>2022-07-15T08:12:06Z</time>
      </trkpt>
      <trkpt lat="44.71548" lon="7.08406">
        <ele>2680</ele>
        <time>2022-07-15T08:12:12Z</time>
      </trkpt>
      <trkpt lat="44.71549" lon="7.08411">
        <ele>2682</ele>
        <time>2022-07-15T08:12:18Z</time>
      </trkpt>
      <trkpt lat="44.71548" lon="7.08416">
        <ele>2684</ele>
        <time>2022-07-15T08:12:24Z</time>
      </trkpt>
      <trkpt lat="44.71551" lon="7.08416">
        <ele>2685</ele>
        <time>2022-07-15T08:12:34Z</time>
      </trkpt>
      <trkpt lat="44.71555" lon="7.08419">
        <ele>2685</ele>
        <time>2022-07-15T08:12:41Z</time>
      </trkpt>
      <trkpt lat="44.71557" lon="7.08423">
        <ele>2686</ele>
        <time>2022-07-15T08:12:55Z</time>
      </trkpt>
      <trkpt lat="44.71556" lon="7.08433">
        <ele>2690</ele>
        <time>2022-07-15T08:13:10Z</time>
      </trkpt>
      <trkpt lat="44.71557" lon="7.08439">
        <ele>2691</ele>
        <time>2022-07-15T08:13:17Z</time>
      </trkpt>
      <trkpt lat="44.71559" lon="7.08437">
        <ele>2696</ele>
        <time>2022-07-15T08:15:30Z</time>
      </trkpt>
      <trkpt lat="44.71561" lon="7.08437">
        <ele>2696</ele>
        <time>2022-07-15T08:15:51Z</time>
      </trkpt>
      <trkpt lat="44.71561" lon="7.08431">
        <ele>2696</ele>
        <time>2022-07-15T08:16:34Z</time>
      </trkpt>
      <trkpt lat="44.71563" lon="7.0842">
        <ele>2698</ele>
        <time>2022-07-15T08:16:45Z</time>
      </trkpt>
      <trkpt lat="44.71572" lon="7.08411">
        <ele>2699</ele>
        <time>2022-07-15T08:17:01Z</time>
      </trkpt>
      <trkpt lat="44.71571" lon="7.08401">
        <ele>2700</ele>
        <time>2022-07-15T08:17:11Z</time>
      </trkpt>
      <trkpt lat="44.71573" lon="7.08385">
        <ele>2701</ele>
        <time>2022-07-15T08:17:27Z</time>
      </trkpt>
      <trkpt lat="44.71573" lon="7.0838">
        <ele>2701</ele>
        <time>2022-07-15T08:17:32Z</time>
      </trkpt>
      <trkpt lat="44.7157" lon="7.08377">
        <ele>2701</ele>
        <time>2022-07-15T08:17:37Z</time>
      </trkpt>
      <trkpt lat="44.71569" lon="7.08372">
        <ele>2702</ele>
        <time>2022-07-15T08:17:43Z</time>
      </trkpt>
      <trkpt lat="44.71573" lon="7.08364">
        <ele>2703</ele>
        <time>2022-07-15T08:17:54Z</time>
      </trkpt>
      <trkpt lat="44.71574" lon="7.08358">
        <ele>2703</ele>
        <time>2022-07-15T08:18:00Z</time>
      </trkpt>
      <trkpt lat="44.71575" lon="7.08354">
        <ele>2703</ele>
        <time>2022-07-15T08:18:11Z</time>
      </trkpt>
      <trkpt lat="44.7158" lon="7.08345">
        <ele>2704</ele>
        <time>2022-07-15T08:18:20Z</time>
      </trkpt>
      <trkpt lat="44.71583" lon="7.08342">
        <ele>2704</ele>
        <time>2022-07-15T08:18:25Z</time>
      </trkpt>
      <trkpt lat="44.71597" lon="7.08331">
        <ele>2702</ele>
        <time>2022-07-15T08:18:46Z</time>
      </trkpt>
      <trkpt lat="44.71594" lon="7.08336">
        <ele>2701</ele>
        <time>2022-07-15T08:19:03Z</time>
      </trkpt>
      <trkpt lat="44.71591" lon="7.08338">
        <ele>2701</ele>
        <time>2022-07-15T08:19:07Z</time>
      </trkpt>
      <trkpt lat="44.71587" lon="7.08338">
        <ele>2701</ele>
        <time>2022-07-15T08:19:43Z</time>
      </trkpt>
      <trkpt lat="44.71578" lon="7.08347">
        <ele>2699</ele>
        <time>2022-07-15T08:19:56Z</time>
      </trkpt>
      <trkpt lat="44.71578" lon="7.08353">
        <ele>2699</ele>
        <time>2022-07-15T08:20:55Z</time>
      </trkpt>
      <trkpt lat="44.7158" lon="7.08358">
        <ele>2698</ele>
        <time>2022-07-15T08:21:01Z</time>
      </trkpt>
      <trkpt lat="44.71585" lon="7.08366">
        <ele>2697</ele>
        <time>2022-07-15T08:21:12Z</time>
      </trkpt>
      <trkpt lat="44.71587" lon="7.0837">
        <ele>2696</ele>
        <time>2022-07-15T08:21:18Z</time>
      </trkpt>
      <trkpt lat="44.71591" lon="7.08372">
        <ele>2695</ele>
        <time>2022-07-15T08:21:23Z</time>
      </trkpt>
      <trkpt lat="44.71599" lon="7.08368">
        <ele>2694</ele>
        <time>2022-07-15T08:21:33Z</time>
      </trkpt>
      <trkpt lat="44.71603" lon="7.08369">
        <ele>2693</ele>
        <time>2022-07-15T08:21:39Z</time>
      </trkpt>
      <trkpt lat="44.71605" lon="7.08373">
        <ele>2692</ele>
        <time>2022-07-15T08:22:12Z</time>
      </trkpt>
      <trkpt lat="44.71613" lon="7.08374">
        <ele>2688</ele>
        <time>2022-07-15T08:22:23Z</time>
      </trkpt>
      <trkpt lat="44.71616" lon="7.08376">
        <ele>2686</ele>
        <time>2022-07-15T08:22:27Z</time>
      </trkpt>
      <trkpt lat="44.7162" lon="7.08377">
        <ele>2685</ele>
        <time>2022-07-15T08:22:31Z</time>
      </trkpt>
      <trkpt lat="44.71623" lon="7.08377">
        <ele>2683</ele>
        <time>2022-07-15T08:22:35Z</time>
      </trkpt>
      <trkpt lat="44.71627" lon="7.08377">
        <ele>2682</ele>
        <time>2022-07-15T08:22:41Z</time>
      </trkpt>
      <trkpt lat="44.71628" lon="7.08382">
        <ele>2682</ele>
        <time>2022-07-15T08:22:45Z</time>
      </trkpt>
      <trkpt lat="44.71628" lon="7.08386">
        <ele>2679</ele>
        <time>2022-07-15T08:22:48Z</time>
      </trkpt>
      <trkpt lat="44.71631" lon="7.08389">
        <ele>2678</ele>
        <time>2022-07-15T08:22:53Z</time>
      </trkpt>
      <trkpt lat="44.71638" lon="7.08394">
        <ele>2676</ele>
        <time>2022-07-15T08:22:59Z</time>
      </trkpt>
      <trkpt lat="44.71648" lon="7.08409">
        <ele>2675</ele>
        <time>2022-07-15T08:23:11Z</time>
      </trkpt>
      <trkpt lat="44.7165" lon="7.08414">
        <ele>2675</ele>
        <time>2022-07-15T08:23:14Z</time>
      </trkpt>
      <trkpt lat="44.7165" lon="7.08424">
        <ele>2675</ele>
        <time>2022-07-15T08:23:20Z</time>
      </trkpt>
      <trkpt lat="44.71651" lon="7.0843">
        <ele>2675</ele>
        <time>2022-07-15T08:23:24Z</time>
      </trkpt>
      <trkpt lat="44.71658" lon="7.08438">
        <ele>2675</ele>
        <time>2022-07-15T08:23:32Z</time>
      </trkpt>
      <trkpt lat="44.71663" lon="7.08447">
        <ele>2674</ele>
        <time>2022-07-15T08:23:40Z</time>
      </trkpt>
      <trkpt lat="44.71665" lon="7.08452">
        <ele>2674</ele>
        <time>2022-07-15T08:23:45Z</time>
      </trkpt>
      <trkpt lat="44.71667" lon="7.08457">
        <ele>2673</ele>
        <time>2022-07-15T08:23:50Z</time>
      </trkpt>
      <trkpt lat="44.71669" lon="7.08462">
        <ele>2673</ele>
        <time>2022-07-15T08:23:55Z</time>
      </trkpt>
      <trkpt lat="44.71674" lon="7.08469">
        <ele>2671</ele>
        <time>2022-07-15T08:24:03Z</time>
      </trkpt>
      <trkpt lat="44.71688" lon="7.085">
        <ele>2668</ele>
        <time>2022-07-15T08:24:31Z</time>
      </trkpt>
      <trkpt lat="44.71691" lon="7.08504">
        <ele>2669</ele>
        <time>2022-07-15T08:24:36Z</time>
      </trkpt>
      <trkpt lat="44.71697" lon="7.08519">
        <ele>2668</ele>
        <time>2022-07-15T08:24:50Z</time>
      </trkpt>
      <trkpt lat="44.71702" lon="7.08527">
        <ele>2667</ele>
        <time>2022-07-15T08:24:59Z</time>
      </trkpt>
      <trkpt lat="44.71706" lon="7.08542">
        <ele>2666</ele>
        <time>2022-07-15T08:25:14Z</time>
      </trkpt>
      <trkpt lat="44.71707" lon="7.08547">
        <ele>2665</ele>
        <time>2022-07-15T08:25:18Z</time>
      </trkpt>
      <trkpt lat="44.71708" lon="7.08553">
        <ele>2665</ele>
        <time>2022-07-15T08:25:25Z</time>
      </trkpt>
      <trkpt lat="44.71708" lon="7.08558">
        <ele>2664</ele>
        <time>2022-07-15T08:25:33Z</time>
      </trkpt>
      <trkpt lat="44.7171" lon="7.08562">
        <ele>2662</ele>
        <time>2022-07-15T08:25:38Z</time>
      </trkpt>
      <trkpt lat="44.71715" lon="7.08571">
        <ele>2661</ele>
        <time>2022-07-15T08:25:49Z</time>
      </trkpt>
      <trkpt lat="44.71717" lon="7.08575">
        <ele>2660</ele>
        <time>2022-07-15T08:25:54Z</time>
      </trkpt>
      <trkpt lat="44.71721" lon="7.08574">
        <ele>2658</ele>
        <time>2022-07-15T08:26:02Z</time>
      </trkpt>
      <trkpt lat="44.71726" lon="7.08567">
        <ele>2654</ele>
        <time>2022-07-15T08:26:12Z</time>
      </trkpt>
      <trkpt lat="44.7173" lon="7.08566">
        <ele>2653</ele>
        <time>2022-07-15T08:26:23Z</time>
      </trkpt>
      <trkpt lat="44.71737" lon="7.08573">
        <ele>2651</ele>
        <time>2022-07-15T08:26:32Z</time>
      </trkpt>
      <trkpt lat="44.71742" lon="7.08581">
        <ele>2649</ele>
        <time>2022-07-15T08:26:40Z</time>
      </trkpt>
      <trkpt lat="44.71742" lon="7.08587">
        <ele>2649</ele>
        <time>2022-07-15T08:26:44Z</time>
      </trkpt>
      <trkpt lat="44.71743" lon="7.08592">
        <ele>2649</ele>
        <time>2022-07-15T08:26:48Z</time>
      </trkpt>
      <trkpt lat="44.71747" lon="7.08591">
        <ele>2648</ele>
        <time>2022-07-15T08:27:59Z</time>
      </trkpt>
      <trkpt lat="44.7175" lon="7.08591">
        <ele>2646</ele>
        <time>2022-07-15T08:28:03Z</time>
      </trkpt>
      <trkpt lat="44.71754" lon="7.08591">
        <ele>2644</ele>
        <time>2022-07-15T08:28:09Z</time>
      </trkpt>
      <trkpt lat="44.71755" lon="7.08596">
        <ele>2643</ele>
        <time>2022-07-15T08:28:16Z</time>
      </trkpt>
      <trkpt lat="44.71755" lon="7.08602">
        <ele>2642</ele>
        <time>2022-07-15T08:28:22Z</time>
      </trkpt>
      <trkpt lat="44.71764" lon="7.08612">
        <ele>2639</ele>
        <time>2022-07-15T08:28:36Z</time>
      </trkpt>
      <trkpt lat="44.71766" lon="7.08608">
        <ele>2638</ele>
        <time>2022-07-15T08:28:43Z</time>
      </trkpt>
      <trkpt lat="44.71766" lon="7.08603">
        <ele>2637</ele>
        <time>2022-07-15T08:28:48Z</time>
      </trkpt>
      <trkpt lat="44.71768" lon="7.08597">
        <ele>2636</ele>
        <time>2022-07-15T08:28:54Z</time>
      </trkpt>
      <trkpt lat="44.71771" lon="7.086">
        <ele>2636</ele>
        <time>2022-07-15T08:28:59Z</time>
      </trkpt>
      <trkpt lat="44.71774" lon="7.08596">
        <ele>2634</ele>
        <time>2022-07-15T08:29:06Z</time>
      </trkpt>
      <trkpt lat="44.71776" lon="7.08591">
        <ele>2632</ele>
        <time>2022-07-15T08:29:12Z</time>
      </trkpt>
      <trkpt lat="44.71778" lon="7.08586">
        <ele>2631</ele>
        <time>2022-07-15T08:29:16Z</time>
      </trkpt>
      <trkpt lat="44.71783" lon="7.08577">
        <ele>2630</ele>
        <time>2022-07-15T08:29:26Z</time>
      </trkpt>
      <trkpt lat="44.71786" lon="7.08574">
        <ele>2628</ele>
        <time>2022-07-15T08:29:31Z</time>
      </trkpt>
      <trkpt lat="44.71793" lon="7.08568">
        <ele>2626</ele>
        <time>2022-07-15T08:29:40Z</time>
      </trkpt>
      <trkpt lat="44.71797" lon="7.08567">
        <ele>2626</ele>
        <time>2022-07-15T08:29:44Z</time>
      </trkpt>
      <trkpt lat="44.71825" lon="7.0857">
        <ele>2621</ele>
        <time>2022-07-15T08:30:15Z</time>
      </trkpt>
      <trkpt lat="44.71829" lon="7.08572">
        <ele>2620</ele>
        <time>2022-07-15T08:30:20Z</time>
      </trkpt>
      <trkpt lat="44.71832" lon="7.08576">
        <ele>2620</ele>
        <time>2022-07-15T08:30:24Z</time>
      </trkpt>
      <trkpt lat="44.71834" lon="7.08591">
        <ele>2619</ele>
        <time>2022-07-15T08:30:36Z</time>
      </trkpt>
      <trkpt lat="44.71835" lon="7.08597">
        <ele>2619</ele>
        <time>2022-07-15T08:30:41Z</time>
      </trkpt>
      <trkpt lat="44.71835" lon="7.08602">
        <ele>2619</ele>
        <time>2022-07-15T08:30:45Z</time>
      </trkpt>
      <trkpt lat="44.71837" lon="7.08613">
        <ele>2618</ele>
        <time>2022-07-15T08:30:53Z</time>
      </trkpt>
      <trkpt lat="44.71837" lon="7.08623">
        <ele>2618</ele>
        <time>2022-07-15T08:31:01Z</time>
      </trkpt>
      <trkpt lat="44.71839" lon="7.08628">
        <ele>2618</ele>
        <time>2022-07-15T08:31:06Z</time>
      </trkpt>
      <trkpt lat="44.71846" lon="7.08632">
        <ele>2617</ele>
        <time>2022-07-15T08:31:16Z</time>
      </trkpt>
      <trkpt lat="44.7185" lon="7.08636">
        <ele>2617</ele>
        <time>2022-07-15T08:31:21Z</time>
      </trkpt>
      <trkpt lat="44.71854" lon="7.08639">
        <ele>2616</ele>
        <time>2022-07-15T08:31:26Z</time>
      </trkpt>
      <trkpt lat="44.71861" lon="7.08638">
        <ele>2614</ele>
        <time>2022-07-15T08:31:34Z</time>
      </trkpt>
      <trkpt lat="44.71876" lon="7.08642">
        <ele>2613</ele>
        <time>2022-07-15T08:31:53Z</time>
      </trkpt>
      <trkpt lat="44.71884" lon="7.0864">
        <ele>2612</ele>
        <time>2022-07-15T08:32:01Z</time>
      </trkpt>
      <trkpt lat="44.71887" lon="7.08637">
        <ele>2612</ele>
        <time>2022-07-15T08:32:05Z</time>
      </trkpt>
      <trkpt lat="44.71895" lon="7.08633">
        <ele>2611</ele>
        <time>2022-07-15T08:32:14Z</time>
      </trkpt>
      <trkpt lat="44.7191" lon="7.08633">
        <ele>2608</ele>
        <time>2022-07-15T08:32:31Z</time>
      </trkpt>
      <trkpt lat="44.71914" lon="7.08633">
        <ele>2608</ele>
        <time>2022-07-15T08:32:36Z</time>
      </trkpt>
      <trkpt lat="44.71918" lon="7.08634">
        <ele>2607</ele>
        <time>2022-07-15T08:32:40Z</time>
      </trkpt>
      <trkpt lat="44.71922" lon="7.08634">
        <ele>2606</ele>
        <time>2022-07-15T08:32:45Z</time>
      </trkpt>
      <trkpt lat="44.71926" lon="7.08634">
        <ele>2606</ele>
        <time>2022-07-15T08:32:49Z</time>
      </trkpt>
      <trkpt lat="44.71932" lon="7.08628">
        <ele>2605</ele>
        <time>2022-07-15T08:32:58Z</time>
      </trkpt>
      <trkpt lat="44.71936" lon="7.08625">
        <ele>2605</ele>
        <time>2022-07-15T08:33:03Z</time>
      </trkpt>
      <trkpt lat="44.7194" lon="7.08624">
        <ele>2604</ele>
        <time>2022-07-15T08:33:08Z</time>
      </trkpt>
      <trkpt lat="44.71942" lon="7.0862">
        <ele>2603</ele>
        <time>2022-07-15T08:33:12Z</time>
      </trkpt>
      <trkpt lat="44.71945" lon="7.08616">
        <ele>2603</ele>
        <time>2022-07-15T08:33:18Z</time>
      </trkpt>
      <trkpt lat="44.71948" lon="7.08615">
        <ele>2603</ele>
        <time>2022-07-15T08:33:23Z</time>
      </trkpt>
      <trkpt lat="44.71952" lon="7.08615">
        <ele>2602</ele>
        <time>2022-07-15T08:33:29Z</time>
      </trkpt>
      <trkpt lat="44.71955" lon="7.08611">
        <ele>2601</ele>
        <time>2022-07-15T08:33:35Z</time>
      </trkpt>
      <trkpt lat="44.71956" lon="7.08607">
        <ele>2599</ele>
        <time>2022-07-15T08:33:40Z</time>
      </trkpt>
      <trkpt lat="44.71959" lon="7.08603">
        <ele>2599</ele>
        <time>2022-07-15T08:33:46Z</time>
      </trkpt>
      <trkpt lat="44.71961" lon="7.08599">
        <ele>2597</ele>
        <time>2022-07-15T08:33:51Z</time>
      </trkpt>
      <trkpt lat="44.71963" lon="7.08588">
        <ele>2595</ele>
        <time>2022-07-15T08:34:01Z</time>
      </trkpt>
      <trkpt lat="44.71965" lon="7.08585">
        <ele>2594</ele>
        <time>2022-07-15T08:34:06Z</time>
      </trkpt>
      <trkpt lat="44.71965" lon="7.08579">
        <ele>2593</ele>
        <time>2022-07-15T08:34:10Z</time>
      </trkpt>
      <trkpt lat="44.71964" lon="7.08574">
        <ele>2593</ele>
        <time>2022-07-15T08:34:14Z</time>
      </trkpt>
      <trkpt lat="44.71964" lon="7.08559">
        <ele>2593</ele>
        <time>2022-07-15T08:34:26Z</time>
      </trkpt>
      <trkpt lat="44.71966" lon="7.08554">
        <ele>2592</ele>
        <time>2022-07-15T08:34:30Z</time>
      </trkpt>
      <trkpt lat="44.71967" lon="7.08549">
        <ele>2593</ele>
        <time>2022-07-15T08:34:38Z</time>
      </trkpt>
      <trkpt lat="44.71963" lon="7.08541">
        <ele>2591</ele>
        <time>2022-07-15T08:34:56Z</time>
      </trkpt>
      <trkpt lat="44.71963" lon="7.08536">
        <ele>2591</ele>
        <time>2022-07-15T08:35:02Z</time>
      </trkpt>
      <trkpt lat="44.7196" lon="7.08532">
        <ele>2589</ele>
        <time>2022-07-15T08:35:15Z</time>
      </trkpt>
      <trkpt lat="44.71957" lon="7.08523">
        <ele>2587</ele>
        <time>2022-07-15T08:35:27Z</time>
      </trkpt>
      <trkpt lat="44.71955" lon="7.08508">
        <ele>2583</ele>
        <time>2022-07-15T08:35:43Z</time>
      </trkpt>
      <trkpt lat="44.71958" lon="7.08504">
        <ele>2582</ele>
        <time>2022-07-15T08:35:49Z</time>
      </trkpt>
      <trkpt lat="44.71964" lon="7.08506">
        <ele>2580</ele>
        <time>2022-07-15T08:36:03Z</time>
      </trkpt>
      <trkpt lat="44.71968" lon="7.08506">
        <ele>2580</ele>
        <time>2022-07-15T08:36:08Z</time>
      </trkpt>
      <trkpt lat="44.71972" lon="7.08507">
        <ele>2579</ele>
        <time>2022-07-15T08:36:13Z</time>
      </trkpt>
      <trkpt lat="44.71976" lon="7.08507">
        <ele>2578</ele>
        <time>2022-07-15T08:36:18Z</time>
      </trkpt>
      <trkpt lat="44.71979" lon="7.08504">
        <ele>2577</ele>
        <time>2022-07-15T08:36:24Z</time>
      </trkpt>
      <trkpt lat="44.7199" lon="7.08497">
        <ele>2573</ele>
        <time>2022-07-15T08:36:38Z</time>
      </trkpt>
      <trkpt lat="44.71998" lon="7.08485">
        <ele>2571</ele>
        <time>2022-07-15T08:36:52Z</time>
      </trkpt>
      <trkpt lat="44.72001" lon="7.08475">
        <ele>2570</ele>
        <time>2022-07-15T08:37:01Z</time>
      </trkpt>
      <trkpt lat="44.72001" lon="7.0847">
        <ele>2570</ele>
        <time>2022-07-15T08:37:06Z</time>
      </trkpt>
      <trkpt lat="44.72002" lon="7.08464">
        <ele>2569</ele>
        <time>2022-07-15T08:37:11Z</time>
      </trkpt>
      <trkpt lat="44.72003" lon="7.08459">
        <ele>2568</ele>
        <time>2022-07-15T08:37:16Z</time>
      </trkpt>
      <trkpt lat="44.72003" lon="7.08449">
        <ele>2565</ele>
        <time>2022-07-15T08:37:25Z</time>
      </trkpt>
      <trkpt lat="44.72" lon="7.08444">
        <ele>2563</ele>
        <time>2022-07-15T08:37:31Z</time>
      </trkpt>
      <trkpt lat="44.71999" lon="7.08439">
        <ele>2563</ele>
        <time>2022-07-15T08:37:36Z</time>
      </trkpt>
      <trkpt lat="44.72004" lon="7.08438">
        <ele>2563</ele>
        <time>2022-07-15T08:37:40Z</time>
      </trkpt>
      <trkpt lat="44.72005" lon="7.08437">
        <ele>2563</ele>
        <time>2022-07-15T08:38:22Z</time>
      </trkpt>
      <trkpt lat="44.72005" lon="7.08432">
        <ele>2562</ele>
        <time>2022-07-15T08:38:25Z</time>
      </trkpt>
      <trkpt lat="44.72006" lon="7.08427">
        <ele>2563</ele>
        <time>2022-07-15T08:38:27Z</time>
      </trkpt>
      <trkpt lat="44.72009" lon="7.08423">
        <ele>2563</ele>
        <time>2022-07-15T08:38:30Z</time>
      </trkpt>
      <trkpt lat="44.72014" lon="7.08416">
        <ele>2562</ele>
        <time>2022-07-15T08:38:36Z</time>
      </trkpt>
      <trkpt lat="44.72016" lon="7.08411">
        <ele>2562</ele>
        <time>2022-07-15T08:38:40Z</time>
      </trkpt>
      <trkpt lat="44.72026" lon="7.084">
        <ele>2562</ele>
        <time>2022-07-15T08:38:52Z</time>
      </trkpt>
      <trkpt lat="44.72029" lon="7.08398">
        <ele>2562</ele>
        <time>2022-07-15T08:38:56Z</time>
      </trkpt>
      <trkpt lat="44.72032" lon="7.08388">
        <ele>2560</ele>
        <time>2022-07-15T08:39:03Z</time>
      </trkpt>
      <trkpt lat="44.72033" lon="7.08383">
        <ele>2560</ele>
        <time>2022-07-15T08:39:07Z</time>
      </trkpt>
      <trkpt lat="44.72036" lon="7.08371">
        <ele>2560</ele>
        <time>2022-07-15T08:39:15Z</time>
      </trkpt>
      <trkpt lat="44.72035" lon="7.08349">
        <ele>2560</ele>
        <time>2022-07-15T08:39:32Z</time>
      </trkpt>
      <trkpt lat="44.72034" lon="7.08345">
        <ele>2561</ele>
        <time>2022-07-15T08:39:36Z</time>
      </trkpt>
      <trkpt lat="44.72033" lon="7.08339">
        <ele>2561</ele>
        <time>2022-07-15T08:39:40Z</time>
      </trkpt>
      <trkpt lat="44.72031" lon="7.08329">
        <ele>2562</ele>
        <time>2022-07-15T08:39:48Z</time>
      </trkpt>
      <trkpt lat="44.7203" lon="7.08324">
        <ele>2563</ele>
        <time>2022-07-15T08:39:52Z</time>
      </trkpt>
      <trkpt lat="44.72033" lon="7.08313">
        <ele>2562</ele>
        <time>2022-07-15T08:40:00Z</time>
      </trkpt>
      <trkpt lat="44.72035" lon="7.08309">
        <ele>2561</ele>
        <time>2022-07-15T08:40:04Z</time>
      </trkpt>
      <trkpt lat="44.72037" lon="7.08304">
        <ele>2560</ele>
        <time>2022-07-15T08:40:09Z</time>
      </trkpt>
      <trkpt lat="44.7204" lon="7.08302">
        <ele>2559</ele>
        <time>2022-07-15T08:40:13Z</time>
      </trkpt>
      <trkpt lat="44.72045" lon="7.08293">
        <ele>2557</ele>
        <time>2022-07-15T08:40:22Z</time>
      </trkpt>
      <trkpt lat="44.72046" lon="7.08277">
        <ele>2554</ele>
        <time>2022-07-15T08:40:37Z</time>
      </trkpt>
      <trkpt lat="44.72047" lon="7.08272">
        <ele>2553</ele>
        <time>2022-07-15T08:43:04Z</time>
      </trkpt>
      <trkpt lat="44.72048" lon="7.08268">
        <ele>2552</ele>
        <time>2022-07-15T08:43:09Z</time>
      </trkpt>
      <trkpt lat="44.72049" lon="7.08263">
        <ele>2551</ele>
        <time>2022-07-15T08:43:14Z</time>
      </trkpt>
      <trkpt lat="44.72055" lon="7.08247">
        <ele>2549</ele>
        <time>2022-07-15T08:43:26Z</time>
      </trkpt>
      <trkpt lat="44.72064" lon="7.08237">
        <ele>2547</ele>
        <time>2022-07-15T08:43:39Z</time>
      </trkpt>
      <trkpt lat="44.72066" lon="7.08232">
        <ele>2546</ele>
        <time>2022-07-15T08:43:43Z</time>
      </trkpt>
      <trkpt lat="44.72066" lon="7.08227">
        <ele>2545</ele>
        <time>2022-07-15T08:43:47Z</time>
      </trkpt>
      <trkpt lat="44.7208" lon="7.08198">
        <ele>2541</ele>
        <time>2022-07-15T08:44:17Z</time>
      </trkpt>
      <trkpt lat="44.72085" lon="7.08189">
        <ele>2540</ele>
        <time>2022-07-15T08:44:27Z</time>
      </trkpt>
      <trkpt lat="44.72088" lon="7.08177">
        <ele>2538</ele>
        <time>2022-07-15T08:44:37Z</time>
      </trkpt>
      <trkpt lat="44.72091" lon="7.08167">
        <ele>2538</ele>
        <time>2022-07-15T08:44:45Z</time>
      </trkpt>
      <trkpt lat="44.72093" lon="7.08163">
        <ele>2537</ele>
        <time>2022-07-15T08:44:49Z</time>
      </trkpt>
      <trkpt lat="44.72096" lon="7.0816">
        <ele>2536</ele>
        <time>2022-07-15T08:44:55Z</time>
      </trkpt>
      <trkpt lat="44.72099" lon="7.08158">
        <ele>2535</ele>
        <time>2022-07-15T08:45:00Z</time>
      </trkpt>
      <trkpt lat="44.72104" lon="7.08151">
        <ele>2534</ele>
        <time>2022-07-15T08:45:08Z</time>
      </trkpt>
      <trkpt lat="44.72108" lon="7.08148">
        <ele>2533</ele>
        <time>2022-07-15T08:45:13Z</time>
      </trkpt>
      <trkpt lat="44.72112" lon="7.08147">
        <ele>2532</ele>
        <time>2022-07-15T08:45:18Z</time>
      </trkpt>
      <trkpt lat="44.72115" lon="7.08145">
        <ele>2531</ele>
        <time>2022-07-15T08:45:22Z</time>
      </trkpt>
      <trkpt lat="44.72116" lon="7.0814">
        <ele>2529</ele>
        <time>2022-07-15T08:45:27Z</time>
      </trkpt>
      <trkpt lat="44.72115" lon="7.08135">
        <ele>2529</ele>
        <time>2022-07-15T08:45:31Z</time>
      </trkpt>
      <trkpt lat="44.72117" lon="7.0813">
        <ele>2528</ele>
        <time>2022-07-15T08:45:36Z</time>
      </trkpt>
      <trkpt lat="44.72119" lon="7.08126">
        <ele>2528</ele>
        <time>2022-07-15T08:45:41Z</time>
      </trkpt>
      <trkpt lat="44.72134" lon="7.08096">
        <ele>2529</ele>
        <time>2022-07-15T08:46:13Z</time>
      </trkpt>
      <trkpt lat="44.72135" lon="7.08091">
        <ele>2529</ele>
        <time>2022-07-15T08:46:18Z</time>
      </trkpt>
      <trkpt lat="44.72138" lon="7.08087">
        <ele>2528</ele>
        <time>2022-07-15T08:46:22Z</time>
      </trkpt>
      <trkpt lat="44.7214" lon="7.08083">
        <ele>2528</ele>
        <time>2022-07-15T08:46:26Z</time>
      </trkpt>
      <trkpt lat="44.72145" lon="7.08074">
        <ele>2527</ele>
        <time>2022-07-15T08:46:36Z</time>
      </trkpt>
      <trkpt lat="44.72148" lon="7.08065">
        <ele>2526</ele>
        <time>2022-07-15T08:46:44Z</time>
      </trkpt>
      <trkpt lat="44.72152" lon="7.08056">
        <ele>2527</ele>
        <time>2022-07-15T08:46:53Z</time>
      </trkpt>
      <trkpt lat="44.72154" lon="7.0805">
        <ele>2527</ele>
        <time>2022-07-15T08:46:58Z</time>
      </trkpt>
      <trkpt lat="44.72156" lon="7.08046">
        <ele>2528</ele>
        <time>2022-07-15T08:47:03Z</time>
      </trkpt>
      <trkpt lat="44.72159" lon="7.08042">
        <ele>2527</ele>
        <time>2022-07-15T08:47:08Z</time>
      </trkpt>
      <trkpt lat="44.7216" lon="7.08037">
        <ele>2527</ele>
        <time>2022-07-15T08:47:12Z</time>
      </trkpt>
      <trkpt lat="44.72166" lon="7.08029">
        <ele>2527</ele>
        <time>2022-07-15T08:47:22Z</time>
      </trkpt>
      <trkpt lat="44.7217" lon="7.08027">
        <ele>2527</ele>
        <time>2022-07-15T08:47:27Z</time>
      </trkpt>
      <trkpt lat="44.72175" lon="7.08021">
        <ele>2526</ele>
        <time>2022-07-15T08:47:35Z</time>
      </trkpt>
      <trkpt lat="44.72179" lon="7.08018">
        <ele>2526</ele>
        <time>2022-07-15T08:47:40Z</time>
      </trkpt>
      <trkpt lat="44.72192" lon="7.08006">
        <ele>2524</ele>
        <time>2022-07-15T08:47:57Z</time>
      </trkpt>
      <trkpt lat="44.72195" lon="7.08003">
        <ele>2524</ele>
        <time>2022-07-15T08:48:01Z</time>
      </trkpt>
      <trkpt lat="44.72202" lon="7.07997">
        <ele>2525</ele>
        <time>2022-07-15T08:48:11Z</time>
      </trkpt>
      <trkpt lat="44.72204" lon="7.07994">
        <ele>2524</ele>
        <time>2022-07-15T08:48:16Z</time>
      </trkpt>
      <trkpt lat="44.72207" lon="7.07991">
        <ele>2524</ele>
        <time>2022-07-15T08:48:21Z</time>
      </trkpt>
      <trkpt lat="44.7221" lon="7.07988">
        <ele>2524</ele>
        <time>2022-07-15T08:48:26Z</time>
      </trkpt>
      <trkpt lat="44.72213" lon="7.07985">
        <ele>2523</ele>
        <time>2022-07-15T08:48:31Z</time>
      </trkpt>
      <trkpt lat="44.72216" lon="7.07981">
        <ele>2523</ele>
        <time>2022-07-15T08:48:36Z</time>
      </trkpt>
      <trkpt lat="44.7222" lon="7.07979">
        <ele>2524</ele>
        <time>2022-07-15T08:48:41Z</time>
      </trkpt>
      <trkpt lat="44.72223" lon="7.07976">
        <ele>2524</ele>
        <time>2022-07-15T08:48:45Z</time>
      </trkpt>
      <trkpt lat="44.72229" lon="7.07969">
        <ele>2525</ele>
        <time>2022-07-15T08:48:55Z</time>
      </trkpt>
      <trkpt lat="44.72235" lon="7.07963">
        <ele>2526</ele>
        <time>2022-07-15T08:49:04Z</time>
      </trkpt>
      <trkpt lat="44.72239" lon="7.07961">
        <ele>2525</ele>
        <time>2022-07-15T08:49:09Z</time>
      </trkpt>
      <trkpt lat="44.72247" lon="7.07951">
        <ele>2523</ele>
        <time>2022-07-15T08:49:22Z</time>
      </trkpt>
      <trkpt lat="44.7225" lon="7.0795">
        <ele>2522</ele>
        <time>2022-07-15T08:49:28Z</time>
      </trkpt>
      <trkpt lat="44.72256" lon="7.07945">
        <ele>2519</ele>
        <time>2022-07-15T08:49:36Z</time>
      </trkpt>
      <trkpt lat="44.7226" lon="7.07945">
        <ele>2518</ele>
        <time>2022-07-15T08:49:43Z</time>
      </trkpt>
      <trkpt lat="44.72271" lon="7.07938">
        <ele>2517</ele>
        <time>2022-07-15T08:49:57Z</time>
      </trkpt>
      <trkpt lat="44.72279" lon="7.07938">
        <ele>2518</ele>
        <time>2022-07-15T08:50:07Z</time>
      </trkpt>
      <trkpt lat="44.72283" lon="7.07936">
        <ele>2517</ele>
        <time>2022-07-15T08:50:12Z</time>
      </trkpt>
      <trkpt lat="44.72291" lon="7.07934">
        <ele>2517</ele>
        <time>2022-07-15T08:50:20Z</time>
      </trkpt>
      <trkpt lat="44.72295" lon="7.07931">
        <ele>2518</ele>
        <time>2022-07-15T08:50:25Z</time>
      </trkpt>
      <trkpt lat="44.72301" lon="7.07923">
        <ele>2517</ele>
        <time>2022-07-15T08:50:35Z</time>
      </trkpt>
      <trkpt lat="44.72311" lon="7.07918">
        <ele>2516</ele>
        <time>2022-07-15T08:50:50Z</time>
      </trkpt>
      <trkpt lat="44.72326" lon="7.07916">
        <ele>2516</ele>
        <time>2022-07-15T08:51:07Z</time>
      </trkpt>
      <trkpt lat="44.72332" lon="7.07911">
        <ele>2517</ele>
        <time>2022-07-15T08:51:16Z</time>
      </trkpt>
      <trkpt lat="44.72336" lon="7.0791">
        <ele>2517</ele>
        <time>2022-07-15T08:51:21Z</time>
      </trkpt>
      <trkpt lat="44.72362" lon="7.07905">
        <ele>2518</ele>
        <time>2022-07-15T08:51:53Z</time>
      </trkpt>
      <trkpt lat="44.72369" lon="7.07901">
        <ele>2518</ele>
        <time>2022-07-15T08:52:03Z</time>
      </trkpt>
      <trkpt lat="44.72384" lon="7.07896">
        <ele>2520</ele>
        <time>2022-07-15T08:52:22Z</time>
      </trkpt>
      <trkpt lat="44.72387" lon="7.07894">
        <ele>2520</ele>
        <time>2022-07-15T08:52:26Z</time>
      </trkpt>
      <trkpt lat="44.72391" lon="7.07891">
        <ele>2520</ele>
        <time>2022-07-15T08:52:31Z</time>
      </trkpt>
      <trkpt lat="44.72394" lon="7.07887">
        <ele>2521</ele>
        <time>2022-07-15T08:52:36Z</time>
      </trkpt>
      <trkpt lat="44.72398" lon="7.07885">
        <ele>2521</ele>
        <time>2022-07-15T08:52:41Z</time>
      </trkpt>
      <trkpt lat="44.724" lon="7.07881">
        <ele>2522</ele>
        <time>2022-07-15T08:52:45Z</time>
      </trkpt>
      <trkpt lat="44.7241" lon="7.07873">
        <ele>2522</ele>
        <time>2022-07-15T08:52:57Z</time>
      </trkpt>
      <trkpt lat="44.72419" lon="7.07864">
        <ele>2523</ele>
        <time>2022-07-15T08:53:09Z</time>
      </trkpt>
      <trkpt lat="44.72423" lon="7.07862">
        <ele>2523</ele>
        <time>2022-07-15T08:53:13Z</time>
      </trkpt>
      <trkpt lat="44.7243" lon="7.07856">
        <ele>2524</ele>
        <time>2022-07-15T08:53:23Z</time>
      </trkpt>
      <trkpt lat="44.72433" lon="7.07854">
        <ele>2524</ele>
        <time>2022-07-15T08:53:27Z</time>
      </trkpt>
      <trkpt lat="44.72457" lon="7.07827">
        <ele>2526</ele>
        <time>2022-07-15T08:54:00Z</time>
      </trkpt>
      <trkpt lat="44.7248" lon="7.07807">
        <ele>2525</ele>
        <time>2022-07-15T08:54:31Z</time>
      </trkpt>
      <trkpt lat="44.72486" lon="7.07801">
        <ele>2523</ele>
        <time>2022-07-15T08:54:39Z</time>
      </trkpt>
      <trkpt lat="44.7249" lon="7.07798">
        <ele>2523</ele>
        <time>2022-07-15T08:54:43Z</time>
      </trkpt>
      <trkpt lat="44.72495" lon="7.07791">
        <ele>2521</ele>
        <time>2022-07-15T08:54:51Z</time>
      </trkpt>
      <trkpt lat="44.72498" lon="7.07789">
        <ele>2521</ele>
        <time>2022-07-15T08:54:55Z</time>
      </trkpt>
      <trkpt lat="44.72503" lon="7.07781">
        <ele>2519</ele>
        <time>2022-07-15T08:55:04Z</time>
      </trkpt>
      <trkpt lat="44.72506" lon="7.07777">
        <ele>2519</ele>
        <time>2022-07-15T08:55:11Z</time>
      </trkpt>
      <trkpt lat="44.72508" lon="7.07777">
        <ele>2518</ele>
        <time>2022-07-15T08:56:15Z</time>
      </trkpt>
      <trkpt lat="44.72523" lon="7.07743">
        <ele>2513</ele>
        <time>2022-07-15T08:56:45Z</time>
      </trkpt>
      <trkpt lat="44.72526" lon="7.07739">
        <ele>2513</ele>
        <time>2022-07-15T08:56:49Z</time>
      </trkpt>
      <trkpt lat="44.72529" lon="7.07736">
        <ele>2514</ele>
        <time>2022-07-15T08:56:53Z</time>
      </trkpt>
      <trkpt lat="44.72533" lon="7.07735">
        <ele>2514</ele>
        <time>2022-07-15T08:56:57Z</time>
      </trkpt>
      <trkpt lat="44.72536" lon="7.07732">
        <ele>2512</ele>
        <time>2022-07-15T08:57:02Z</time>
      </trkpt>
      <trkpt lat="44.72537" lon="7.07727">
        <ele>2512</ele>
        <time>2022-07-15T08:57:07Z</time>
      </trkpt>
      <trkpt lat="44.7254" lon="7.07718">
        <ele>2509</ele>
        <time>2022-07-15T08:57:16Z</time>
      </trkpt>
      <trkpt lat="44.72539" lon="7.07713">
        <ele>2506</ele>
        <time>2022-07-15T08:57:20Z</time>
      </trkpt>
      <trkpt lat="44.72542" lon="7.07709">
        <ele>2505</ele>
        <time>2022-07-15T08:57:27Z</time>
      </trkpt>
      <trkpt lat="44.72543" lon="7.07704">
        <ele>2503</ele>
        <time>2022-07-15T08:57:33Z</time>
      </trkpt>
      <trkpt lat="44.72546" lon="7.07701">
        <ele>2502</ele>
        <time>2022-07-15T08:57:39Z</time>
      </trkpt>
      <trkpt lat="44.7255" lon="7.07698">
        <ele>2502</ele>
        <time>2022-07-15T08:57:45Z</time>
      </trkpt>
      <trkpt lat="44.72555" lon="7.07691">
        <ele>2500</ele>
        <time>2022-07-15T08:57:56Z</time>
      </trkpt>
      <trkpt lat="44.72559" lon="7.07691">
        <ele>2500</ele>
        <time>2022-07-15T08:58:01Z</time>
      </trkpt>
      <trkpt lat="44.72563" lon="7.07691">
        <ele>2499</ele>
        <time>2022-07-15T08:58:06Z</time>
      </trkpt>
      <trkpt lat="44.72569" lon="7.07686">
        <ele>2498</ele>
        <time>2022-07-15T08:58:27Z</time>
      </trkpt>
      <trkpt lat="44.72572" lon="7.07682">
        <ele>2498</ele>
        <time>2022-07-15T08:58:33Z</time>
      </trkpt>
      <trkpt lat="44.72577" lon="7.07682">
        <ele>2497</ele>
        <time>2022-07-15T08:58:38Z</time>
      </trkpt>
      <trkpt lat="44.7258" lon="7.07681">
        <ele>2498</ele>
        <time>2022-07-15T08:58:42Z</time>
      </trkpt>
      <trkpt lat="44.72583" lon="7.07678">
        <ele>2497</ele>
        <time>2022-07-15T08:58:47Z</time>
      </trkpt>
      <trkpt lat="44.72584" lon="7.07673">
        <ele>2497</ele>
        <time>2022-07-15T08:58:51Z</time>
      </trkpt>
      <trkpt lat="44.72588" lon="7.07665">
        <ele>2495</ele>
        <time>2022-07-15T08:59:00Z</time>
      </trkpt>
      <trkpt lat="44.72592" lon="7.07662">
        <ele>2495</ele>
        <time>2022-07-15T08:59:05Z</time>
      </trkpt>
      <trkpt lat="44.72595" lon="7.0766">
        <ele>2494</ele>
        <time>2022-07-15T08:59:09Z</time>
      </trkpt>
      <trkpt lat="44.72616" lon="7.07648">
        <ele>2492</ele>
        <time>2022-07-15T08:59:36Z</time>
      </trkpt>
      <trkpt lat="44.7262" lon="7.07646">
        <ele>2492</ele>
        <time>2022-07-15T08:59:43Z</time>
      </trkpt>
      <trkpt lat="44.72622" lon="7.07641">
        <ele>2491</ele>
        <time>2022-07-15T08:59:49Z</time>
      </trkpt>
      <trkpt lat="44.72624" lon="7.07636">
        <ele>2488</ele>
        <time>2022-07-15T08:59:55Z</time>
      </trkpt>
      <trkpt lat="44.72628" lon="7.07634">
        <ele>2487</ele>
        <time>2022-07-15T09:00:01Z</time>
      </trkpt>
      <trkpt lat="44.72635" lon="7.07633">
        <ele>2486</ele>
        <time>2022-07-15T09:00:11Z</time>
      </trkpt>
      <trkpt lat="44.72638" lon="7.07631">
        <ele>2486</ele>
        <time>2022-07-15T09:00:16Z</time>
      </trkpt>
      <trkpt lat="44.72642" lon="7.07628">
        <ele>2486</ele>
        <time>2022-07-15T09:00:22Z</time>
      </trkpt>
      <trkpt lat="44.72645" lon="7.07626">
        <ele>2484</ele>
        <time>2022-07-15T09:00:26Z</time>
      </trkpt>
      <trkpt lat="44.72648" lon="7.07625">
        <ele>2485</ele>
        <time>2022-07-15T09:00:33Z</time>
      </trkpt>
      <trkpt lat="44.72652" lon="7.07624">
        <ele>2485</ele>
        <time>2022-07-15T09:00:38Z</time>
      </trkpt>
      <trkpt lat="44.7266" lon="7.07622">
        <ele>2485</ele>
        <time>2022-07-15T09:00:49Z</time>
      </trkpt>
      <trkpt lat="44.72662" lon="7.07627">
        <ele>2485</ele>
        <time>2022-07-15T09:00:54Z</time>
      </trkpt>
      <trkpt lat="44.72666" lon="7.07625">
        <ele>2483</ele>
        <time>2022-07-15T09:01:05Z</time>
      </trkpt>
      <trkpt lat="44.72672" lon="7.07619">
        <ele>2481</ele>
        <time>2022-07-15T09:01:14Z</time>
      </trkpt>
      <trkpt lat="44.72675" lon="7.07616">
        <ele>2480</ele>
        <time>2022-07-15T09:01:19Z</time>
      </trkpt>
      <trkpt lat="44.72679" lon="7.07615">
        <ele>2478</ele>
        <time>2022-07-15T09:01:25Z</time>
      </trkpt>
      <trkpt lat="44.72682" lon="7.07617">
        <ele>2477</ele>
        <time>2022-07-15T09:01:30Z</time>
      </trkpt>
      <trkpt lat="44.72685" lon="7.0762">
        <ele>2476</ele>
        <time>2022-07-15T09:01:36Z</time>
      </trkpt>
      <trkpt lat="44.72688" lon="7.07617">
        <ele>2475</ele>
        <time>2022-07-15T09:01:41Z</time>
      </trkpt>
      <trkpt lat="44.72692" lon="7.07618">
        <ele>2474</ele>
        <time>2022-07-15T09:01:46Z</time>
      </trkpt>
      <trkpt lat="44.72696" lon="7.07615">
        <ele>2474</ele>
        <time>2022-07-15T09:01:53Z</time>
      </trkpt>
      <trkpt lat="44.727" lon="7.07613">
        <ele>2472</ele>
        <time>2022-07-15T09:01:59Z</time>
      </trkpt>
      <trkpt lat="44.72706" lon="7.07608">
        <ele>2470</ele>
        <time>2022-07-15T09:02:10Z</time>
      </trkpt>
      <trkpt lat="44.7271" lon="7.07606">
        <ele>2469</ele>
        <time>2022-07-15T09:02:15Z</time>
      </trkpt>
      <trkpt lat="44.72716" lon="7.07601">
        <ele>2468</ele>
        <time>2022-07-15T09:02:24Z</time>
      </trkpt>
      <trkpt lat="44.7272" lon="7.076">
        <ele>2468</ele>
        <time>2022-07-15T09:02:29Z</time>
      </trkpt>
      <trkpt lat="44.72725" lon="7.07601">
        <ele>2468</ele>
        <time>2022-07-15T09:02:35Z</time>
      </trkpt>
      <trkpt lat="44.72729" lon="7.07599">
        <ele>2468</ele>
        <time>2022-07-15T09:02:39Z</time>
      </trkpt>
      <trkpt lat="44.72733" lon="7.07591">
        <ele>2468</ele>
        <time>2022-07-15T09:02:48Z</time>
      </trkpt>
      <trkpt lat="44.72736" lon="7.07587">
        <ele>2467</ele>
        <time>2022-07-15T09:02:53Z</time>
      </trkpt>
      <trkpt lat="44.72743" lon="7.07574">
        <ele>2463</ele>
        <time>2022-07-15T09:03:10Z</time>
      </trkpt>
      <trkpt lat="44.7275" lon="7.07569">
        <ele>2462</ele>
        <time>2022-07-15T09:03:21Z</time>
      </trkpt>
      <trkpt lat="44.7276" lon="7.07562">
        <ele>2460</ele>
        <time>2022-07-15T09:03:39Z</time>
      </trkpt>
      <trkpt lat="44.72763" lon="7.07559">
        <ele>2459</ele>
        <time>2022-07-15T09:03:45Z</time>
      </trkpt>
      <trkpt lat="44.72767" lon="7.07557">
        <ele>2458</ele>
        <time>2022-07-15T09:03:51Z</time>
      </trkpt>
      <trkpt lat="44.72775" lon="7.07547">
        <ele>2454</ele>
        <time>2022-07-15T09:04:06Z</time>
      </trkpt>
      <trkpt lat="44.72785" lon="7.07537">
        <ele>2452</ele>
        <time>2022-07-15T09:04:22Z</time>
      </trkpt>
      <trkpt lat="44.72793" lon="7.07526">
        <ele>2450</ele>
        <time>2022-07-15T09:04:35Z</time>
      </trkpt>
      <trkpt lat="44.72796" lon="7.07515">
        <ele>2448</ele>
        <time>2022-07-15T09:04:45Z</time>
      </trkpt>
      <trkpt lat="44.72799" lon="7.07512">
        <ele>2447</ele>
        <time>2022-07-15T09:04:49Z</time>
      </trkpt>
      <trkpt lat="44.72802" lon="7.0751">
        <ele>2447</ele>
        <time>2022-07-15T09:04:53Z</time>
      </trkpt>
      <trkpt lat="44.72806" lon="7.07508">
        <ele>2447</ele>
        <time>2022-07-15T09:04:57Z</time>
      </trkpt>
      <trkpt lat="44.72809" lon="7.07507">
        <ele>2446</ele>
        <time>2022-07-15T09:05:02Z</time>
      </trkpt>
      <trkpt lat="44.72813" lon="7.07504">
        <ele>2446</ele>
        <time>2022-07-15T09:05:15Z</time>
      </trkpt>
      <trkpt lat="44.72817" lon="7.07504">
        <ele>2444</ele>
        <time>2022-07-15T09:05:20Z</time>
      </trkpt>
      <trkpt lat="44.7282" lon="7.07503">
        <ele>2444</ele>
        <time>2022-07-15T09:05:24Z</time>
      </trkpt>
      <trkpt lat="44.72831" lon="7.075">
        <ele>2441</ele>
        <time>2022-07-15T09:05:37Z</time>
      </trkpt>
      <trkpt lat="44.72838" lon="7.07497">
        <ele>2438</ele>
        <time>2022-07-15T09:05:47Z</time>
      </trkpt>
      <trkpt lat="44.72842" lon="7.07496">
        <ele>2438</ele>
        <time>2022-07-15T09:05:52Z</time>
      </trkpt>
      <trkpt lat="44.72853" lon="7.0749">
        <ele>2435</ele>
        <time>2022-07-15T09:06:08Z</time>
      </trkpt>
      <trkpt lat="44.72857" lon="7.07493">
        <ele>2433</ele>
        <time>2022-07-15T09:06:13Z</time>
      </trkpt>
      <trkpt lat="44.7286" lon="7.07497">
        <ele>2432</ele>
        <time>2022-07-15T09:06:17Z</time>
      </trkpt>
      <trkpt lat="44.72862" lon="7.075">
        <ele>2431</ele>
        <time>2022-07-15T09:06:22Z</time>
      </trkpt>
      <trkpt lat="44.72866" lon="7.075">
        <ele>2431</ele>
        <time>2022-07-15T09:06:27Z</time>
      </trkpt>
      <trkpt lat="44.72873" lon="7.07496">
        <ele>2430</ele>
        <time>2022-07-15T09:06:36Z</time>
      </trkpt>
      <trkpt lat="44.72884" lon="7.07491">
        <ele>2428</ele>
        <time>2022-07-15T09:06:50Z</time>
      </trkpt>
      <trkpt lat="44.72886" lon="7.07488">
        <ele>2427</ele>
        <time>2022-07-15T09:06:57Z</time>
      </trkpt>
      <trkpt lat="44.7289" lon="7.0749">
        <ele>2426</ele>
        <time>2022-07-15T09:07:04Z</time>
      </trkpt>
      <trkpt lat="44.72893" lon="7.07487">
        <ele>2425</ele>
        <time>2022-07-15T09:07:13Z</time>
      </trkpt>
      <trkpt lat="44.72895" lon="7.07484">
        <ele>2423</ele>
        <time>2022-07-15T09:07:23Z</time>
      </trkpt>
      <trkpt lat="44.72898" lon="7.07487">
        <ele>2422</ele>
        <time>2022-07-15T09:07:29Z</time>
      </trkpt>
      <trkpt lat="44.729" lon="7.07492">
        <ele>2421</ele>
        <time>2022-07-15T09:07:34Z</time>
      </trkpt>
      <trkpt lat="44.72902" lon="7.07489">
        <ele>2420</ele>
        <time>2022-07-15T09:07:44Z</time>
      </trkpt>
      <trkpt lat="44.72903" lon="7.07484">
        <ele>2420</ele>
        <time>2022-07-15T09:07:50Z</time>
      </trkpt>
      <trkpt lat="44.72906" lon="7.07481">
        <ele>2417</ele>
        <time>2022-07-15T09:07:57Z</time>
      </trkpt>
      <trkpt lat="44.7291" lon="7.0748">
        <ele>2415</ele>
        <time>2022-07-15T09:08:05Z</time>
      </trkpt>
      <trkpt lat="44.72913" lon="7.07478">
        <ele>2415</ele>
        <time>2022-07-15T09:08:11Z</time>
      </trkpt>
      <trkpt lat="44.72914" lon="7.07473">
        <ele>2414</ele>
        <time>2022-07-15T09:08:20Z</time>
      </trkpt>
      <trkpt lat="44.72917" lon="7.07476">
        <ele>2412</ele>
        <time>2022-07-15T09:08:26Z</time>
      </trkpt>
      <trkpt lat="44.72921" lon="7.07477">
        <ele>2411</ele>
        <time>2022-07-15T09:08:31Z</time>
      </trkpt>
      <trkpt lat="44.72928" lon="7.07475">
        <ele>2409</ele>
        <time>2022-07-15T09:08:42Z</time>
      </trkpt>
      <trkpt lat="44.72932" lon="7.07472">
        <ele>2408</ele>
        <time>2022-07-15T09:08:48Z</time>
      </trkpt>
      <trkpt lat="44.72935" lon="7.07474">
        <ele>2407</ele>
        <time>2022-07-15T09:08:52Z</time>
      </trkpt>
      <trkpt lat="44.72939" lon="7.07473">
        <ele>2406</ele>
        <time>2022-07-15T09:08:57Z</time>
      </trkpt>
      <trkpt lat="44.72942" lon="7.0747">
        <ele>2405</ele>
        <time>2022-07-15T09:09:03Z</time>
      </trkpt>
      <trkpt lat="44.72945" lon="7.07467">
        <ele>2405</ele>
        <time>2022-07-15T09:09:11Z</time>
      </trkpt>
      <trkpt lat="44.72948" lon="7.07466">
        <ele>2405</ele>
        <time>2022-07-15T09:09:15Z</time>
      </trkpt>
      <trkpt lat="44.72954" lon="7.07468">
        <ele>2405</ele>
        <time>2022-07-15T09:09:23Z</time>
      </trkpt>
      <trkpt lat="44.72957" lon="7.07465">
        <ele>2405</ele>
        <time>2022-07-15T09:09:51Z</time>
      </trkpt>
      <trkpt lat="44.72954" lon="7.07462">
        <ele>2405</ele>
        <time>2022-07-15T09:10:07Z</time>
      </trkpt>
      <trkpt lat="44.72953" lon="7.07457">
        <ele>2405</ele>
        <time>2022-07-15T09:10:13Z</time>
      </trkpt>
      <trkpt lat="44.72939" lon="7.07434">
        <ele>2409</ele>
        <time>2022-07-15T09:10:48Z</time>
      </trkpt>
      <trkpt lat="44.72938" lon="7.07429">
        <ele>2409</ele>
        <time>2022-07-15T09:10:55Z</time>
      </trkpt>
      <trkpt lat="44.72938" lon="7.07424">
        <ele>2411</ele>
        <time>2022-07-15T09:11:02Z</time>
      </trkpt>
      <trkpt lat="44.72937" lon="7.07414">
        <ele>2413</ele>
        <time>2022-07-15T09:11:17Z</time>
      </trkpt>
      <trkpt lat="44.72939" lon="7.0741">
        <ele>2415</ele>
        <time>2022-07-15T09:11:27Z</time>
      </trkpt>
      <trkpt lat="44.72939" lon="7.07405">
        <ele>2417</ele>
        <time>2022-07-15T09:11:37Z</time>
      </trkpt>
      <trkpt lat="44.72938" lon="7.0739">
        <ele>2419</ele>
        <time>2022-07-15T09:11:56Z</time>
      </trkpt>
      <trkpt lat="44.72937" lon="7.0738">
        <ele>2421</ele>
        <time>2022-07-15T09:12:07Z</time>
      </trkpt>
      <trkpt lat="44.72937" lon="7.07376">
        <ele>2422</ele>
        <time>2022-07-15T09:12:14Z</time>
      </trkpt>
      <trkpt lat="44.72936" lon="7.07371">
        <ele>2423</ele>
        <time>2022-07-15T09:12:20Z</time>
      </trkpt>
      <trkpt lat="44.72938" lon="7.07361">
        <ele>2425</ele>
        <time>2022-07-15T09:12:36Z</time>
      </trkpt>
      <trkpt lat="44.72937" lon="7.07356">
        <ele>2426</ele>
        <time>2022-07-15T09:12:44Z</time>
      </trkpt>
      <trkpt lat="44.72939" lon="7.07352">
        <ele>2428</ele>
        <time>2022-07-15T09:12:52Z</time>
      </trkpt>
      <trkpt lat="44.72948" lon="7.07342">
        <ele>2434</ele>
        <time>2022-07-15T09:13:17Z</time>
      </trkpt>
      <trkpt lat="44.72953" lon="7.07335">
        <ele>2437</ele>
        <time>2022-07-15T09:13:34Z</time>
      </trkpt>
      <trkpt lat="44.72954" lon="7.07331">
        <ele>2438</ele>
        <time>2022-07-15T09:13:43Z</time>
      </trkpt>
      <trkpt lat="44.72958" lon="7.07328">
        <ele>2439</ele>
        <time>2022-07-15T09:13:48Z</time>
      </trkpt>
      <trkpt lat="44.72965" lon="7.07317">
        <ele>2440</ele>
        <time>2022-07-15T09:14:03Z</time>
      </trkpt>
      <trkpt lat="44.72967" lon="7.07312">
        <ele>2441</ele>
        <time>2022-07-15T09:14:10Z</time>
      </trkpt>
      <trkpt lat="44.72968" lon="7.07308">
        <ele>2441</ele>
        <time>2022-07-15T09:14:16Z</time>
      </trkpt>
      <trkpt lat="44.72965" lon="7.07305">
        <ele>2442</ele>
        <time>2022-07-15T09:14:28Z</time>
      </trkpt>
      <trkpt lat="44.72965" lon="7.073">
        <ele>2443</ele>
        <time>2022-07-15T09:14:33Z</time>
      </trkpt>
      <trkpt lat="44.72966" lon="7.07295">
        <ele>2443</ele>
        <time>2022-07-15T09:14:39Z</time>
      </trkpt>
      <trkpt lat="44.72966" lon="7.0729">
        <ele>2445</ele>
        <time>2022-07-15T09:14:47Z</time>
      </trkpt>
      <trkpt lat="44.72966" lon="7.07285">
        <ele>2445</ele>
        <time>2022-07-15T09:14:54Z</time>
      </trkpt>
      <trkpt lat="44.72964" lon="7.07281">
        <ele>2447</ele>
        <time>2022-07-15T09:15:01Z</time>
      </trkpt>
      <trkpt lat="44.7296" lon="7.07278">
        <ele>2448</ele>
        <time>2022-07-15T09:15:07Z</time>
      </trkpt>
      <trkpt lat="44.72958" lon="7.07269">
        <ele>2449</ele>
        <time>2022-07-15T09:15:16Z</time>
      </trkpt>
      <trkpt lat="44.72957" lon="7.07253">
        <ele>2447</ele>
        <time>2022-07-15T09:15:32Z</time>
      </trkpt>
      <trkpt lat="44.72959" lon="7.07247">
        <ele>2446</ele>
        <time>2022-07-15T09:15:36Z</time>
      </trkpt>
      <trkpt lat="44.7296" lon="7.07242">
        <ele>2445</ele>
        <time>2022-07-15T09:15:41Z</time>
      </trkpt>
      <trkpt lat="44.72958" lon="7.07237">
        <ele>2444</ele>
        <time>2022-07-15T09:15:54Z</time>
      </trkpt>
      <trkpt lat="44.72958" lon="7.07231">
        <ele>2443</ele>
        <time>2022-07-15T09:15:58Z</time>
      </trkpt>
      <trkpt lat="44.72959" lon="7.07226">
        <ele>2442</ele>
        <time>2022-07-15T09:16:03Z</time>
      </trkpt>
      <trkpt lat="44.72958" lon="7.07221">
        <ele>2442</ele>
        <time>2022-07-15T09:16:30Z</time>
      </trkpt>
      <trkpt lat="44.72957" lon="7.0721">
        <ele>2442</ele>
        <time>2022-07-15T09:16:37Z</time>
      </trkpt>
      <trkpt lat="44.72956" lon="7.07205">
        <ele>2442</ele>
        <time>2022-07-15T09:16:42Z</time>
      </trkpt>
      <trkpt lat="44.72958" lon="7.07194">
        <ele>2442</ele>
        <time>2022-07-15T09:16:51Z</time>
      </trkpt>
      <trkpt lat="44.72958" lon="7.07189">
        <ele>2443</ele>
        <time>2022-07-15T09:16:55Z</time>
      </trkpt>
      <trkpt lat="44.7296" lon="7.07184">
        <ele>2445</ele>
        <time>2022-07-15T09:17:01Z</time>
      </trkpt>
      <trkpt lat="44.72962" lon="7.07178">
        <ele>2447</ele>
        <time>2022-07-15T09:17:06Z</time>
      </trkpt>
      <trkpt lat="44.72961" lon="7.07173">
        <ele>2448</ele>
        <time>2022-07-15T09:17:11Z</time>
      </trkpt>
      <trkpt lat="44.7296" lon="7.07168">
        <ele>2448</ele>
        <time>2022-07-15T09:17:15Z</time>
      </trkpt>
      <trkpt lat="44.72959" lon="7.07163">
        <ele>2449</ele>
        <time>2022-07-15T09:17:20Z</time>
      </trkpt>
      <trkpt lat="44.72953" lon="7.07154">
        <ele>2449</ele>
        <time>2022-07-15T09:17:29Z</time>
      </trkpt>
      <trkpt lat="44.72952" lon="7.0715">
        <ele>2450</ele>
        <time>2022-07-15T09:17:34Z</time>
      </trkpt>
      <trkpt lat="44.7295" lon="7.07146">
        <ele>2451</ele>
        <time>2022-07-15T09:17:41Z</time>
      </trkpt>
      <trkpt lat="44.72948" lon="7.07142">
        <ele>2453</ele>
        <time>2022-07-15T09:17:46Z</time>
      </trkpt>
      <trkpt lat="44.72953" lon="7.07133">
        <ele>2453</ele>
        <time>2022-07-15T09:17:56Z</time>
      </trkpt>
      <trkpt lat="44.72954" lon="7.07128">
        <ele>2453</ele>
        <time>2022-07-15T09:18:01Z</time>
      </trkpt>
      <trkpt lat="44.72952" lon="7.07124">
        <ele>2454</ele>
        <time>2022-07-15T09:18:06Z</time>
      </trkpt>
      <trkpt lat="44.72949" lon="7.07121">
        <ele>2455</ele>
        <time>2022-07-15T09:18:11Z</time>
      </trkpt>
      <trkpt lat="44.72952" lon="7.07118">
        <ele>2455</ele>
        <time>2022-07-15T09:18:16Z</time>
      </trkpt>
      <trkpt lat="44.72955" lon="7.07115">
        <ele>2456</ele>
        <time>2022-07-15T09:18:21Z</time>
      </trkpt>
      <trkpt lat="44.72953" lon="7.07111">
        <ele>2456</ele>
        <time>2022-07-15T09:18:27Z</time>
      </trkpt>
      <trkpt lat="44.7295" lon="7.0711">
        <ele>2456</ele>
        <time>2022-07-15T09:18:33Z</time>
      </trkpt>
      <trkpt lat="44.72946" lon="7.07111">
        <ele>2457</ele>
        <time>2022-07-15T09:18:40Z</time>
      </trkpt>
      <trkpt lat="44.72943" lon="7.07107">
        <ele>2457</ele>
        <time>2022-07-15T09:18:46Z</time>
      </trkpt>
      <trkpt lat="44.72946" lon="7.07104">
        <ele>2458</ele>
        <time>2022-07-15T09:18:52Z</time>
      </trkpt>
      <trkpt lat="44.72947" lon="7.07099">
        <ele>2459</ele>
        <time>2022-07-15T09:18:59Z</time>
      </trkpt>
      <trkpt lat="44.72952" lon="7.07091">
        <ele>2461</ele>
        <time>2022-07-15T09:19:09Z</time>
      </trkpt>
      <trkpt lat="44.72956" lon="7.0709">
        <ele>2461</ele>
        <time>2022-07-15T09:19:14Z</time>
      </trkpt>
      <trkpt lat="44.72956" lon="7.07086">
        <ele>2463</ele>
        <time>2022-07-15T09:19:31Z</time>
      </trkpt>
      <trkpt lat="44.72952" lon="7.07084">
        <ele>2464</ele>
        <time>2022-07-15T09:20:59Z</time>
      </trkpt>
      <trkpt lat="44.72949" lon="7.07081">
        <ele>2463</ele>
        <time>2022-07-15T09:21:05Z</time>
      </trkpt>
      <trkpt lat="44.72946" lon="7.07077">
        <ele>2464</ele>
        <time>2022-07-15T09:21:10Z</time>
      </trkpt>
      <trkpt lat="44.72944" lon="7.07075">
        <ele>2465</ele>
        <time>2022-07-15T09:21:15Z</time>
      </trkpt>
      <trkpt lat="44.72943" lon="7.0707">
        <ele>2466</ele>
        <time>2022-07-15T09:21:22Z</time>
      </trkpt>
      <trkpt lat="44.72945" lon="7.07065">
        <ele>2467</ele>
        <time>2022-07-15T09:21:28Z</time>
      </trkpt>
      <trkpt lat="44.72941" lon="7.07062">
        <ele>2468</ele>
        <time>2022-07-15T09:21:36Z</time>
      </trkpt>
      <trkpt lat="44.72938" lon="7.0706">
        <ele>2469</ele>
        <time>2022-07-15T09:21:41Z</time>
      </trkpt>
      <trkpt lat="44.72936" lon="7.07056">
        <ele>2470</ele>
        <time>2022-07-15T09:21:47Z</time>
      </trkpt>
      <trkpt lat="44.72934" lon="7.07046">
        <ele>2472</ele>
        <time>2022-07-15T09:21:59Z</time>
      </trkpt>
      <trkpt lat="44.72937" lon="7.07041">
        <ele>2474</ele>
        <time>2022-07-15T09:22:05Z</time>
      </trkpt>
      <trkpt lat="44.72936" lon="7.07036">
        <ele>2475</ele>
        <time>2022-07-15T09:22:15Z</time>
      </trkpt>
      <trkpt lat="44.72932" lon="7.07034">
        <ele>2477</ele>
        <time>2022-07-15T09:22:22Z</time>
      </trkpt>
      <trkpt lat="44.72929" lon="7.07031">
        <ele>2478</ele>
        <time>2022-07-15T09:22:31Z</time>
      </trkpt>
      <trkpt lat="44.72927" lon="7.07028">
        <ele>2480</ele>
        <time>2022-07-15T09:22:37Z</time>
      </trkpt>
      <trkpt lat="44.72925" lon="7.07023">
        <ele>2482</ele>
        <time>2022-07-15T09:22:44Z</time>
      </trkpt>
      <trkpt lat="44.72925" lon="7.07018">
        <ele>2482</ele>
        <time>2022-07-15T09:22:51Z</time>
      </trkpt>
      <trkpt lat="44.72927" lon="7.07014">
        <ele>2483</ele>
        <time>2022-07-15T09:22:57Z</time>
      </trkpt>
      <trkpt lat="44.72924" lon="7.07011">
        <ele>2483</ele>
        <time>2022-07-15T09:23:04Z</time>
      </trkpt>
      <trkpt lat="44.72921" lon="7.07009">
        <ele>2485</ele>
        <time>2022-07-15T09:23:11Z</time>
      </trkpt>
      <trkpt lat="44.72919" lon="7.07005">
        <ele>2486</ele>
        <time>2022-07-15T09:23:17Z</time>
      </trkpt>
      <trkpt lat="44.72916" lon="7.07001">
        <ele>2487</ele>
        <time>2022-07-15T09:23:23Z</time>
      </trkpt>
      <trkpt lat="44.72912" lon="7.07">
        <ele>2488</ele>
        <time>2022-07-15T09:23:29Z</time>
      </trkpt>
      <trkpt lat="44.72909" lon="7.06998">
        <ele>2489</ele>
        <time>2022-07-15T09:23:35Z</time>
      </trkpt>
      <trkpt lat="44.72906" lon="7.06994">
        <ele>2490</ele>
        <time>2022-07-15T09:23:41Z</time>
      </trkpt>
      <trkpt lat="44.72905" lon="7.0699">
        <ele>2491</ele>
        <time>2022-07-15T09:23:47Z</time>
      </trkpt>
      <trkpt lat="44.72908" lon="7.06986">
        <ele>2491</ele>
        <time>2022-07-15T09:23:52Z</time>
      </trkpt>
      <trkpt lat="44.72905" lon="7.06982">
        <ele>2491</ele>
        <time>2022-07-15T09:23:59Z</time>
      </trkpt>
      <trkpt lat="44.72907" lon="7.06977">
        <ele>2491</ele>
        <time>2022-07-15T09:24:05Z</time>
      </trkpt>
      <trkpt lat="44.7291" lon="7.06974">
        <ele>2492</ele>
        <time>2022-07-15T09:24:10Z</time>
      </trkpt>
      <trkpt lat="44.72917" lon="7.06974">
        <ele>2493</ele>
        <time>2022-07-15T09:24:21Z</time>
      </trkpt>
      <trkpt lat="44.72916" lon="7.06969">
        <ele>2495</ele>
        <time>2022-07-15T09:24:29Z</time>
      </trkpt>
      <trkpt lat="44.72919" lon="7.06966">
        <ele>2496</ele>
        <time>2022-07-15T09:24:41Z</time>
      </trkpt>
      <trkpt lat="44.72917" lon="7.06962">
        <ele>2496</ele>
        <time>2022-07-15T09:24:52Z</time>
      </trkpt>
      <trkpt lat="44.7292" lon="7.06959">
        <ele>2497</ele>
        <time>2022-07-15T09:25:02Z</time>
      </trkpt>
      <trkpt lat="44.72919" lon="7.06954">
        <ele>2500</ele>
        <time>2022-07-15T09:25:16Z</time>
      </trkpt>
      <trkpt lat="44.72921" lon="7.06949">
        <ele>2502</ele>
        <time>2022-07-15T09:25:31Z</time>
      </trkpt>
      <trkpt lat="44.72924" lon="7.06946">
        <ele>2502</ele>
        <time>2022-07-15T09:25:38Z</time>
      </trkpt>
      <trkpt lat="44.72926" lon="7.06942">
        <ele>2504</ele>
        <time>2022-07-15T09:25:46Z</time>
      </trkpt>
      <trkpt lat="44.72929" lon="7.06939">
        <ele>2504</ele>
        <time>2022-07-15T09:25:55Z</time>
      </trkpt>
      <trkpt lat="44.72926" lon="7.06935">
        <ele>2506</ele>
        <time>2022-07-15T09:26:03Z</time>
      </trkpt>
      <trkpt lat="44.72919" lon="7.06935">
        <ele>2509</ele>
        <time>2022-07-15T09:26:14Z</time>
      </trkpt>
      <trkpt lat="44.72918" lon="7.0693">
        <ele>2510</ele>
        <time>2022-07-15T09:26:23Z</time>
      </trkpt>
      <trkpt lat="44.72925" lon="7.06925">
        <ele>2511</ele>
        <time>2022-07-15T09:26:37Z</time>
      </trkpt>
      <trkpt lat="44.72928" lon="7.06922">
        <ele>2512</ele>
        <time>2022-07-15T09:26:46Z</time>
      </trkpt>
      <trkpt lat="44.72925" lon="7.0692">
        <ele>2513</ele>
        <time>2022-07-15T09:26:54Z</time>
      </trkpt>
      <trkpt lat="44.72921" lon="7.0692">
        <ele>2514</ele>
        <time>2022-07-15T09:27:00Z</time>
      </trkpt>
      <trkpt lat="44.72918" lon="7.06921">
        <ele>2518</ele>
        <time>2022-07-15T09:27:06Z</time>
      </trkpt>
      <trkpt lat="44.72915" lon="7.06918">
        <ele>2520</ele>
        <time>2022-07-15T09:27:15Z</time>
      </trkpt>
      <trkpt lat="44.72916" lon="7.06913">
        <ele>2521</ele>
        <time>2022-07-15T09:27:24Z</time>
      </trkpt>
      <trkpt lat="44.72919" lon="7.06911">
        <ele>2523</ele>
        <time>2022-07-15T09:27:30Z</time>
      </trkpt>
      <trkpt lat="44.72921" lon="7.06907">
        <ele>2524</ele>
        <time>2022-07-15T09:27:38Z</time>
      </trkpt>
      <trkpt lat="44.72919" lon="7.06904">
        <ele>2525</ele>
        <time>2022-07-15T09:27:52Z</time>
      </trkpt>
      <trkpt lat="44.72922" lon="7.06902">
        <ele>2526</ele>
        <time>2022-07-15T09:28:00Z</time>
      </trkpt>
      <trkpt lat="44.7292" lon="7.06897">
        <ele>2527</ele>
        <time>2022-07-15T09:28:15Z</time>
      </trkpt>
      <trkpt lat="44.72921" lon="7.06892">
        <ele>2529</ele>
        <time>2022-07-15T09:28:26Z</time>
      </trkpt>
      <trkpt lat="44.72922" lon="7.06888">
        <ele>2533</ele>
        <time>2022-07-15T09:28:49Z</time>
      </trkpt>
      <trkpt lat="44.72923" lon="7.06883">
        <ele>2535</ele>
        <time>2022-07-15T09:29:00Z</time>
      </trkpt>
      <trkpt lat="44.72922" lon="7.06879">
        <ele>2538</ele>
        <time>2022-07-15T09:29:14Z</time>
      </trkpt>
      <trkpt lat="44.7292" lon="7.06874">
        <ele>2541</ele>
        <time>2022-07-15T09:29:30Z</time>
      </trkpt>
      <trkpt lat="44.72918" lon="7.0687">
        <ele>2543</ele>
        <time>2022-07-15T09:29:58Z</time>
      </trkpt>
      <trkpt lat="44.72918" lon="7.06865">
        <ele>2544</ele>
        <time>2022-07-15T09:30:12Z</time>
      </trkpt>
      <trkpt lat="44.72916" lon="7.06861">
        <ele>2549</ele>
        <time>2022-07-15T09:30:19Z</time>
      </trkpt>
      <trkpt lat="44.72916" lon="7.06857">
        <ele>2550</ele>
        <time>2022-07-15T09:30:30Z</time>
      </trkpt>
      <trkpt lat="44.72915" lon="7.06852">
        <ele>2553</ele>
        <time>2022-07-15T09:30:44Z</time>
      </trkpt>
      <trkpt lat="44.72917" lon="7.06848">
        <ele>2554</ele>
        <time>2022-07-15T09:30:54Z</time>
      </trkpt>
      <trkpt lat="44.7292" lon="7.06845">
        <ele>2556</ele>
        <time>2022-07-15T09:31:02Z</time>
      </trkpt>
      <trkpt lat="44.72923" lon="7.06841">
        <ele>2557</ele>
        <time>2022-07-15T09:31:11Z</time>
      </trkpt>
      <trkpt lat="44.7292" lon="7.06838">
        <ele>2558</ele>
        <time>2022-07-15T09:31:18Z</time>
      </trkpt>
      <trkpt lat="44.72917" lon="7.06836">
        <ele>2560</ele>
        <time>2022-07-15T09:31:28Z</time>
      </trkpt>
      <trkpt lat="44.72916" lon="7.06832">
        <ele>2562</ele>
        <time>2022-07-15T09:31:46Z</time>
      </trkpt>
      <trkpt lat="44.72917" lon="7.06828">
        <ele>2563</ele>
        <time>2022-07-15T09:31:56Z</time>
      </trkpt>
      <trkpt lat="44.72916" lon="7.06823">
        <ele>2568</ele>
        <time>2022-07-15T09:32:14Z</time>
      </trkpt>
      <trkpt lat="44.72919" lon="7.0682">
        <ele>2568</ele>
        <time>2022-07-15T09:32:21Z</time>
      </trkpt>
      <trkpt lat="44.72916" lon="7.06818">
        <ele>2571</ele>
        <time>2022-07-15T09:32:38Z</time>
      </trkpt>
      <trkpt lat="44.72916" lon="7.06813">
        <ele>2572</ele>
        <time>2022-07-15T09:32:49Z</time>
      </trkpt>
      <trkpt lat="44.72912" lon="7.06813">
        <ele>2576</ele>
        <time>2022-07-15T09:33:01Z</time>
      </trkpt>
      <trkpt lat="44.72909" lon="7.06812">
        <ele>2578</ele>
        <time>2022-07-15T09:33:12Z</time>
      </trkpt>
      <trkpt lat="44.72908" lon="7.06807">
        <ele>2579</ele>
        <time>2022-07-15T09:33:28Z</time>
      </trkpt>
      <trkpt lat="44.72904" lon="7.06809">
        <ele>2580</ele>
        <time>2022-07-15T09:33:39Z</time>
      </trkpt>
      <trkpt lat="44.72902" lon="7.06805">
        <ele>2583</ele>
        <time>2022-07-15T09:33:54Z</time>
      </trkpt>
      <trkpt lat="44.72898" lon="7.06805">
        <ele>2585</ele>
        <time>2022-07-15T09:34:06Z</time>
      </trkpt>
      <trkpt lat="44.72895" lon="7.06803">
        <ele>2588</ele>
        <time>2022-07-15T09:34:24Z</time>
      </trkpt>
      <trkpt lat="44.72891" lon="7.06802">
        <ele>2590</ele>
        <time>2022-07-15T09:34:37Z</time>
      </trkpt>
      <trkpt lat="44.72891" lon="7.06797">
        <ele>2591</ele>
        <time>2022-07-15T09:34:46Z</time>
      </trkpt>
      <trkpt lat="44.72893" lon="7.06792">
        <ele>2591</ele>
        <time>2022-07-15T09:34:54Z</time>
      </trkpt>
      <trkpt lat="44.72889" lon="7.06792">
        <ele>2592</ele>
        <time>2022-07-15T09:35:09Z</time>
      </trkpt>
      <trkpt lat="44.72882" lon="7.06794">
        <ele>2594</ele>
        <time>2022-07-15T09:35:19Z</time>
      </trkpt>
      <trkpt lat="44.72879" lon="7.06794">
        <ele>2595</ele>
        <time>2022-07-15T09:35:31Z</time>
      </trkpt>
      <trkpt lat="44.72879" lon="7.06789">
        <ele>2595</ele>
        <time>2022-07-15T09:35:42Z</time>
      </trkpt>
      <trkpt lat="44.72881" lon="7.06784">
        <ele>2595</ele>
        <time>2022-07-15T09:35:52Z</time>
      </trkpt>
      <trkpt lat="44.72879" lon="7.0678">
        <ele>2597</ele>
        <time>2022-07-15T09:36:06Z</time>
      </trkpt>
      <trkpt lat="44.72875" lon="7.06781">
        <ele>2600</ele>
        <time>2022-07-15T09:36:20Z</time>
      </trkpt>
      <trkpt lat="44.72872" lon="7.06778">
        <ele>2604</ele>
        <time>2022-07-15T09:36:34Z</time>
      </trkpt>
      <trkpt lat="44.72873" lon="7.06773">
        <ele>2606</ele>
        <time>2022-07-15T09:36:46Z</time>
      </trkpt>
      <trkpt lat="44.72871" lon="7.0677">
        <ele>2610</ele>
        <time>2022-07-15T09:37:06Z</time>
      </trkpt>
      <trkpt lat="44.72873" lon="7.06766">
        <ele>2611</ele>
        <time>2022-07-15T09:37:14Z</time>
      </trkpt>
      <trkpt lat="44.72875" lon="7.06763">
        <ele>2613</ele>
        <time>2022-07-15T09:37:20Z</time>
      </trkpt>
      <trkpt lat="44.72872" lon="7.0676">
        <ele>2617</ele>
        <time>2022-07-15T09:37:33Z</time>
      </trkpt>
      <trkpt lat="44.72868" lon="7.06761">
        <ele>2617</ele>
        <time>2022-07-15T09:37:44Z</time>
      </trkpt>
      <trkpt lat="44.72866" lon="7.06759">
        <ele>2617</ele>
        <time>2022-07-15T09:37:57Z</time>
      </trkpt>
      <trkpt lat="44.72862" lon="7.06758">
        <ele>2618</ele>
        <time>2022-07-15T09:38:10Z</time>
      </trkpt>
      <trkpt lat="44.72859" lon="7.06761">
        <ele>2621</ele>
        <time>2022-07-15T09:38:22Z</time>
      </trkpt>
      <trkpt lat="44.72855" lon="7.0676">
        <ele>2622</ele>
        <time>2022-07-15T09:38:41Z</time>
      </trkpt>
      <trkpt lat="44.72854" lon="7.06757">
        <ele>2624</ele>
        <time>2022-07-15T09:38:59Z</time>
      </trkpt>
      <trkpt lat="44.72851" lon="7.06755">
        <ele>2627</ele>
        <time>2022-07-15T09:39:24Z</time>
      </trkpt>
      <trkpt lat="44.72847" lon="7.06754">
        <ele>2632</ele>
        <time>2022-07-15T09:39:35Z</time>
      </trkpt>
      <trkpt lat="44.72844" lon="7.06753">
        <ele>2635</ele>
        <time>2022-07-15T09:39:52Z</time>
      </trkpt>
      <trkpt lat="44.72845" lon="7.06749">
        <ele>2636</ele>
        <time>2022-07-15T09:40:05Z</time>
      </trkpt>
      <trkpt lat="44.72847" lon="7.06745">
        <ele>2639</ele>
        <time>2022-07-15T09:40:12Z</time>
      </trkpt>
      <trkpt lat="44.72844" lon="7.06742">
        <ele>2643</ele>
        <time>2022-07-15T09:40:32Z</time>
      </trkpt>
      <trkpt lat="44.7284" lon="7.06742">
        <ele>2644</ele>
        <time>2022-07-15T09:40:41Z</time>
      </trkpt>
      <trkpt lat="44.72837" lon="7.06743">
        <ele>2645</ele>
        <time>2022-07-15T09:40:49Z</time>
      </trkpt>
      <trkpt lat="44.72834" lon="7.0674">
        <ele>2645</ele>
        <time>2022-07-15T09:41:18Z</time>
      </trkpt>
      <trkpt lat="44.72832" lon="7.06737">
        <ele>2648</ele>
        <time>2022-07-15T09:41:40Z</time>
      </trkpt>
      <trkpt lat="44.72829" lon="7.06736">
        <ele>2648</ele>
        <time>2022-07-15T09:41:47Z</time>
      </trkpt>
      <trkpt lat="44.72825" lon="7.06738">
        <ele>2651</ele>
        <time>2022-07-15T09:42:01Z</time>
      </trkpt>
      <trkpt lat="44.72822" lon="7.06741">
        <ele>2652</ele>
        <time>2022-07-15T09:42:12Z</time>
      </trkpt>
      <trkpt lat="44.72823" lon="7.06746">
        <ele>2657</ele>
        <time>2022-07-15T09:42:28Z</time>
      </trkpt>
      <trkpt lat="44.72822" lon="7.06751">
        <ele>2659</ele>
        <time>2022-07-15T09:42:45Z</time>
      </trkpt>
      <trkpt lat="44.72819" lon="7.06755">
        <ele>2665</ele>
        <time>2022-07-15T09:43:15Z</time>
      </trkpt>
      <trkpt lat="44.72818" lon="7.06759">
        <ele>2666</ele>
        <time>2022-07-15T09:43:23Z</time>
      </trkpt>
      <trkpt lat="44.72815" lon="7.06761">
        <ele>2669</ele>
        <time>2022-07-15T09:43:40Z</time>
      </trkpt>
      <trkpt lat="44.72812" lon="7.06765">
        <ele>2670</ele>
        <time>2022-07-15T09:43:57Z</time>
      </trkpt>
      <trkpt lat="44.72811" lon="7.0677">
        <ele>2672</ele>
        <time>2022-07-15T09:44:07Z</time>
      </trkpt>
      <trkpt lat="44.72807" lon="7.06779">
        <ele>2677</ele>
        <time>2022-07-15T09:44:27Z</time>
      </trkpt>
      <trkpt lat="44.72807" lon="7.06774">
        <ele>2678</ele>
        <time>2022-07-15T09:44:41Z</time>
      </trkpt>
      <trkpt lat="44.72803" lon="7.06776">
        <ele>2679</ele>
        <time>2022-07-15T09:44:56Z</time>
      </trkpt>
      <trkpt lat="44.728" lon="7.06779">
        <ele>2682</ele>
        <time>2022-07-15T09:45:08Z</time>
      </trkpt>
      <trkpt lat="44.72799" lon="7.06774">
        <ele>2683</ele>
        <time>2022-07-15T09:45:23Z</time>
      </trkpt>
      <trkpt lat="44.72795" lon="7.06775">
        <ele>2688</ele>
        <time>2022-07-15T09:45:45Z</time>
      </trkpt>
      <trkpt lat="44.72792" lon="7.06777">
        <ele>2690</ele>
        <time>2022-07-15T09:45:57Z</time>
      </trkpt>
      <trkpt lat="44.7279" lon="7.06773">
        <ele>2691</ele>
        <time>2022-07-15T09:46:13Z</time>
      </trkpt>
      <trkpt lat="44.72788" lon="7.0677">
        <ele>2693</ele>
        <time>2022-07-15T09:46:24Z</time>
      </trkpt>
      <trkpt lat="44.72786" lon="7.06766">
        <ele>2695</ele>
        <time>2022-07-15T09:46:36Z</time>
      </trkpt>
      <trkpt lat="44.72784" lon="7.06766">
        <ele>2697</ele>
        <time>2022-07-15T10:18:41Z</time>
      </trkpt>
      <trkpt lat="44.72778" lon="7.06772">
        <ele>2696</ele>
        <time>2022-07-15T10:19:03Z</time>
      </trkpt>
      <trkpt lat="44.7277" lon="7.06782">
        <ele>2693</ele>
        <time>2022-07-15T10:19:17Z</time>
      </trkpt>
      <trkpt lat="44.72769" lon="7.06787">
        <ele>2692</ele>
        <time>2022-07-15T10:20:11Z</time>
      </trkpt>
      <trkpt lat="44.72765" lon="7.06789">
        <ele>2692</ele>
        <time>2022-07-15T10:20:31Z</time>
      </trkpt>
      <trkpt lat="44.72767" lon="7.06798">
        <ele>2690</ele>
        <time>2022-07-15T10:25:01Z</time>
      </trkpt>
      <trkpt lat="44.72769" lon="7.06793">
        <ele>2690</ele>
        <time>2022-07-15T10:25:11Z</time>
      </trkpt>
      <trkpt lat="44.72768" lon="7.06788">
        <ele>2690</ele>
        <time>2022-07-15T10:43:32Z</time>
      </trkpt>
      <trkpt lat="44.7277" lon="7.06783">
        <ele>2690</ele>
        <time>2022-07-15T10:43:38Z</time>
      </trkpt>
      <trkpt lat="44.72771" lon="7.06778">
        <ele>2691</ele>
        <time>2022-07-15T10:43:54Z</time>
      </trkpt>
      <trkpt lat="44.7277" lon="7.06774">
        <ele>2691</ele>
        <time>2022-07-15T10:44:07Z</time>
      </trkpt>
      <trkpt lat="44.72767" lon="7.0677">
        <ele>2689</ele>
        <time>2022-07-15T10:44:17Z</time>
      </trkpt>
      <trkpt lat="44.72765" lon="7.06767">
        <ele>2688</ele>
        <time>2022-07-15T10:44:28Z</time>
      </trkpt>
      <trkpt lat="44.72758" lon="7.0677">
        <ele>2685</ele>
        <time>2022-07-15T10:44:44Z</time>
      </trkpt>
      <trkpt lat="44.72755" lon="7.06766">
        <ele>2683</ele>
        <time>2022-07-15T10:45:17Z</time>
      </trkpt>
      <trkpt lat="44.72753" lon="7.06762">
        <ele>2682</ele>
        <time>2022-07-15T10:45:32Z</time>
      </trkpt>
      <trkpt lat="44.7275" lon="7.06763">
        <ele>2681</ele>
        <time>2022-07-15T10:45:40Z</time>
      </trkpt>
      <trkpt lat="44.72746" lon="7.06763">
        <ele>2678</ele>
        <time>2022-07-15T10:45:51Z</time>
      </trkpt>
      <trkpt lat="44.72743" lon="7.06765">
        <ele>2677</ele>
        <time>2022-07-15T10:45:58Z</time>
      </trkpt>
      <trkpt lat="44.7274" lon="7.06765">
        <ele>2674</ele>
        <time>2022-07-15T10:46:04Z</time>
      </trkpt>
      <trkpt lat="44.72736" lon="7.06766">
        <ele>2673</ele>
        <time>2022-07-15T10:46:21Z</time>
      </trkpt>
      <trkpt lat="44.72733" lon="7.0677">
        <ele>2671</ele>
        <time>2022-07-15T10:46:27Z</time>
      </trkpt>
      <trkpt lat="44.72726" lon="7.06772">
        <ele>2669</ele>
        <time>2022-07-15T10:46:38Z</time>
      </trkpt>
      <trkpt lat="44.72723" lon="7.06774">
        <ele>2668</ele>
        <time>2022-07-15T10:46:44Z</time>
      </trkpt>
      <trkpt lat="44.72713" lon="7.06783">
        <ele>2664</ele>
        <time>2022-07-15T10:47:00Z</time>
      </trkpt>
      <trkpt lat="44.72712" lon="7.06787">
        <ele>2664</ele>
        <time>2022-07-15T10:47:06Z</time>
      </trkpt>
      <trkpt lat="44.72713" lon="7.0679">
        <ele>2661</ele>
        <time>2022-07-15T10:48:01Z</time>
      </trkpt>
      <trkpt lat="44.72712" lon="7.06796">
        <ele>2661</ele>
        <time>2022-07-15T10:48:05Z</time>
      </trkpt>
      <trkpt lat="44.72709" lon="7.06792">
        <ele>2661</ele>
        <time>2022-07-15T10:48:07Z</time>
      </trkpt>
      <trkpt lat="44.72707" lon="7.06787">
        <ele>2660</ele>
        <time>2022-07-15T10:48:10Z</time>
      </trkpt>
      <trkpt lat="44.72707" lon="7.06782">
        <ele>2660</ele>
        <time>2022-07-15T10:48:13Z</time>
      </trkpt>
      <trkpt lat="44.72708" lon="7.06776">
        <ele>2655</ele>
        <time>2022-07-15T10:48:17Z</time>
      </trkpt>
      <trkpt lat="44.72708" lon="7.06771">
        <ele>2654</ele>
        <time>2022-07-15T10:48:21Z</time>
      </trkpt>
      <trkpt lat="44.72707" lon="7.06766">
        <ele>2654</ele>
        <time>2022-07-15T10:48:39Z</time>
      </trkpt>
      <trkpt lat="44.72707" lon="7.06761">
        <ele>2654</ele>
        <time>2022-07-15T10:48:50Z</time>
      </trkpt>
      <trkpt lat="44.72709" lon="7.06757">
        <ele>2653</ele>
        <time>2022-07-15T10:48:57Z</time>
      </trkpt>
      <trkpt lat="44.72709" lon="7.06752">
        <ele>2653</ele>
        <time>2022-07-15T10:49:02Z</time>
      </trkpt>
      <trkpt lat="44.7271" lon="7.06746">
        <ele>2652</ele>
        <time>2022-07-15T10:49:08Z</time>
      </trkpt>
      <trkpt lat="44.72714" lon="7.06733">
        <ele>2651</ele>
        <time>2022-07-15T10:49:31Z</time>
      </trkpt>
      <trkpt lat="44.72716" lon="7.06723">
        <ele>2650</ele>
        <time>2022-07-15T10:50:01Z</time>
      </trkpt>
      <trkpt lat="44.72718" lon="7.06712">
        <ele>2648</ele>
        <time>2022-07-15T10:50:24Z</time>
      </trkpt>
      <trkpt lat="44.7272" lon="7.06708">
        <ele>2647</ele>
        <time>2022-07-15T10:50:30Z</time>
      </trkpt>
      <trkpt lat="44.72722" lon="7.06703">
        <ele>2646</ele>
        <time>2022-07-15T10:50:36Z</time>
      </trkpt>
      <trkpt lat="44.72723" lon="7.06698">
        <ele>2646</ele>
        <time>2022-07-15T10:50:41Z</time>
      </trkpt>
      <trkpt lat="44.72723" lon="7.06693">
        <ele>2645</ele>
        <time>2022-07-15T10:50:47Z</time>
      </trkpt>
      <trkpt lat="44.72725" lon="7.06688">
        <ele>2645</ele>
        <time>2022-07-15T10:50:53Z</time>
      </trkpt>
      <trkpt lat="44.72726" lon="7.06683">
        <ele>2644</ele>
        <time>2022-07-15T10:50:59Z</time>
      </trkpt>
      <trkpt lat="44.72727" lon="7.06678">
        <ele>2644</ele>
        <time>2022-07-15T10:51:04Z</time>
      </trkpt>
      <trkpt lat="44.72727" lon="7.06673">
        <ele>2643</ele>
        <time>2022-07-15T10:51:10Z</time>
      </trkpt>
      <trkpt lat="44.72727" lon="7.06668">
        <ele>2642</ele>
        <time>2022-07-15T10:51:16Z</time>
      </trkpt>
      <trkpt lat="44.72734" lon="7.06643">
        <ele>2641</ele>
        <time>2022-07-15T10:51:43Z</time>
      </trkpt>
      <trkpt lat="44.72735" lon="7.06632">
        <ele>2639</ele>
        <time>2022-07-15T10:51:54Z</time>
      </trkpt>
      <trkpt lat="44.72736" lon="7.06627">
        <ele>2639</ele>
        <time>2022-07-15T10:51:59Z</time>
      </trkpt>
      <trkpt lat="44.72736" lon="7.06622">
        <ele>2639</ele>
        <time>2022-07-15T10:52:04Z</time>
      </trkpt>
      <trkpt lat="44.72736" lon="7.06617">
        <ele>2638</ele>
        <time>2022-07-15T10:52:11Z</time>
      </trkpt>
      <trkpt lat="44.72737" lon="7.06612">
        <ele>2637</ele>
        <time>2022-07-15T10:52:28Z</time>
      </trkpt>
      <trkpt lat="44.72737" lon="7.06607">
        <ele>2638</ele>
        <time>2022-07-15T10:52:34Z</time>
      </trkpt>
      <trkpt lat="44.72738" lon="7.06596">
        <ele>2636</ele>
        <time>2022-07-15T10:52:47Z</time>
      </trkpt>
      <trkpt lat="44.72736" lon="7.06591">
        <ele>2635</ele>
        <time>2022-07-15T10:52:51Z</time>
      </trkpt>
      <trkpt lat="44.72736" lon="7.06586">
        <ele>2637</ele>
        <time>2022-07-15T10:52:56Z</time>
      </trkpt>
      <trkpt lat="44.72733" lon="7.06589">
        <ele>2636</ele>
        <time>2022-07-15T10:53:03Z</time>
      </trkpt>
      <trkpt lat="44.72729" lon="7.06598">
        <ele>2634</ele>
        <time>2022-07-15T10:53:13Z</time>
      </trkpt>
      <trkpt lat="44.72726" lon="7.06601">
        <ele>2633</ele>
        <time>2022-07-15T10:53:18Z</time>
      </trkpt>
      <trkpt lat="44.72724" lon="7.06606">
        <ele>2631</ele>
        <time>2022-07-15T10:53:26Z</time>
      </trkpt>
      <trkpt lat="44.72719" lon="7.06612">
        <ele>2628</ele>
        <time>2022-07-15T10:53:38Z</time>
      </trkpt>
      <trkpt lat="44.72713" lon="7.06627">
        <ele>2624</ele>
        <time>2022-07-15T10:54:03Z</time>
      </trkpt>
      <trkpt lat="44.72705" lon="7.06636">
        <ele>2621</ele>
        <time>2022-07-15T10:54:19Z</time>
      </trkpt>
      <trkpt lat="44.72701" lon="7.06646">
        <ele>2619</ele>
        <time>2022-07-15T10:54:28Z</time>
      </trkpt>
      <trkpt lat="44.727" lon="7.06651">
        <ele>2619</ele>
        <time>2022-07-15T10:54:32Z</time>
      </trkpt>
      <trkpt lat="44.72694" lon="7.06659">
        <ele>2618</ele>
        <time>2022-07-15T10:54:42Z</time>
      </trkpt>
      <trkpt lat="44.72691" lon="7.06662">
        <ele>2618</ele>
        <time>2022-07-15T10:54:47Z</time>
      </trkpt>
      <trkpt lat="44.72685" lon="7.06669">
        <ele>2616</ele>
        <time>2022-07-15T10:54:55Z</time>
      </trkpt>
      <trkpt lat="44.72683" lon="7.06673">
        <ele>2614</ele>
        <time>2022-07-15T10:54:59Z</time>
      </trkpt>
      <trkpt lat="44.7268" lon="7.06676">
        <ele>2613</ele>
        <time>2022-07-15T10:55:04Z</time>
      </trkpt>
      <trkpt lat="44.72677" lon="7.06679">
        <ele>2612</ele>
        <time>2022-07-15T10:55:08Z</time>
      </trkpt>
      <trkpt lat="44.72674" lon="7.06681">
        <ele>2611</ele>
        <time>2022-07-15T10:55:14Z</time>
      </trkpt>
      <trkpt lat="44.72667" lon="7.06686">
        <ele>2611</ele>
        <time>2022-07-15T10:55:25Z</time>
      </trkpt>
      <trkpt lat="44.72664" lon="7.0669">
        <ele>2610</ele>
        <time>2022-07-15T10:55:31Z</time>
      </trkpt>
      <trkpt lat="44.72662" lon="7.06694">
        <ele>2609</ele>
        <time>2022-07-15T10:55:36Z</time>
      </trkpt>
      <trkpt lat="44.72659" lon="7.06697">
        <ele>2609</ele>
        <time>2022-07-15T10:55:41Z</time>
      </trkpt>
      <trkpt lat="44.72647" lon="7.0671">
        <ele>2606</ele>
        <time>2022-07-15T10:56:01Z</time>
      </trkpt>
      <trkpt lat="44.72645" lon="7.06713">
        <ele>2604</ele>
        <time>2022-07-15T10:56:06Z</time>
      </trkpt>
      <trkpt lat="44.72642" lon="7.06717">
        <ele>2604</ele>
        <time>2022-07-15T10:56:11Z</time>
      </trkpt>
      <trkpt lat="44.72639" lon="7.0672">
        <ele>2605</ele>
        <time>2022-07-15T10:56:17Z</time>
      </trkpt>
      <trkpt lat="44.72638" lon="7.06715">
        <ele>2605</ele>
        <time>2022-07-15T10:56:27Z</time>
      </trkpt>
      <trkpt lat="44.7264" lon="7.06711">
        <ele>2604</ele>
        <time>2022-07-15T10:56:33Z</time>
      </trkpt>
      <trkpt lat="44.72642" lon="7.06707">
        <ele>2602</ele>
        <time>2022-07-15T10:56:38Z</time>
      </trkpt>
      <trkpt lat="44.72647" lon="7.06693">
        <ele>2600</ele>
        <time>2022-07-15T10:56:53Z</time>
      </trkpt>
      <trkpt lat="44.72646" lon="7.06688">
        <ele>2599</ele>
        <time>2022-07-15T10:57:00Z</time>
      </trkpt>
      <trkpt lat="44.72646" lon="7.06682">
        <ele>2599</ele>
        <time>2022-07-15T10:57:05Z</time>
      </trkpt>
      <trkpt lat="44.72647" lon="7.06677">
        <ele>2599</ele>
        <time>2022-07-15T10:57:10Z</time>
      </trkpt>
      <trkpt lat="44.72647" lon="7.06673">
        <ele>2598</ele>
        <time>2022-07-15T10:57:15Z</time>
      </trkpt>
      <trkpt lat="44.72648" lon="7.06668">
        <ele>2597</ele>
        <time>2022-07-15T10:57:19Z</time>
      </trkpt>
      <trkpt lat="44.72651" lon="7.06653">
        <ele>2595</ele>
        <time>2022-07-15T10:57:32Z</time>
      </trkpt>
      <trkpt lat="44.72651" lon="7.06648">
        <ele>2596</ele>
        <time>2022-07-15T10:58:02Z</time>
      </trkpt>
      <trkpt lat="44.72652" lon="7.06642">
        <ele>2595</ele>
        <time>2022-07-15T10:58:06Z</time>
      </trkpt>
      <trkpt lat="44.72655" lon="7.06632">
        <ele>2592</ele>
        <time>2022-07-15T10:58:16Z</time>
      </trkpt>
      <trkpt lat="44.72657" lon="7.06627">
        <ele>2592</ele>
        <time>2022-07-15T10:58:21Z</time>
      </trkpt>
      <trkpt lat="44.72658" lon="7.06621">
        <ele>2590</ele>
        <time>2022-07-15T10:58:26Z</time>
      </trkpt>
      <trkpt lat="44.72655" lon="7.06618">
        <ele>2589</ele>
        <time>2022-07-15T10:58:32Z</time>
      </trkpt>
      <trkpt lat="44.72654" lon="7.06596">
        <ele>2586</ele>
        <time>2022-07-15T10:58:51Z</time>
      </trkpt>
      <trkpt lat="44.7265" lon="7.06597">
        <ele>2585</ele>
        <time>2022-07-15T10:58:58Z</time>
      </trkpt>
      <trkpt lat="44.72647" lon="7.06597">
        <ele>2584</ele>
        <time>2022-07-15T10:59:03Z</time>
      </trkpt>
      <trkpt lat="44.7264" lon="7.0659">
        <ele>2581</ele>
        <time>2022-07-15T10:59:15Z</time>
      </trkpt>
      <trkpt lat="44.72637" lon="7.0659">
        <ele>2579</ele>
        <time>2022-07-15T10:59:20Z</time>
      </trkpt>
      <trkpt lat="44.72633" lon="7.06591">
        <ele>2578</ele>
        <time>2022-07-15T10:59:26Z</time>
      </trkpt>
      <trkpt lat="44.72625" lon="7.06593">
        <ele>2573</ele>
        <time>2022-07-15T10:59:38Z</time>
      </trkpt>
      <trkpt lat="44.72621" lon="7.06595">
        <ele>2572</ele>
        <time>2022-07-15T10:59:43Z</time>
      </trkpt>
      <trkpt lat="44.72618" lon="7.06598">
        <ele>2571</ele>
        <time>2022-07-15T10:59:47Z</time>
      </trkpt>
      <trkpt lat="44.72615" lon="7.06601">
        <ele>2570</ele>
        <time>2022-07-15T10:59:55Z</time>
      </trkpt>
      <trkpt lat="44.72608" lon="7.06601">
        <ele>2568</ele>
        <time>2022-07-15T11:00:03Z</time>
      </trkpt>
      <trkpt lat="44.72604" lon="7.06601">
        <ele>2566</ele>
        <time>2022-07-15T11:00:08Z</time>
      </trkpt>
      <trkpt lat="44.726" lon="7.066">
        <ele>2565</ele>
        <time>2022-07-15T11:00:13Z</time>
      </trkpt>
      <trkpt lat="44.72597" lon="7.066">
        <ele>2563</ele>
        <time>2022-07-15T11:00:17Z</time>
      </trkpt>
      <trkpt lat="44.72592" lon="7.066">
        <ele>2563</ele>
        <time>2022-07-15T11:00:22Z</time>
      </trkpt>
      <trkpt lat="44.72589" lon="7.06599">
        <ele>2562</ele>
        <time>2022-07-15T11:00:26Z</time>
      </trkpt>
      <trkpt lat="44.72585" lon="7.066">
        <ele>2561</ele>
        <time>2022-07-15T11:00:30Z</time>
      </trkpt>
      <trkpt lat="44.72582" lon="7.06601">
        <ele>2561</ele>
        <time>2022-07-15T11:00:34Z</time>
      </trkpt>
      <trkpt lat="44.7257" lon="7.06603">
        <ele>2561</ele>
        <time>2022-07-15T11:00:56Z</time>
      </trkpt>
      <trkpt lat="44.72566" lon="7.066">
        <ele>2559</ele>
        <time>2022-07-15T11:01:01Z</time>
      </trkpt>
      <trkpt lat="44.72559" lon="7.06597">
        <ele>2557</ele>
        <time>2022-07-15T11:01:09Z</time>
      </trkpt>
      <trkpt lat="44.72543" lon="7.06595">
        <ele>2554</ele>
        <time>2022-07-15T11:01:27Z</time>
      </trkpt>
      <trkpt lat="44.7254" lon="7.06594">
        <ele>2553</ele>
        <time>2022-07-15T11:01:31Z</time>
      </trkpt>
      <trkpt lat="44.72532" lon="7.06596">
        <ele>2554</ele>
        <time>2022-07-15T11:01:41Z</time>
      </trkpt>
      <trkpt lat="44.72535" lon="7.06592">
        <ele>2554</ele>
        <time>2022-07-15T11:01:50Z</time>
      </trkpt>
      <trkpt lat="44.72539" lon="7.06592">
        <ele>2554</ele>
        <time>2022-07-15T11:01:55Z</time>
      </trkpt>
      <trkpt lat="44.72543" lon="7.06591">
        <ele>2554</ele>
        <time>2022-07-15T11:01:59Z</time>
      </trkpt>
      <trkpt lat="44.72546" lon="7.06589">
        <ele>2553</ele>
        <time>2022-07-15T11:02:03Z</time>
      </trkpt>
      <trkpt lat="44.72553" lon="7.06585">
        <ele>2554</ele>
        <time>2022-07-15T11:02:12Z</time>
      </trkpt>
      <trkpt lat="44.72553" lon="7.06575">
        <ele>2554</ele>
        <time>2022-07-15T11:02:25Z</time>
      </trkpt>
      <trkpt lat="44.72551" lon="7.0657">
        <ele>2554</ele>
        <time>2022-07-15T11:02:35Z</time>
      </trkpt>
      <trkpt lat="44.72551" lon="7.06564">
        <ele>2557</ele>
        <time>2022-07-15T11:02:53Z</time>
      </trkpt>
      <trkpt lat="44.72553" lon="7.0656">
        <ele>2556</ele>
        <time>2022-07-15T11:03:16Z</time>
      </trkpt>
      <trkpt lat="44.72551" lon="7.0657">
        <ele>2556</ele>
        <time>2022-07-15T11:21:03Z</time>
      </trkpt>
      <trkpt lat="44.72555" lon="7.06572">
        <ele>2559</ele>
        <time>2022-07-15T11:34:59Z</time>
      </trkpt>
      <trkpt lat="44.72558" lon="7.06575">
        <ele>2562</ele>
        <time>2022-07-15T11:35:05Z</time>
      </trkpt>
      <trkpt lat="44.72558" lon="7.06581">
        <ele>2563</ele>
        <time>2022-07-15T11:35:10Z</time>
      </trkpt>
      <trkpt lat="44.7256" lon="7.06584">
        <ele>2563</ele>
        <time>2022-07-15T11:35:16Z</time>
      </trkpt>
      <trkpt lat="44.72564" lon="7.06587">
        <ele>2562</ele>
        <time>2022-07-15T11:35:22Z</time>
      </trkpt>
      <trkpt lat="44.72567" lon="7.06588">
        <ele>2562</ele>
        <time>2022-07-15T11:35:30Z</time>
      </trkpt>
      <trkpt lat="44.72574" lon="7.06592">
        <ele>2561</ele>
        <time>2022-07-15T11:35:43Z</time>
      </trkpt>
      <trkpt lat="44.72577" lon="7.06594">
        <ele>2561</ele>
        <time>2022-07-15T11:35:49Z</time>
      </trkpt>
      <trkpt lat="44.72589" lon="7.06595">
        <ele>2562</ele>
        <time>2022-07-15T11:36:09Z</time>
      </trkpt>
      <trkpt lat="44.72593" lon="7.06596">
        <ele>2562</ele>
        <time>2022-07-15T11:36:16Z</time>
      </trkpt>
      <trkpt lat="44.726" lon="7.06596">
        <ele>2564</ele>
        <time>2022-07-15T11:36:38Z</time>
      </trkpt>
      <trkpt lat="44.72603" lon="7.06593">
        <ele>2565</ele>
        <time>2022-07-15T11:36:45Z</time>
      </trkpt>
      <trkpt lat="44.72603" lon="7.06588">
        <ele>2565</ele>
        <time>2022-07-15T11:36:52Z</time>
      </trkpt>
      <trkpt lat="44.72605" lon="7.06583">
        <ele>2566</ele>
        <time>2022-07-15T11:36:57Z</time>
      </trkpt>
      <trkpt lat="44.72608" lon="7.0658">
        <ele>2567</ele>
        <time>2022-07-15T11:37:02Z</time>
      </trkpt>
      <trkpt lat="44.72611" lon="7.06577">
        <ele>2568</ele>
        <time>2022-07-15T11:37:08Z</time>
      </trkpt>
      <trkpt lat="44.72621" lon="7.06562">
        <ele>2570</ele>
        <time>2022-07-15T11:37:28Z</time>
      </trkpt>
      <trkpt lat="44.72622" lon="7.06558">
        <ele>2570</ele>
        <time>2022-07-15T11:37:40Z</time>
      </trkpt>
      <trkpt lat="44.72626" lon="7.0655">
        <ele>2570</ele>
        <time>2022-07-15T11:37:50Z</time>
      </trkpt>
      <trkpt lat="44.72629" lon="7.06546">
        <ele>2571</ele>
        <time>2022-07-15T11:37:56Z</time>
      </trkpt>
      <trkpt lat="44.72632" lon="7.06542">
        <ele>2572</ele>
        <time>2022-07-15T11:38:02Z</time>
      </trkpt>
      <trkpt lat="44.72631" lon="7.06536">
        <ele>2574</ele>
        <time>2022-07-15T11:38:25Z</time>
      </trkpt>
      <trkpt lat="44.72629" lon="7.06534">
        <ele>2574</ele>
        <time>2022-07-15T11:38:29Z</time>
      </trkpt>
      <trkpt lat="44.72632" lon="7.0653">
        <ele>2575</ele>
        <time>2022-07-15T11:38:35Z</time>
      </trkpt>
      <trkpt lat="44.72635" lon="7.06526">
        <ele>2575</ele>
        <time>2022-07-15T11:39:01Z</time>
      </trkpt>
      <trkpt lat="44.72637" lon="7.06523">
        <ele>2575</ele>
        <time>2022-07-15T11:39:06Z</time>
      </trkpt>
      <trkpt lat="44.72647" lon="7.06507">
        <ele>2575</ele>
        <time>2022-07-15T11:39:25Z</time>
      </trkpt>
      <trkpt lat="44.7265" lon="7.06497">
        <ele>2575</ele>
        <time>2022-07-15T11:39:35Z</time>
      </trkpt>
      <trkpt lat="44.72652" lon="7.06492">
        <ele>2575</ele>
        <time>2022-07-15T11:39:40Z</time>
      </trkpt>
      <trkpt lat="44.72654" lon="7.06471">
        <ele>2575</ele>
        <time>2022-07-15T11:40:06Z</time>
      </trkpt>
      <trkpt lat="44.72656" lon="7.06467">
        <ele>2575</ele>
        <time>2022-07-15T11:40:15Z</time>
      </trkpt>
      <trkpt lat="44.72659" lon="7.06464">
        <ele>2575</ele>
        <time>2022-07-15T11:40:25Z</time>
      </trkpt>
      <trkpt lat="44.7266" lon="7.06459">
        <ele>2576</ele>
        <time>2022-07-15T11:40:31Z</time>
      </trkpt>
      <trkpt lat="44.72659" lon="7.06454">
        <ele>2576</ele>
        <time>2022-07-15T11:40:37Z</time>
      </trkpt>
      <trkpt lat="44.72658" lon="7.06449">
        <ele>2579</ele>
        <time>2022-07-15T11:41:29Z</time>
      </trkpt>
      <trkpt lat="44.72659" lon="7.06444">
        <ele>2579</ele>
        <time>2022-07-15T11:41:35Z</time>
      </trkpt>
      <trkpt lat="44.72656" lon="7.06441">
        <ele>2579</ele>
        <time>2022-07-15T11:41:54Z</time>
      </trkpt>
      <trkpt lat="44.72653" lon="7.06437">
        <ele>2580</ele>
        <time>2022-07-15T11:42:00Z</time>
      </trkpt>
      <trkpt lat="44.72652" lon="7.06433">
        <ele>2581</ele>
        <time>2022-07-15T11:42:06Z</time>
      </trkpt>
      <trkpt lat="44.72652" lon="7.06428">
        <ele>2581</ele>
        <time>2022-07-15T11:42:12Z</time>
      </trkpt>
      <trkpt lat="44.72651" lon="7.06422">
        <ele>2581</ele>
        <time>2022-07-15T11:42:18Z</time>
      </trkpt>
      <trkpt lat="44.72654" lon="7.06407">
        <ele>2581</ele>
        <time>2022-07-15T11:42:35Z</time>
      </trkpt>
      <trkpt lat="44.72657" lon="7.06377">
        <ele>2584</ele>
        <time>2022-07-15T11:43:04Z</time>
      </trkpt>
      <trkpt lat="44.7266" lon="7.06368">
        <ele>2583</ele>
        <time>2022-07-15T11:43:14Z</time>
      </trkpt>
      <trkpt lat="44.72663" lon="7.06365">
        <ele>2581</ele>
        <time>2022-07-15T11:43:19Z</time>
      </trkpt>
      <trkpt lat="44.72665" lon="7.0636">
        <ele>2581</ele>
        <time>2022-07-15T11:43:37Z</time>
      </trkpt>
      <trkpt lat="44.72667" lon="7.06356">
        <ele>2581</ele>
        <time>2022-07-15T11:43:44Z</time>
      </trkpt>
      <trkpt lat="44.72669" lon="7.06346">
        <ele>2581</ele>
        <time>2022-07-15T11:43:58Z</time>
      </trkpt>
      <trkpt lat="44.72675" lon="7.06338">
        <ele>2581</ele>
        <time>2022-07-15T11:44:08Z</time>
      </trkpt>
      <trkpt lat="44.72672" lon="7.06334">
        <ele>2580</ele>
        <time>2022-07-15T11:44:16Z</time>
      </trkpt>
      <trkpt lat="44.72669" lon="7.06332">
        <ele>2580</ele>
        <time>2022-07-15T11:44:22Z</time>
      </trkpt>
      <trkpt lat="44.72667" lon="7.06327">
        <ele>2579</ele>
        <time>2022-07-15T11:44:27Z</time>
      </trkpt>
      <trkpt lat="44.72667" lon="7.06322">
        <ele>2578</ele>
        <time>2022-07-15T11:44:32Z</time>
      </trkpt>
      <trkpt lat="44.7267" lon="7.06318">
        <ele>2577</ele>
        <time>2022-07-15T11:44:37Z</time>
      </trkpt>
      <trkpt lat="44.7267" lon="7.06313">
        <ele>2576</ele>
        <time>2022-07-15T11:44:42Z</time>
      </trkpt>
      <trkpt lat="44.72669" lon="7.06308">
        <ele>2576</ele>
        <time>2022-07-15T11:44:47Z</time>
      </trkpt>
      <trkpt lat="44.72668" lon="7.06303">
        <ele>2576</ele>
        <time>2022-07-15T11:44:51Z</time>
      </trkpt>
      <trkpt lat="44.72658" lon="7.06276">
        <ele>2573</ele>
        <time>2022-07-15T11:45:18Z</time>
      </trkpt>
      <trkpt lat="44.72658" lon="7.06271">
        <ele>2572</ele>
        <time>2022-07-15T11:45:22Z</time>
      </trkpt>
      <trkpt lat="44.72661" lon="7.06261">
        <ele>2572</ele>
        <time>2022-07-15T11:45:36Z</time>
      </trkpt>
      <trkpt lat="44.72662" lon="7.06246">
        <ele>2572</ele>
        <time>2022-07-15T11:45:49Z</time>
      </trkpt>
      <trkpt lat="44.72662" lon="7.06241">
        <ele>2572</ele>
        <time>2022-07-15T11:45:54Z</time>
      </trkpt>
      <trkpt lat="44.72661" lon="7.06235">
        <ele>2572</ele>
        <time>2022-07-15T11:46:29Z</time>
      </trkpt>
      <trkpt lat="44.72658" lon="7.06233">
        <ele>2572</ele>
        <time>2022-07-15T11:46:35Z</time>
      </trkpt>
      <trkpt lat="44.72655" lon="7.06229">
        <ele>2572</ele>
        <time>2022-07-15T11:46:43Z</time>
      </trkpt>
      <trkpt lat="44.72654" lon="7.06224">
        <ele>2571</ele>
        <time>2022-07-15T11:46:57Z</time>
      </trkpt>
      <trkpt lat="44.72655" lon="7.06219">
        <ele>2570</ele>
        <time>2022-07-15T11:47:02Z</time>
      </trkpt>
      <trkpt lat="44.72657" lon="7.06214">
        <ele>2570</ele>
        <time>2022-07-15T11:47:06Z</time>
      </trkpt>
      <trkpt lat="44.72658" lon="7.0621">
        <ele>2569</ele>
        <time>2022-07-15T11:47:10Z</time>
      </trkpt>
      <trkpt lat="44.72658" lon="7.06204">
        <ele>2568</ele>
        <time>2022-07-15T11:47:16Z</time>
      </trkpt>
      <trkpt lat="44.72659" lon="7.062">
        <ele>2567</ele>
        <time>2022-07-15T11:47:20Z</time>
      </trkpt>
      <trkpt lat="44.7266" lon="7.06195">
        <ele>2566</ele>
        <time>2022-07-15T11:47:25Z</time>
      </trkpt>
      <trkpt lat="44.72659" lon="7.06189">
        <ele>2565</ele>
        <time>2022-07-15T11:47:32Z</time>
      </trkpt>
      <trkpt lat="44.72655" lon="7.06189">
        <ele>2564</ele>
        <time>2022-07-15T11:47:39Z</time>
      </trkpt>
      <trkpt lat="44.72653" lon="7.06185">
        <ele>2561</ele>
        <time>2022-07-15T11:47:52Z</time>
      </trkpt>
      <trkpt lat="44.72657" lon="7.06165">
        <ele>2558</ele>
        <time>2022-07-15T11:48:17Z</time>
      </trkpt>
      <trkpt lat="44.72655" lon="7.06161">
        <ele>2557</ele>
        <time>2022-07-15T11:48:24Z</time>
      </trkpt>
      <trkpt lat="44.72653" lon="7.06157">
        <ele>2556</ele>
        <time>2022-07-15T11:49:06Z</time>
      </trkpt>
      <trkpt lat="44.7265" lon="7.06157">
        <ele>2555</ele>
        <time>2022-07-15T11:50:24Z</time>
      </trkpt>
      <trkpt lat="44.72646" lon="7.06155">
        <ele>2554</ele>
        <time>2022-07-15T11:50:31Z</time>
      </trkpt>
      <trkpt lat="44.72643" lon="7.06152">
        <ele>2553</ele>
        <time>2022-07-15T11:50:37Z</time>
      </trkpt>
      <trkpt lat="44.72644" lon="7.06147">
        <ele>2552</ele>
        <time>2022-07-15T11:50:41Z</time>
      </trkpt>
      <trkpt lat="44.72648" lon="7.06145">
        <ele>2551</ele>
        <time>2022-07-15T11:50:45Z</time>
      </trkpt>
      <trkpt lat="44.7265" lon="7.06141">
        <ele>2550</ele>
        <time>2022-07-15T11:50:49Z</time>
      </trkpt>
      <trkpt lat="44.72653" lon="7.06137">
        <ele>2549</ele>
        <time>2022-07-15T11:50:54Z</time>
      </trkpt>
      <trkpt lat="44.72654" lon="7.06133">
        <ele>2548</ele>
        <time>2022-07-15T11:51:00Z</time>
      </trkpt>
      <trkpt lat="44.72652" lon="7.06129">
        <ele>2547</ele>
        <time>2022-07-15T11:51:05Z</time>
      </trkpt>
      <trkpt lat="44.72654" lon="7.06124">
        <ele>2546</ele>
        <time>2022-07-15T11:51:10Z</time>
      </trkpt>
      <trkpt lat="44.72654" lon="7.06119">
        <ele>2545</ele>
        <time>2022-07-15T11:51:14Z</time>
      </trkpt>
      <trkpt lat="44.72654" lon="7.06109">
        <ele>2544</ele>
        <time>2022-07-15T11:51:23Z</time>
      </trkpt>
      <trkpt lat="44.72654" lon="7.06103">
        <ele>2544</ele>
        <time>2022-07-15T11:51:27Z</time>
      </trkpt>
      <trkpt lat="44.72654" lon="7.06098">
        <ele>2544</ele>
        <time>2022-07-15T11:51:32Z</time>
      </trkpt>
      <trkpt lat="44.72654" lon="7.06093">
        <ele>2544</ele>
        <time>2022-07-15T11:51:35Z</time>
      </trkpt>
      <trkpt lat="44.72653" lon="7.06082">
        <ele>2545</ele>
        <time>2022-07-15T11:51:44Z</time>
      </trkpt>
      <trkpt lat="44.72651" lon="7.06051">
        <ele>2541</ele>
        <time>2022-07-15T11:52:08Z</time>
      </trkpt>
      <trkpt lat="44.72653" lon="7.06046">
        <ele>2541</ele>
        <time>2022-07-15T11:52:12Z</time>
      </trkpt>
      <trkpt lat="44.72654" lon="7.06041">
        <ele>2541</ele>
        <time>2022-07-15T11:52:16Z</time>
      </trkpt>
      <trkpt lat="44.72654" lon="7.06036">
        <ele>2540</ele>
        <time>2022-07-15T11:52:20Z</time>
      </trkpt>
      <trkpt lat="44.72656" lon="7.0603">
        <ele>2540</ele>
        <time>2022-07-15T11:52:24Z</time>
      </trkpt>
      <trkpt lat="44.72657" lon="7.06024">
        <ele>2541</ele>
        <time>2022-07-15T11:53:05Z</time>
      </trkpt>
      <trkpt lat="44.72659" lon="7.0602">
        <ele>2540</ele>
        <time>2022-07-15T11:53:09Z</time>
      </trkpt>
      <trkpt lat="44.72657" lon="7.06016">
        <ele>2539</ele>
        <time>2022-07-15T11:53:13Z</time>
      </trkpt>
      <trkpt lat="44.72655" lon="7.06012">
        <ele>2539</ele>
        <time>2022-07-15T11:53:18Z</time>
      </trkpt>
      <trkpt lat="44.72652" lon="7.05996">
        <ele>2537</ele>
        <time>2022-07-15T11:53:33Z</time>
      </trkpt>
      <trkpt lat="44.72652" lon="7.05985">
        <ele>2537</ele>
        <time>2022-07-15T11:53:42Z</time>
      </trkpt>
      <trkpt lat="44.72653" lon="7.05974">
        <ele>2536</ele>
        <time>2022-07-15T11:53:51Z</time>
      </trkpt>
      <trkpt lat="44.72652" lon="7.05959">
        <ele>2534</ele>
        <time>2022-07-15T11:54:03Z</time>
      </trkpt>
      <trkpt lat="44.72651" lon="7.05954">
        <ele>2533</ele>
        <time>2022-07-15T11:54:08Z</time>
      </trkpt>
      <trkpt lat="44.72648" lon="7.05945">
        <ele>2532</ele>
        <time>2022-07-15T11:54:16Z</time>
      </trkpt>
      <trkpt lat="44.72646" lon="7.0594">
        <ele>2532</ele>
        <time>2022-07-15T11:54:21Z</time>
      </trkpt>
      <trkpt lat="44.72645" lon="7.05935">
        <ele>2532</ele>
        <time>2022-07-15T11:54:26Z</time>
      </trkpt>
      <trkpt lat="44.72646" lon="7.0591">
        <ele>2530</ele>
        <time>2022-07-15T11:54:48Z</time>
      </trkpt>
      <trkpt lat="44.72647" lon="7.05905">
        <ele>2529</ele>
        <time>2022-07-15T11:54:54Z</time>
      </trkpt>
      <trkpt lat="44.72651" lon="7.0589">
        <ele>2528</ele>
        <time>2022-07-15T11:55:12Z</time>
      </trkpt>
      <trkpt lat="44.72651" lon="7.05886">
        <ele>2527</ele>
        <time>2022-07-15T11:55:16Z</time>
      </trkpt>
      <trkpt lat="44.72651" lon="7.05881">
        <ele>2527</ele>
        <time>2022-07-15T11:55:20Z</time>
      </trkpt>
      <trkpt lat="44.72653" lon="7.05871">
        <ele>2526</ele>
        <time>2022-07-15T11:55:28Z</time>
      </trkpt>
      <trkpt lat="44.72654" lon="7.05866">
        <ele>2524</ele>
        <time>2022-07-15T11:55:32Z</time>
      </trkpt>
      <trkpt lat="44.72656" lon="7.05856">
        <ele>2522</ele>
        <time>2022-07-15T11:55:40Z</time>
      </trkpt>
      <trkpt lat="44.72655" lon="7.0585">
        <ele>2522</ele>
        <time>2022-07-15T11:55:45Z</time>
      </trkpt>
      <trkpt lat="44.72656" lon="7.05845">
        <ele>2521</ele>
        <time>2022-07-15T11:55:49Z</time>
      </trkpt>
      <trkpt lat="44.72657" lon="7.0584">
        <ele>2520</ele>
        <time>2022-07-15T11:55:53Z</time>
      </trkpt>
      <trkpt lat="44.72663" lon="7.05804">
        <ele>2514</ele>
        <time>2022-07-15T11:56:22Z</time>
      </trkpt>
      <trkpt lat="44.72662" lon="7.05788">
        <ele>2515</ele>
        <time>2022-07-15T11:56:34Z</time>
      </trkpt>
      <trkpt lat="44.72661" lon="7.05783">
        <ele>2515</ele>
        <time>2022-07-15T11:56:40Z</time>
      </trkpt>
      <trkpt lat="44.72662" lon="7.05778">
        <ele>2514</ele>
        <time>2022-07-15T11:56:46Z</time>
      </trkpt>
      <trkpt lat="44.72664" lon="7.05768">
        <ele>2512</ele>
        <time>2022-07-15T11:57:14Z</time>
      </trkpt>
      <trkpt lat="44.72663" lon="7.05764">
        <ele>2512</ele>
        <time>2022-07-15T11:57:17Z</time>
      </trkpt>
      <trkpt lat="44.72669" lon="7.05751">
        <ele>2509</ele>
        <time>2022-07-15T11:57:31Z</time>
      </trkpt>
      <trkpt lat="44.72682" lon="7.05723">
        <ele>2504</ele>
        <time>2022-07-15T11:57:59Z</time>
      </trkpt>
      <trkpt lat="44.72682" lon="7.05718">
        <ele>2504</ele>
        <time>2022-07-15T11:58:04Z</time>
      </trkpt>
      <trkpt lat="44.72685" lon="7.05707">
        <ele>2504</ele>
        <time>2022-07-15T11:58:12Z</time>
      </trkpt>
      <trkpt lat="44.72691" lon="7.05694">
        <ele>2501</ele>
        <time>2022-07-15T11:58:25Z</time>
      </trkpt>
      <trkpt lat="44.72692" lon="7.05689">
        <ele>2501</ele>
        <time>2022-07-15T11:58:29Z</time>
      </trkpt>
      <trkpt lat="44.72694" lon="7.05674">
        <ele>2501</ele>
        <time>2022-07-15T11:58:41Z</time>
      </trkpt>
      <trkpt lat="44.72693" lon="7.05669">
        <ele>2501</ele>
        <time>2022-07-15T11:58:46Z</time>
      </trkpt>
      <trkpt lat="44.72691" lon="7.05664">
        <ele>2501</ele>
        <time>2022-07-15T11:58:51Z</time>
      </trkpt>
      <trkpt lat="44.7269" lon="7.0566">
        <ele>2502</ele>
        <time>2022-07-15T11:58:55Z</time>
      </trkpt>
      <trkpt lat="44.7269" lon="7.05655">
        <ele>2502</ele>
        <time>2022-07-15T11:59:00Z</time>
      </trkpt>
      <trkpt lat="44.72691" lon="7.0565">
        <ele>2502</ele>
        <time>2022-07-15T11:59:13Z</time>
      </trkpt>
      <trkpt lat="44.72693" lon="7.05646">
        <ele>2501</ele>
        <time>2022-07-15T11:59:21Z</time>
      </trkpt>
      <trkpt lat="44.72697" lon="7.05643">
        <ele>2501</ele>
        <time>2022-07-15T11:59:44Z</time>
      </trkpt>
      <trkpt lat="44.72698" lon="7.05637">
        <ele>2502</ele>
        <time>2022-07-15T11:59:50Z</time>
      </trkpt>
      <trkpt lat="44.727" lon="7.05633">
        <ele>2501</ele>
        <time>2022-07-15T12:00:00Z</time>
      </trkpt>
      <trkpt lat="44.727" lon="7.05628">
        <ele>2500</ele>
        <time>2022-07-15T12:00:05Z</time>
      </trkpt>
      <trkpt lat="44.72701" lon="7.05623">
        <ele>2499</ele>
        <time>2022-07-15T12:00:09Z</time>
      </trkpt>
      <trkpt lat="44.727" lon="7.05618">
        <ele>2499</ele>
        <time>2022-07-15T12:00:13Z</time>
      </trkpt>
      <trkpt lat="44.72703" lon="7.05613">
        <ele>2499</ele>
        <time>2022-07-15T12:00:17Z</time>
      </trkpt>
      <trkpt lat="44.72702" lon="7.05603">
        <ele>2498</ele>
        <time>2022-07-15T12:00:25Z</time>
      </trkpt>
      <trkpt lat="44.72704" lon="7.05586">
        <ele>2497</ele>
        <time>2022-07-15T12:00:37Z</time>
      </trkpt>
      <trkpt lat="44.72705" lon="7.05582">
        <ele>2496</ele>
        <time>2022-07-15T12:00:41Z</time>
      </trkpt>
      <trkpt lat="44.72707" lon="7.05571">
        <ele>2495</ele>
        <time>2022-07-15T12:00:49Z</time>
      </trkpt>
      <trkpt lat="44.72709" lon="7.05566">
        <ele>2495</ele>
        <time>2022-07-15T12:00:53Z</time>
      </trkpt>
      <trkpt lat="44.72712" lon="7.05562">
        <ele>2496</ele>
        <time>2022-07-15T12:00:58Z</time>
      </trkpt>
      <trkpt lat="44.72714" lon="7.05557">
        <ele>2496</ele>
        <time>2022-07-15T12:01:03Z</time>
      </trkpt>
      <trkpt lat="44.72715" lon="7.05552">
        <ele>2496</ele>
        <time>2022-07-15T12:01:08Z</time>
      </trkpt>
      <trkpt lat="44.72714" lon="7.05541">
        <ele>2497</ele>
        <time>2022-07-15T12:01:17Z</time>
      </trkpt>
      <trkpt lat="44.72719" lon="7.05511">
        <ele>2496</ele>
        <time>2022-07-15T12:01:41Z</time>
      </trkpt>
      <trkpt lat="44.72715" lon="7.05495">
        <ele>2495</ele>
        <time>2022-07-15T12:01:53Z</time>
      </trkpt>
      <trkpt lat="44.72715" lon="7.0549">
        <ele>2494</ele>
        <time>2022-07-15T12:02:07Z</time>
      </trkpt>
      <trkpt lat="44.72713" lon="7.0548">
        <ele>2495</ele>
        <time>2022-07-15T12:02:16Z</time>
      </trkpt>
      <trkpt lat="44.72713" lon="7.05475">
        <ele>2495</ele>
        <time>2022-07-15T12:02:22Z</time>
      </trkpt>
      <trkpt lat="44.72715" lon="7.05469">
        <ele>2496</ele>
        <time>2022-07-15T12:04:33Z</time>
      </trkpt>
      <trkpt lat="44.72714" lon="7.05443">
        <ele>2496</ele>
        <time>2022-07-15T12:04:58Z</time>
      </trkpt>
      <trkpt lat="44.72714" lon="7.05437">
        <ele>2496</ele>
        <time>2022-07-15T12:05:02Z</time>
      </trkpt>
      <trkpt lat="44.72716" lon="7.05433">
        <ele>2497</ele>
        <time>2022-07-15T12:05:20Z</time>
      </trkpt>
      <trkpt lat="44.72718" lon="7.05428">
        <ele>2497</ele>
        <time>2022-07-15T12:05:26Z</time>
      </trkpt>
      <trkpt lat="44.7272" lon="7.05425">
        <ele>2496</ele>
        <time>2022-07-15T12:05:31Z</time>
      </trkpt>
      <trkpt lat="44.72733" lon="7.05398">
        <ele>2495</ele>
        <time>2022-07-15T12:05:55Z</time>
      </trkpt>
      <trkpt lat="44.72736" lon="7.05395">
        <ele>2494</ele>
        <time>2022-07-15T12:05:59Z</time>
      </trkpt>
      <trkpt lat="44.72738" lon="7.05391">
        <ele>2494</ele>
        <time>2022-07-15T12:06:03Z</time>
      </trkpt>
      <trkpt lat="44.7274" lon="7.05386">
        <ele>2493</ele>
        <time>2022-07-15T12:06:07Z</time>
      </trkpt>
      <trkpt lat="44.72743" lon="7.05382">
        <ele>2493</ele>
        <time>2022-07-15T12:06:11Z</time>
      </trkpt>
      <trkpt lat="44.72746" lon="7.05381">
        <ele>2492</ele>
        <time>2022-07-15T12:06:15Z</time>
      </trkpt>
      <trkpt lat="44.72753" lon="7.05376">
        <ele>2491</ele>
        <time>2022-07-15T12:06:24Z</time>
      </trkpt>
      <trkpt lat="44.72756" lon="7.05371">
        <ele>2490</ele>
        <time>2022-07-15T12:06:29Z</time>
      </trkpt>
      <trkpt lat="44.72764" lon="7.05347">
        <ele>2487</ele>
        <time>2022-07-15T12:06:50Z</time>
      </trkpt>
      <trkpt lat="44.72767" lon="7.05344">
        <ele>2485</ele>
        <time>2022-07-15T12:07:21Z</time>
      </trkpt>
      <trkpt lat="44.72769" lon="7.05338">
        <ele>2485</ele>
        <time>2022-07-15T12:07:26Z</time>
      </trkpt>
      <trkpt lat="44.72769" lon="7.05323">
        <ele>2485</ele>
        <time>2022-07-15T12:07:40Z</time>
      </trkpt>
      <trkpt lat="44.72768" lon="7.05311">
        <ele>2484</ele>
        <time>2022-07-15T12:07:50Z</time>
      </trkpt>
      <trkpt lat="44.72768" lon="7.05306">
        <ele>2484</ele>
        <time>2022-07-15T12:07:55Z</time>
      </trkpt>
      <trkpt lat="44.72766" lon="7.05302">
        <ele>2484</ele>
        <time>2022-07-15T12:08:00Z</time>
      </trkpt>
      <trkpt lat="44.72764" lon="7.05297">
        <ele>2484</ele>
        <time>2022-07-15T12:08:05Z</time>
      </trkpt>
      <trkpt lat="44.72764" lon="7.05292">
        <ele>2483</ele>
        <time>2022-07-15T12:08:10Z</time>
      </trkpt>
      <trkpt lat="44.72765" lon="7.05287">
        <ele>2482</ele>
        <time>2022-07-15T12:08:15Z</time>
      </trkpt>
      <trkpt lat="44.72768" lon="7.05283">
        <ele>2481</ele>
        <time>2022-07-15T12:08:30Z</time>
      </trkpt>
      <trkpt lat="44.72767" lon="7.05277">
        <ele>2481</ele>
        <time>2022-07-15T12:08:36Z</time>
      </trkpt>
      <trkpt lat="44.72771" lon="7.05275">
        <ele>2479</ele>
        <time>2022-07-15T12:08:42Z</time>
      </trkpt>
      <trkpt lat="44.72775" lon="7.05274">
        <ele>2478</ele>
        <time>2022-07-15T12:08:48Z</time>
      </trkpt>
      <trkpt lat="44.72771" lon="7.05254">
        <ele>2474</ele>
        <time>2022-07-15T12:09:06Z</time>
      </trkpt>
      <trkpt lat="44.7277" lon="7.05249">
        <ele>2474</ele>
        <time>2022-07-15T12:09:11Z</time>
      </trkpt>
      <trkpt lat="44.72765" lon="7.05242">
        <ele>2473</ele>
        <time>2022-07-15T12:09:20Z</time>
      </trkpt>
      <trkpt lat="44.72762" lon="7.05238">
        <ele>2473</ele>
        <time>2022-07-15T12:09:26Z</time>
      </trkpt>
      <trkpt lat="44.72763" lon="7.05233">
        <ele>2472</ele>
        <time>2022-07-15T12:09:35Z</time>
      </trkpt>
      <trkpt lat="44.72772" lon="7.05223">
        <ele>2470</ele>
        <time>2022-07-15T12:09:50Z</time>
      </trkpt>
      <trkpt lat="44.72766" lon="7.05217">
        <ele>2469</ele>
        <time>2022-07-15T12:10:01Z</time>
      </trkpt>
      <trkpt lat="44.72768" lon="7.05213">
        <ele>2468</ele>
        <time>2022-07-15T12:10:09Z</time>
      </trkpt>
      <trkpt lat="44.72768" lon="7.05207">
        <ele>2466</ele>
        <time>2022-07-15T12:10:15Z</time>
      </trkpt>
      <trkpt lat="44.72765" lon="7.05207">
        <ele>2466</ele>
        <time>2022-07-15T12:10:20Z</time>
      </trkpt>
      <trkpt lat="44.72762" lon="7.05204">
        <ele>2465</ele>
        <time>2022-07-15T12:10:24Z</time>
      </trkpt>
      <trkpt lat="44.72762" lon="7.05199">
        <ele>2464</ele>
        <time>2022-07-15T12:10:28Z</time>
      </trkpt>
      <trkpt lat="44.72765" lon="7.05195">
        <ele>2463</ele>
        <time>2022-07-15T12:10:33Z</time>
      </trkpt>
      <trkpt lat="44.72764" lon="7.0519">
        <ele>2462</ele>
        <time>2022-07-15T12:10:46Z</time>
      </trkpt>
      <trkpt lat="44.72757" lon="7.05186">
        <ele>2460</ele>
        <time>2022-07-15T12:10:56Z</time>
      </trkpt>
      <trkpt lat="44.72755" lon="7.05183">
        <ele>2459</ele>
        <time>2022-07-15T12:11:01Z</time>
      </trkpt>
      <trkpt lat="44.72757" lon="7.05179">
        <ele>2458</ele>
        <time>2022-07-15T12:11:05Z</time>
      </trkpt>
      <trkpt lat="44.7276" lon="7.05169">
        <ele>2458</ele>
        <time>2022-07-15T12:11:15Z</time>
      </trkpt>
      <trkpt lat="44.72761" lon="7.05164">
        <ele>2457</ele>
        <time>2022-07-15T12:11:20Z</time>
      </trkpt>
      <trkpt lat="44.72764" lon="7.05161">
        <ele>2456</ele>
        <time>2022-07-15T12:11:25Z</time>
      </trkpt>
      <trkpt lat="44.72772" lon="7.05159">
        <ele>2455</ele>
        <time>2022-07-15T12:11:35Z</time>
      </trkpt>
      <trkpt lat="44.72774" lon="7.05155">
        <ele>2454</ele>
        <time>2022-07-15T12:11:40Z</time>
      </trkpt>
      <trkpt lat="44.72775" lon="7.0515">
        <ele>2452</ele>
        <time>2022-07-15T12:11:46Z</time>
      </trkpt>
      <trkpt lat="44.72786" lon="7.05145">
        <ele>2450</ele>
        <time>2022-07-15T12:12:01Z</time>
      </trkpt>
      <trkpt lat="44.72789" lon="7.05143">
        <ele>2450</ele>
        <time>2022-07-15T12:12:05Z</time>
      </trkpt>
      <trkpt lat="44.72789" lon="7.05138">
        <ele>2450</ele>
        <time>2022-07-15T12:12:10Z</time>
      </trkpt>
      <trkpt lat="44.72789" lon="7.05132">
        <ele>2449</ele>
        <time>2022-07-15T12:12:15Z</time>
      </trkpt>
      <trkpt lat="44.72791" lon="7.05127">
        <ele>2448</ele>
        <time>2022-07-15T12:12:20Z</time>
      </trkpt>
      <trkpt lat="44.72793" lon="7.05121">
        <ele>2447</ele>
        <time>2022-07-15T12:12:29Z</time>
      </trkpt>
      <trkpt lat="44.72796" lon="7.05121">
        <ele>2445</ele>
        <time>2022-07-15T12:12:35Z</time>
      </trkpt>
      <trkpt lat="44.728" lon="7.05117">
        <ele>2444</ele>
        <time>2022-07-15T12:12:41Z</time>
      </trkpt>
      <trkpt lat="44.72798" lon="7.05113">
        <ele>2444</ele>
        <time>2022-07-15T12:12:47Z</time>
      </trkpt>
      <trkpt lat="44.72795" lon="7.05114">
        <ele>2444</ele>
        <time>2022-07-15T12:12:52Z</time>
      </trkpt>
      <trkpt lat="44.72791" lon="7.05112">
        <ele>2443</ele>
        <time>2022-07-15T12:12:58Z</time>
      </trkpt>
      <trkpt lat="44.72792" lon="7.05107">
        <ele>2443</ele>
        <time>2022-07-15T12:13:03Z</time>
      </trkpt>
      <trkpt lat="44.72789" lon="7.05104">
        <ele>2440</ele>
        <time>2022-07-15T12:13:12Z</time>
      </trkpt>
      <trkpt lat="44.72786" lon="7.05107">
        <ele>2439</ele>
        <time>2022-07-15T12:13:16Z</time>
      </trkpt>
      <trkpt lat="44.72786" lon="7.05101">
        <ele>2439</ele>
        <time>2022-07-15T12:13:28Z</time>
      </trkpt>
      <trkpt lat="44.72787" lon="7.05096">
        <ele>2438</ele>
        <time>2022-07-15T12:13:32Z</time>
      </trkpt>
      <trkpt lat="44.7279" lon="7.05092">
        <ele>2437</ele>
        <time>2022-07-15T12:13:36Z</time>
      </trkpt>
      <trkpt lat="44.72789" lon="7.05081">
        <ele>2436</ele>
        <time>2022-07-15T12:13:44Z</time>
      </trkpt>
      <trkpt lat="44.72787" lon="7.0507">
        <ele>2436</ele>
        <time>2022-07-15T12:13:53Z</time>
      </trkpt>
      <trkpt lat="44.72786" lon="7.05065">
        <ele>2436</ele>
        <time>2022-07-15T12:13:58Z</time>
      </trkpt>
      <trkpt lat="44.72783" lon="7.05062">
        <ele>2434</ele>
        <time>2022-07-15T12:14:04Z</time>
      </trkpt>
      <trkpt lat="44.7278" lon="7.0506">
        <ele>2433</ele>
        <time>2022-07-15T12:14:09Z</time>
      </trkpt>
      <trkpt lat="44.7278" lon="7.05055">
        <ele>2432</ele>
        <time>2022-07-15T12:14:14Z</time>
      </trkpt>
      <trkpt lat="44.72783" lon="7.05051">
        <ele>2430</ele>
        <time>2022-07-15T12:14:18Z</time>
      </trkpt>
      <trkpt lat="44.72783" lon="7.05045">
        <ele>2429</ele>
        <time>2022-07-15T12:14:23Z</time>
      </trkpt>
      <trkpt lat="44.72777" lon="7.05039">
        <ele>2429</ele>
        <time>2022-07-15T12:14:33Z</time>
      </trkpt>
      <trkpt lat="44.72773" lon="7.05038">
        <ele>2428</ele>
        <time>2022-07-15T12:14:38Z</time>
      </trkpt>
      <trkpt lat="44.72774" lon="7.05033">
        <ele>2427</ele>
        <time>2022-07-15T12:14:43Z</time>
      </trkpt>
      <trkpt lat="44.72775" lon="7.05027">
        <ele>2426</ele>
        <time>2022-07-15T12:14:48Z</time>
      </trkpt>
      <trkpt lat="44.72773" lon="7.05022">
        <ele>2424</ele>
        <time>2022-07-15T12:14:53Z</time>
      </trkpt>
      <trkpt lat="44.72771" lon="7.05018">
        <ele>2423</ele>
        <time>2022-07-15T12:14:58Z</time>
      </trkpt>
      <trkpt lat="44.72767" lon="7.05018">
        <ele>2423</ele>
        <time>2022-07-15T12:15:03Z</time>
      </trkpt>
      <trkpt lat="44.72764" lon="7.05021">
        <ele>2422</ele>
        <time>2022-07-15T12:15:07Z</time>
      </trkpt>
      <trkpt lat="44.72761" lon="7.05019">
        <ele>2421</ele>
        <time>2022-07-15T12:15:11Z</time>
      </trkpt>
      <trkpt lat="44.72762" lon="7.05014">
        <ele>2420</ele>
        <time>2022-07-15T12:15:16Z</time>
      </trkpt>
      <trkpt lat="44.72761" lon="7.05009">
        <ele>2418</ele>
        <time>2022-07-15T12:15:21Z</time>
      </trkpt>
      <trkpt lat="44.72758" lon="7.05007">
        <ele>2418</ele>
        <time>2022-07-15T12:15:26Z</time>
      </trkpt>
      <trkpt lat="44.72754" lon="7.05003">
        <ele>2416</ele>
        <time>2022-07-15T12:15:31Z</time>
      </trkpt>
      <trkpt lat="44.72753" lon="7.04998">
        <ele>2416</ele>
        <time>2022-07-15T12:15:36Z</time>
      </trkpt>
      <trkpt lat="44.72758" lon="7.04989">
        <ele>2413</ele>
        <time>2022-07-15T12:15:46Z</time>
      </trkpt>
      <trkpt lat="44.72759" lon="7.04984">
        <ele>2412</ele>
        <time>2022-07-15T12:15:50Z</time>
      </trkpt>
      <trkpt lat="44.72759" lon="7.0498">
        <ele>2412</ele>
        <time>2022-07-15T12:15:54Z</time>
      </trkpt>
      <trkpt lat="44.72759" lon="7.04975">
        <ele>2411</ele>
        <time>2022-07-15T12:15:58Z</time>
      </trkpt>
      <trkpt lat="44.7276" lon="7.04969">
        <ele>2410</ele>
        <time>2022-07-15T12:16:03Z</time>
      </trkpt>
      <trkpt lat="44.7276" lon="7.04947">
        <ele>2407</ele>
        <time>2022-07-15T12:16:19Z</time>
      </trkpt>
      <trkpt lat="44.72758" lon="7.04941">
        <ele>2407</ele>
        <time>2022-07-15T12:16:24Z</time>
      </trkpt>
      <trkpt lat="44.72758" lon="7.04936">
        <ele>2407</ele>
        <time>2022-07-15T12:16:27Z</time>
      </trkpt>
      <trkpt lat="44.72761" lon="7.0492">
        <ele>2405</ele>
        <time>2022-07-15T12:16:39Z</time>
      </trkpt>
      <trkpt lat="44.72762" lon="7.04899">
        <ele>2407</ele>
        <time>2022-07-15T12:16:56Z</time>
      </trkpt>
      <trkpt lat="44.72759" lon="7.04877">
        <ele>2407</ele>
        <time>2022-07-15T12:17:12Z</time>
      </trkpt>
      <trkpt lat="44.72759" lon="7.04871">
        <ele>2407</ele>
        <time>2022-07-15T12:17:16Z</time>
      </trkpt>
      <trkpt lat="44.72759" lon="7.04866">
        <ele>2407</ele>
        <time>2022-07-15T12:17:20Z</time>
      </trkpt>
      <trkpt lat="44.72759" lon="7.04861">
        <ele>2407</ele>
        <time>2022-07-15T12:17:24Z</time>
      </trkpt>
      <trkpt lat="44.72759" lon="7.04855">
        <ele>2407</ele>
        <time>2022-07-15T12:17:28Z</time>
      </trkpt>
      <trkpt lat="44.72761" lon="7.04829">
        <ele>2406</ele>
        <time>2022-07-15T12:17:54Z</time>
      </trkpt>
      <trkpt lat="44.72762" lon="7.04824">
        <ele>2406</ele>
        <time>2022-07-15T12:17:58Z</time>
      </trkpt>
      <trkpt lat="44.72762" lon="7.04813">
        <ele>2405</ele>
        <time>2022-07-15T12:18:06Z</time>
      </trkpt>
      <trkpt lat="44.72762" lon="7.04802">
        <ele>2405</ele>
        <time>2022-07-15T12:18:14Z</time>
      </trkpt>
      <trkpt lat="44.72762" lon="7.04797">
        <ele>2405</ele>
        <time>2022-07-15T12:18:19Z</time>
      </trkpt>
      <trkpt lat="44.72763" lon="7.04792">
        <ele>2404</ele>
        <time>2022-07-15T12:18:25Z</time>
      </trkpt>
      <trkpt lat="44.72768" lon="7.04784">
        <ele>2402</ele>
        <time>2022-07-15T12:18:33Z</time>
      </trkpt>
      <trkpt lat="44.72766" lon="7.0478">
        <ele>2403</ele>
        <time>2022-07-15T12:18:41Z</time>
      </trkpt>
      <trkpt lat="44.72778" lon="7.04766">
        <ele>2400</ele>
        <time>2022-07-15T12:18:58Z</time>
      </trkpt>
      <trkpt lat="44.7278" lon="7.04761">
        <ele>2399</ele>
        <time>2022-07-15T12:19:03Z</time>
      </trkpt>
      <trkpt lat="44.72782" lon="7.04757">
        <ele>2398</ele>
        <time>2022-07-15T12:19:08Z</time>
      </trkpt>
      <trkpt lat="44.72785" lon="7.04747">
        <ele>2396</ele>
        <time>2022-07-15T12:19:17Z</time>
      </trkpt>
      <trkpt lat="44.72786" lon="7.04743">
        <ele>2395</ele>
        <time>2022-07-15T12:19:22Z</time>
      </trkpt>
      <trkpt lat="44.72787" lon="7.04731">
        <ele>2394</ele>
        <time>2022-07-15T12:19:32Z</time>
      </trkpt>
      <trkpt lat="44.72788" lon="7.04726">
        <ele>2393</ele>
        <time>2022-07-15T12:19:37Z</time>
      </trkpt>
      <trkpt lat="44.72789" lon="7.04721">
        <ele>2393</ele>
        <time>2022-07-15T12:19:42Z</time>
      </trkpt>
      <trkpt lat="44.7279" lon="7.04695">
        <ele>2391</ele>
        <time>2022-07-15T12:20:04Z</time>
      </trkpt>
      <trkpt lat="44.72789" lon="7.0469">
        <ele>2391</ele>
        <time>2022-07-15T12:20:08Z</time>
      </trkpt>
      <trkpt lat="44.7279" lon="7.04674">
        <ele>2387</ele>
        <time>2022-07-15T12:20:21Z</time>
      </trkpt>
      <trkpt lat="44.72787" lon="7.0466">
        <ele>2385</ele>
        <time>2022-07-15T12:20:35Z</time>
      </trkpt>
      <trkpt lat="44.72788" lon="7.04655">
        <ele>2383</ele>
        <time>2022-07-15T12:20:41Z</time>
      </trkpt>
      <trkpt lat="44.72788" lon="7.0465">
        <ele>2383</ele>
        <time>2022-07-15T12:20:46Z</time>
      </trkpt>
      <trkpt lat="44.72788" lon="7.04639">
        <ele>2380</ele>
        <time>2022-07-15T12:20:58Z</time>
      </trkpt>
      <trkpt lat="44.72787" lon="7.04635">
        <ele>2380</ele>
        <time>2022-07-15T12:21:02Z</time>
      </trkpt>
      <trkpt lat="44.72788" lon="7.0463">
        <ele>2379</ele>
        <time>2022-07-15T12:21:08Z</time>
      </trkpt>
      <trkpt lat="44.72787" lon="7.04619">
        <ele>2376</ele>
        <time>2022-07-15T12:21:18Z</time>
      </trkpt>
      <trkpt lat="44.72792" lon="7.04618">
        <ele>2376</ele>
        <time>2022-07-15T12:21:24Z</time>
      </trkpt>
      <trkpt lat="44.72797" lon="7.0461">
        <ele>2375</ele>
        <time>2022-07-15T12:21:32Z</time>
      </trkpt>
      <trkpt lat="44.72799" lon="7.04606">
        <ele>2376</ele>
        <time>2022-07-15T12:21:36Z</time>
      </trkpt>
      <trkpt lat="44.72799" lon="7.046">
        <ele>2376</ele>
        <time>2022-07-15T12:21:40Z</time>
      </trkpt>
      <trkpt lat="44.72799" lon="7.04595">
        <ele>2375</ele>
        <time>2022-07-15T12:21:45Z</time>
      </trkpt>
      <trkpt lat="44.728" lon="7.04591">
        <ele>2375</ele>
        <time>2022-07-15T12:21:50Z</time>
      </trkpt>
      <trkpt lat="44.728" lon="7.04586">
        <ele>2374</ele>
        <time>2022-07-15T12:21:55Z</time>
      </trkpt>
      <trkpt lat="44.72798" lon="7.04576">
        <ele>2374</ele>
        <time>2022-07-15T12:22:05Z</time>
      </trkpt>
      <trkpt lat="44.72797" lon="7.04571">
        <ele>2374</ele>
        <time>2022-07-15T12:22:10Z</time>
      </trkpt>
      <trkpt lat="44.72796" lon="7.04566">
        <ele>2374</ele>
        <time>2022-07-15T12:22:15Z</time>
      </trkpt>
      <trkpt lat="44.72796" lon="7.04555">
        <ele>2374</ele>
        <time>2022-07-15T12:22:23Z</time>
      </trkpt>
      <trkpt lat="44.72798" lon="7.04545">
        <ele>2375</ele>
        <time>2022-07-15T12:22:33Z</time>
      </trkpt>
      <trkpt lat="44.728" lon="7.0454">
        <ele>2375</ele>
        <time>2022-07-15T12:22:39Z</time>
      </trkpt>
      <trkpt lat="44.72803" lon="7.04536">
        <ele>2374</ele>
        <time>2022-07-15T12:22:43Z</time>
      </trkpt>
      <trkpt lat="44.72814" lon="7.04528">
        <ele>2373</ele>
        <time>2022-07-15T12:22:57Z</time>
      </trkpt>
      <trkpt lat="44.72812" lon="7.04522">
        <ele>2372</ele>
        <time>2022-07-15T12:23:12Z</time>
      </trkpt>
      <trkpt lat="44.72816" lon="7.04523">
        <ele>2372</ele>
        <time>2022-07-15T12:23:14Z</time>
      </trkpt>
    </trkseg>
  </trk>
</gpx>